[[{"header":{"parameterUnit":"m.s-1","parameterCategory":1,"la1":31.0,"la2":29.5877,"lo1":-88.7671,"lo2":-86.6584,"dy":0.0162,"dx":0.0185,"nx":115,"ny":88,"refTime":"2026-03-22T00:00:00:Z","depth":0,"parameterNumber":2,"parameterNumberName":"U-component_of_WINDS"},"data":[0.0,0.0,0.0,0.0,0.0,0.0,0.0,0.0,0.0,0.0,0.0,0.0,0.0,0.0,0.0,0.0,0.0,0.0,0.0,0.0,0.0,0.0,0.0,0.0,0.0,0.0,0.0,0.0,0.0,0.0,0.0,0.0,0.0,0.0,0.0,0.0,0.0,0.0,0.0,0.0,0.0,0.0,0.0,0.0,0.0,0.0,0.0,0.0,0.0,0.0,0.0,0.0,0.0,0.0,0.0,0.0,0.0,0.0,0.0,0.0,0.0,0.0,0.0,0.0,0.0,0.0,0.0,0.0,0.0,0.0,0.0,0.0,0.0,0.0,0.0,0.0,0.0,0.0,0.0,0.0,0.0,0.0,0.0,0.0,0.0,0.0,0.0,0.0,0.0,0.0,0.0,0.0,0.0,0.0,0.0,0.0,0.0,0.0,0.0,0.0,0.0,0.0,0.0,0.0,0.0,0.0,0.0,0.0,0.0,0.0,0.0,0.0,0.0,0.0,0.0,0.0,0.0,0.0,0.0,0.0,0.0,0.0,0.0,0.0,0.0,0.0,0.0,0.0,0.0,0.0,0.0,0.0,0.0,0.0,0.0,0.0,0.0,0.0,0.0,0.0,0.0,0.0,0.0,0.0,0.0,0.0,0.0,0.0,0.0,0.0,0.0,0.0,0.0,0.0,0.0,0.0,0.0,0.0,0.0,0.0,0.0,0.0,0.0,0.0,0.0,0.0,0.0,0.0,0.0,0.0,0.0,0.0,0.0,0.0,0.0,0.0,0.0,0.0,0.0,0.0,0.0,0.0,0.0,0.0,0.0,0.0,0.0,0.0,0.0,0.0,0.0,0.0,0.0,0.0,0.0,0.0,0.0,0.0,0.0,0.0,0.0,0.0,0.0,0.0,0.0,0.0,0.0,0.0,0.0,0.0,0.0,0.0,0.0,0.0,0.0,0.0,0.0,0.0,0.0,0.0,0.0,0.0,0.0,0.0,0.0,0.0,0.0,0.0,0.0,0.0,0.0,0.0,0.0,0.0,0.0,0.0,0.0,0.0,0.0,0.0,0.0,0.0,0.0,0.0,0.0,0.0,0.0,0.0,0.0,0.0,0.0,0.0,0.0,0.0,0.0,0.0,0.0,0.0,0.0,0.0,0.0,0.0,0.0,0.0,0.0,0.0,0.0,0.0,0.0,0.0,0.0,0.0,0.0,0.0,0.0,0.0,0.0,0.0,0.0,0.0,0.0,0.0,0.0,0.0,0.0,0.0,0.0,0.0,0.0,0.0,0.0,0.0,0.0,0.0,0.0,0.0,0.0,0.0,0.0,0.0,0.0,0.0,0.0,0.0,0.0,0.0,0.0,0.0,0.0,0.0,0.0,0.0,0.0,0.0,0.0,0.0,0.0,0.0,0.0,0.0,0.0,0.0,0.0,0.0,0.0,0.0,0.0,0.0,0.0,0.0,0.0,0.0,0.0,0.0,0.0,0.0,0.0,0.0,0.0,0.0,0.0,0.0,0.0,0.0,0.0,0.0,0.0,0.0,0.0,0.0,0.0,0.0,0.0,0.0,0.0,0.0,0.0,0.0,0.0,0.0,0.0,0.0,0.0,0.0,0.0,0.0,0.0,0.0,0.0,0.0,0.0,0.0,0.0,0.0,0.0,0.0,0.0,0.0,0.0,0.0,0.0,0.0,0.0,0.0,0.0,0.0,0.0,0.0,0.0,0.0,0.0,0.0,0.0,0.0,0.0,0.0,0.0,0.0,0.0,0.0,0.0,0.0,0.0,0.0,0.0,0.0,0.0,0.0,0.0,0.0,0.0,0.0,0.0,0.0,0.0,0.0,0.0,0.0,0.0,0.0,0.0,0.0,0.0,0.0,0.0,0.0,0.0,0.0,0.0,0.0,0.0,0.0,0.0,0.0,0.0,0.0,0.0,0.0,0.0,0.0,0.0,0.0,0.0,0.0,0.0,0.0,0.0,0.0,0.0,0.0,0.0,0.0,0.0,0.0,0.0,0.0,0.0,0.0,0.0,0.0,0.0,0.0,0.0,0.0,0.0,0.0,0.0,0.0,0.0,0.0,0.0,0.0,0.0,0.0,0.0,0.0,0.0,0.0,0.0,0.0,0.0,0.0,0.0,0.0,0.0,0.0,0.0,0.0,0.0,0.0,0.0,0.0,0.0,0.0,0.0,0.0,0.0,0.0,0.0,0.0,0.0,0.0,0.0,0.0,0.0,0.0,0.0,0.0,0.0,0.0,0.0,0.0,0.0,0.0,0.0,0.0,0.0,0.0,0.0,0.0,0.0,0.0,0.0,0.0,0.0,0.0,0.0,0.0,0.0,0.0,0.0,0.0,0.0,0.0,0.0,0.0,0.0,0.0,0.0,0.0,0.0,0.0,0.0,0.0,0.0,0.0,0.0,0.0,0.0,0.0,0.0,0.0,0.0,0.0,0.0,0.0,0.0,0.0,0.0,0.0,0.0,0.0,0.0,0.0,0.0,0.0,0.0,0.0,0.0,0.0,0.0,0.0,0.0,0.0,0.0,0.0,0.0,0.0,0.0,0.0,0.0,0.0,0.0,0.0,0.0,0.0,0.0,0.0,0.0,0.0,0.0,0.0,0.0,0.0,0.0,0.0,0.0,0.0,0.0,0.0,0.0,0.0,0.0,0.0,0.0,0.0,0.0,0.0,0.0,0.0,0.0,0.0,0.0,0.0,0.0,0.0,0.0,0.0,0.0,0.0,0.0,0.0,0.0,0.0,0.0,0.0,0.0,0.0,0.0,0.0,0.0,0.0,0.0,0.0,0.0,0.0,0.0,0.0,0.0,0.0,0.0,0.0,0.0,0.0,0.0,0.0,0.0,0.0,0.0,0.0,0.0,0.0,0.0,0.0,0.0,0.0,0.0,0.0,0.0,0.0,0.0,0.0,0.0,0.0,0.0,0.0,0.0,0.0,0.0,0.0,0.0,0.0,0.0,0.0,0.0,0.0,0.0,0.0,0.0,0.0,0.0,0.0,0.0,0.0,0.0,0.0,0.0,0.0,0.0,0.0,0.0,0.0,0.0,0.0,0.0,0.0,0.0,0.0,0.0,0.0,0.0,0.0,0.0,0.0,0.0,0.0,0.0,0.0,0.0,0.0,0.0,0.0,0.0,0.0,0.0,0.0,0.0,0.0,0.0,0.0,0.0,0.0,0.0,0.0,0.0,0.0,0.0,0.0,0.0,0.0,0.0,0.0,0.0,0.0,0.0,0.0,0.0,0.0,0.0,0.0,0.0,0.0,0.0,0.0,0.0,0.0,0.0,0.0,0.0,0.0,0.0,0.0,0.0,0.0,0.0,0.0,0.0,0.0,0.0,0.0,0.0,0.0,0.0,0.0,0.0,0.0,0.0,0.0,0.0,0.0,0.0,0.0,0.0,0.0,0.0,0.0,0.0,0.0,0.0,0.0,0.0,0.0,0.0,0.0,0.0,0.0,0.0,0.0,0.0,0.0,0.0,0.0,0.0,0.0,0.0,0.0,0.0,0.0,0.0,0.0,0.0,0.0,0.0,0.0,0.0,0.0,0.0,0.0,0.0,0.0,0.0,0.0,0.0,0.0,0.0,0.0,0.0,0.0,0.0,0.0,0.0,0.0,0.0,0.0,0.0,0.0,0.0,0.0,0.0,0.0,0.0,0.0,0.0,0.0,0.0,0.0,0.0,0.0,0.0,0.0,0.0,0.0,0.0,0.0,0.0,0.0,0.0,0.0,0.0,0.0,0.0,0.0,0.0,0.0,0.0,0.0,0.0,0.0,0.0,0.0,0.0,0.0,0.0,0.0,0.0,0.0,0.0,0.0,0.0,0.0,0.0,0.0,0.0,0.0,0.0,0.0,0.0,0.0,0.0,0.0,0.0,0.0,0.0,0.0,0.0,0.0,0.0,0.0,0.0,0.0,0.0,0.0,0.0,0.0,0.0,0.0,0.0,0.0,0.0,0.0,0.0,0.0,0.0,0.0,0.0,0.0,0.0,0.0,0.0,0.0,0.0,0.0,0.0,0.0,0.0,0.0,0.0,0.0,0.0,0.0,0.0,0.0,0.0,0.0,0.0,0.0,0.0,0.0,0.0,0.0,0.0,0.0,0.0,0.0,0.0,0.0,0.0,0.0,0.0,0.0,0.0,0.0,0.0,0.0,0.0,0.0,0.0,0.0,0.0,0.0,0.0,0.0,0.0,0.0,0.0,0.0,0.0,0.0,0.0,0.0,0.0,0.0,0.0,0.0,0.0,0.0,-0.6807,0.0,0.0,0.0,0.0,0.0,0.0,0.0,0.0,0.0,0.0,0.0,0.0,0.0,0.0,0.0,0.0,0.0,0.0,0.0,0.0,0.0,0.0,0.0,0.0,0.0,0.0,0.0,0.0,0.0,0.0,0.0,0.0,0.0,0.0,0.0,0.0,0.0,0.0,0.0,0.0,0.0,0.0,0.0,0.0,0.0,0.0,0.0,0.0,0.0,0.0,0.0,0.0,0.0,0.0,0.0,0.0,0.0,0.0,0.0,0.0,0.0,0.0,0.0,0.0,0.0,0.0,0.0,0.0,0.0,0.0,0.0,0.0,0.0,0.0,0.0,0.0,0.0,0.0,0.0,0.0,0.0,0.0,0.0,0.0,0.0,0.0,0.0,0.0,0.0,0.0,0.0,0.0,0.0,0.0,0.0,0.0,0.0,0.0,0.0,0.0,0.0,0.0,0.0,0.0,0.0,0.0,0.0,0.0,0.0,0.0,-0.6599,-0.6599,-0.6633,-0.6668,-0.6689,0.0,0.0,0.0,0.0,0.0,0.0,0.0,0.0,0.0,0.0,0.0,0.0,0.0,0.0,0.0,0.0,0.0,0.0,0.0,0.0,0.0,0.0,0.0,0.0,0.0,0.0,0.0,0.0,0.0,0.0,0.0,0.0,0.0,0.0,0.0,0.0,0.0,0.0,0.0,0.0,0.0,0.0,0.0,0.0,0.0,0.0,0.0,0.0,0.0,0.0,0.0,0.0,0.0,0.0,0.0,0.0,0.0,0.0,0.0,0.0,0.0,0.0,0.0,0.0,0.0,0.0,0.0,0.0,0.0,0.0,0.0,0.0,0.0,0.0,0.0,0.0,0.0,0.0,0.0,0.0,0.0,0.0,0.0,0.0,0.0,0.0,0.0,0.0,0.0,0.0,0.0,0.0,0.0,0.0,0.0,0.0,0.0,0.0,0.0,0.0,0.0,0.0,0.0,0.0,0.0,0.0,0.0,0.0,0.0,0.0,0.0,0.0,-0.6662,-0.6599,-0.6599,0.0,0.0,0.0,0.0,0.0,0.0,0.0,0.0,0.0,0.0,0.0,0.0,0.0,0.0,0.0,0.0,0.0,0.0,0.0,0.0,0.0,0.0,0.0,0.0,0.0,0.0,0.0,0.0,0.0,0.0,0.0,0.0,0.0,0.0,0.0,0.0,0.0,0.0,0.0,0.0,0.0,0.0,0.0,0.0,0.0,0.0,0.0,0.0,0.0,0.0,0.0,0.0,0.0,0.0,0.0,0.0,0.0,0.0,0.0,0.0,0.0,0.0,0.0,0.0,0.0,0.0,0.0,0.0,0.0,0.0,0.0,0.0,0.0,0.0,0.0,0.0,0.0,0.0,0.0,0.0,0.0,0.0,0.0,0.0,0.0,0.0,0.0,0.0,0.0,0.0,0.0,0.0,0.0,0.0,0.0,0.0,0.0,0.0,0.0,0.0,0.0,0.0,0.0,0.0,0.0,0.0,0.0,0.0,0.0,0.0,-0.6837,-0.7306,-0.6862,0.0,-0.6599,0.0,0.0,0.0,0.0,0.0,0.0,0.0,0.0,0.0,0.0,0.0,0.0,0.0,0.0,0.0,0.0,0.0,0.0,0.0,0.0,0.0,0.0,0.0,0.0,0.0,0.0,0.0,0.0,0.0,0.0,0.0,0.0,0.0,0.0,0.0,0.0,0.0,0.0,0.0,0.0,0.0,0.0,0.0,0.0,0.0,0.0,0.0,0.0,0.0,0.0,0.0,0.0,0.0,0.0,0.0,0.0,0.0,0.0,0.0,0.0,0.0,0.0,0.0,0.0,0.0,0.0,0.0,0.0,0.0,0.0,0.0,0.0,0.0,0.0,0.0,0.0,0.0,0.0,0.0,0.0,0.0,0.0,0.0,0.0,0.0,0.0,0.0,0.0,0.0,0.0,0.0,0.0,0.0,0.0,0.0,0.0,0.0,0.0,0.0,0.0,0.0,0.0,0.0,0.0,0.0,0.0,0.0,0.0,0.0,0.0,0.0,-0.6925,-0.7019,-0.6937,0.0,0.0,0.0,0.0,0.0,0.0,0.0,0.0,0.0,0.0,0.0,0.0,0.0,0.0,0.0,0.0,0.0,0.0,0.0,0.0,0.0,0.0,0.0,0.0,0.0,0.0,0.0,0.0,0.0,0.0,0.0,0.0,0.0,0.0,0.0,0.0,0.0,0.0,0.0,0.0,0.0,0.0,0.0,0.0,0.0,0.0,0.0,0.0,0.0,0.0,0.0,0.0,0.0,0.0,0.0,0.0,0.0,0.0,0.0,0.0,0.0,0.0,0.0,0.0,0.0,0.0,0.0,0.0,0.0,0.0,0.0,0.0,0.0,0.0,0.0,0.0,0.0,0.0,0.0,0.0,0.0,0.0,0.0,0.0,0.0,0.0,0.0,0.0,0.0,0.0,0.0,0.0,0.0,0.0,0.0,0.0,0.0,0.0,0.0,0.0,0.0,0.0,0.0,0.0,0.0,0.0,0.0,0.0,0.0,0.0,-0.5788,0.0,-0.6586,-0.7137,-0.7144,-0.6624,0.0,0.0,0.0,0.0,0.0,0.0,0.0,0.0,0.0,0.0,0.0,0.0,0.0,0.0,0.0,0.0,0.0,0.0,0.0,0.0,0.0,0.0,0.0,0.0,0.0,0.0,0.0,0.0,0.0,0.0,0.0,0.0,0.0,0.0,0.0,0.0,0.0,0.0,0.0,0.0,0.0,0.0,0.0,0.0,0.0,0.0,0.0,0.0,0.0,0.0,0.0,0.0,0.0,0.0,0.0,0.0,0.0,0.0,0.0,0.0,0.0,0.0,0.0,0.0,0.0,0.0,0.0,0.0,0.0,0.0,0.0,0.0,0.0,0.0,0.0,0.0,0.0,0.0,0.0,0.0,0.0,0.0,0.0,0.0,0.0,0.0,0.0,0.0,0.0,0.0,0.0,0.0,0.0,0.0,0.0,0.0,0.0,0.0,0.0,0.0,0.0,0.0,0.0,0.0,0.0,0.0,0.0,0.0,0.0,-0.58,-0.6064,-0.6586,-0.7137,-0.7162,0.0,0.0,0.0,0.0,0.0,0.0,0.0,0.0,0.0,0.0,0.0,0.0,0.0,0.0,0.0,0.0,0.0,0.0,0.0,0.0,0.0,0.0,0.0,0.0,0.0,0.0,0.0,0.0,0.0,0.0,0.0,0.0,0.0,0.0,0.0,0.0,0.0,0.0,0.0,0.0,0.0,0.0,0.0,0.0,0.0,0.0,0.0,0.0,0.0,0.0,0.0,0.0,0.0,0.0,0.0,0.0,0.0,0.0,0.0,0.0,0.0,0.0,0.0,0.0,0.0,0.0,0.0,0.0,0.0,0.0,0.0,0.0,0.0,0.0,0.0,0.0,0.0,0.0,0.0,0.0,0.0,0.0,0.0,0.0,0.0,0.0,0.0,0.0,0.0,0.0,0.0,0.0,0.0,0.0,0.0,0.0,0.0,0.0,0.0,0.0,0.0,0.0,0.0,0.0,0.0,0.0,0.0,0.0,0.0,-0.5813,-0.6139,-0.6399,-0.6611,-0.7119,-0.7144,0.0,0.0,0.0,0.0,0.0,0.0,0.0,0.0,0.0,0.0,0.0,0.0,0.0,0.0,0.0,0.0,0.0,0.0,0.0,0.0,0.0,0.0,0.0,0.0,0.0,0.0,0.0,0.0,0.0,0.0,0.0,0.0,0.0,0.0,0.0,0.0,0.0,0.0,0.0,0.0,0.0,0.0,0.0,0.0,0.0,0.0,0.0,0.0,0.0,0.0,0.0,0.0,0.0,0.0,0.0,0.0,0.0,0.0,0.0,0.0,0.0,0.0,0.0,0.0,0.0,0.0,0.0,0.0,0.0,0.0,0.0,0.0,0.0,0.0,0.0,0.0,0.0,0.0,0.0,0.0,0.0,0.0,0.0,0.0,0.0,0.0,0.0,0.0,0.0,0.0,0.0,0.0,0.0,0.0,0.0,0.0,0.0,0.0,0.0,0.0,0.0,0.0,0.0,0.0,0.0,0.0,0.0,0.0,0.0,-0.5828,0.0,-0.6424,0.0,-0.695,-0.6975,0.0,0.0,0.0,0.0,0.0,0.0,0.0,0.0,0.0,0.0,0.0,0.0,0.0,0.0,0.0,0.0,0.0,0.0,0.0,0.0,0.0,0.0,0.0,0.0,0.0,0.0,0.0,0.0,0.0,0.0,0.0,0.0,0.0,0.0,0.0,0.0,0.0,0.0,0.0,0.0,0.0,0.0,0.0,0.0,0.0,0.0,0.0,0.0,0.0,0.0,0.0,0.0,0.0,0.0,0.0,0.0,0.0,0.0,0.0,0.0,0.0,0.0,0.0,0.0,0.0,0.0,0.0,0.0,0.0,0.0,0.0,0.0,0.0,0.0,0.0,0.0,0.0,0.0,0.0,0.0,0.0,0.0,0.0,0.0,0.0,0.0,0.0,0.0,0.0,0.0,0.0,0.0,0.0,0.0,0.0,0.0,0.0,0.0,0.0,0.0,0.0,0.0,0.0,0.0,0.0,0.0,0.0,0.0,-0.584,-0.5828,-0.5866,-0.6139,-0.6574,-0.6624,-0.6611,0.0,0.0,0.0,0.0,0.0,0.0,0.0,0.0,0.0,0.0,0.0,0.0,0.0,0.0,0.0,0.0,0.0,0.0,0.0,0.0,0.0,0.0,0.0,0.0,0.0,0.0,0.0,0.0,0.0,0.0,0.0,0.0,0.0,0.0,0.0,0.0,0.0,0.0,0.0,0.0,0.0,0.0,0.0,0.0,0.0,0.0,0.0,0.0,0.0,0.0,0.0,0.0,0.0,0.0,0.0,0.0,0.0,0.0,0.0,0.0,0.0,0.0,0.0,0.0,0.0,0.0,0.0,0.0,0.0,0.0,0.0,0.0,0.0,0.0,0.0,0.0,0.0,0.0,0.0,0.0,0.0,0.0,0.0,0.0,0.0,0.0,0.0,0.0,0.0,0.0,0.0,0.0,0.0,0.0,0.0,0.0,0.0,0.0,0.0,0.0,0.0,0.0,0.0,0.0,0.0,0.0,0.0,0.0,0.0,-0.6374,-0.6712,-0.6812,-0.6611,-0.6599,-0.6599,0.0,0.0,0.0,0.0,0.0,0.0,0.0,0.0,0.0,0.0,0.0,0.0,0.0,0.0,0.0,0.0,0.0,0.0,0.0,0.0,0.0,0.0,0.0,0.0,0.0,0.0,0.0,0.0,0.0,0.0,0.0,0.0,0.0,0.0,0.0,0.0,0.0,0.0,0.0,0.0,0.0,0.0,0.0,0.0,0.0,0.0,0.0,0.0,0.0,0.0,0.0,0.0,0.0,0.0,0.0,0.0,0.0,0.0,0.0,0.0,0.0,0.0,0.0,0.0,0.0,0.0,0.0,0.0,0.0,0.0,0.0,0.0,0.0,0.0,0.0,0.0,0.0,0.0,0.0,0.0,0.0,0.0,0.0,0.0,0.0,0.0,0.0,0.0,0.0,0.0,0.0,0.0,0.0,0.0,0.0,0.0,0.0,0.0,0.0,0.0,0.0,0.0,0.0,0.0,0.0,0.0,0.0,0.0,0.0,-0.695,-0.7219,-0.7231,-0.6912,-0.6712,-0.6599,-0.6599,0.0,0.0,0.0,0.0,0.0,0.0,0.0,0.0,0.0,0.0,0.0,0.0,0.0,0.0,0.0,0.0,0.0,0.0,0.0,0.0,0.0,0.0,0.0,0.0,0.0,0.0,0.0,0.0,0.0,0.0,0.0,0.0,0.0,0.0,0.0,0.0,0.0,0.0,0.0,0.0,0.0,0.0,0.0,0.0,0.0,0.0,0.0,0.0,0.0,0.0,0.0,0.0,0.0,0.0,0.0,0.0,0.0,0.0,0.0,0.0,0.0,0.0,0.0,0.0,0.0,0.0,0.0,0.0,0.0,0.0,0.0,0.0,0.0,0.0,0.0,0.0,0.0,0.0,0.0,0.0,0.0,0.0,0.0,0.0,0.0,0.0,0.0,0.0,0.0,0.0,0.0,0.0,0.0,0.0,0.0,0.0,0.0,0.0,0.0,0.0,0.0,0.0,0.0,0.0,0.0,0.0,0.0,0.0,-0.7506,-0.7493,-0.7468,-0.7381,-0.6906,-0.6624,0.0,0.0,0.0,0.0,0.0,0.0,0.0,0.0,0.0,0.0,0.0,0.0,0.0,0.0,0.0,0.0,0.0,0.0,0.0,0.0,0.0,0.0,0.0,0.0,0.0,0.0,0.0,0.0,0.0,0.0,0.0,0.0,0.0,0.0,0.0,0.0,0.0,0.0,0.0,0.0,0.0,0.0,0.0,0.0,0.0,0.0,0.0,0.0,0.0,0.0,0.0,0.0,0.0,0.0,0.0,0.0,0.0,0.0,0.0,0.0,0.0,0.0,0.0,0.0,0.0,0.0,0.0,0.0,0.0,0.0,0.0,0.0,0.0,0.0,0.0,0.0,0.0,0.0,0.0,0.0,0.0,0.0,0.0,0.0,0.0,0.0,0.0,0.0,0.0,0.0,0.0,0.0,0.0,0.0,0.0,0.0,0.0,0.0,0.0,0.0,0.0,0.0,0.0,0.0,0.0,0.0,0.0,0.0,0.0,-0.8637,-0.865,-0.8261,-0.7431,-0.7256,-0.6994,0.0,0.0,0.0,0.0,0.0,0.0,0.0,0.0,0.0,0.0,0.0,0.0,0.0,0.0,0.0,0.0,0.0,0.0,0.0,0.0,0.0,0.0,0.0,0.0,0.0,0.0,0.0,0.0,0.0,0.0,0.0,0.0,0.0,0.0,0.0,0.0,0.0,0.0,0.0,0.0,0.0,0.0,0.0,0.0,0.0,0.0,0.0,0.0,0.0,0.0,0.0,0.0,0.0,0.0,0.0,0.0,0.0,0.0,0.0,0.0,0.0,0.0,0.0,0.0,0.0,0.0,0.0,0.0,0.0,0.0,0.0,0.0,0.0,0.0,0.0,0.0,0.0,0.0,0.0,0.0,0.0,0.0,0.0,0.0,0.0,0.0,0.0,0.0,0.0,0.0,0.0,0.0,0.0,0.0,0.0,0.0,0.0,0.0,0.0,0.0,0.0,0.0,0.0,0.0,0.0,0.0,0.0,0.0,-0.8675,-0.9428,-0.9667,-0.9353,-0.8477,-0.7789,-0.7256,0.0,0.0,0.0,0.0,0.0,0.0,0.0,0.0,0.0,0.0,0.0,0.0,0.0,0.0,0.0,0.0,0.0,0.0,0.0,0.0,0.0,0.0,0.0,0.0,0.0,0.0,0.0,0.0,0.0,0.0,0.0,0.0,0.0,0.0,0.0,0.0,0.0,0.0,0.0,0.0,0.0,0.0,0.0,0.0,0.0,0.0,0.0,0.0,0.0,0.0,0.0,0.0,0.0,0.0,0.0,0.0,0.0,0.0,0.0,0.0,0.0,0.0,0.0,0.0,0.0,0.0,0.0,0.0,0.0,0.0,0.0,0.0,0.0,0.0,0.0,0.0,0.0,0.0,0.0,0.0,0.0,0.0,0.0,0.0,0.0,0.0,0.0,0.0,0.0,0.0,0.0,0.0,0.0,0.0,0.0,0.0,0.0,0.0,0.0,0.0,0.0,0.0,0.0,0.0,0.0,0.0,0.0,0.0,-0.8964,-0.9968,-1.0506,-1.0546,-0.9981,-0.8477,-0.7568,0.0,0.0,0.0,0.0,0.0,0.0,0.0,0.0,0.0,0.0,0.0,0.0,0.0,0.0,0.0,0.0,0.0,0.0,0.0,0.0,0.0,0.0,0.0,0.0,0.0,0.0,0.0,0.0,0.0,0.0,0.0,0.0,0.0,0.0,0.0,0.0,0.0,0.0,0.0,0.0,0.0,0.0,0.0,0.0,0.0,0.0,0.0,0.0,0.0,0.0,0.0,0.0,0.0,0.0,0.0,0.0,0.0,0.0,0.0,0.0,0.0,0.0,0.0,0.0,0.0,0.0,0.0,0.0,0.0,0.0,0.0,0.0,0.0,0.0,0.0,0.0,0.0,0.0,0.0,0.0,0.0,0.0,0.0,0.0,0.0,0.0,0.0,0.0,0.0,0.0,0.0,0.0,0.0,0.0,0.0,0.0,0.0,0.0,0.0,0.0,0.0,0.0,0.0,0.0,0.0,0.0,0.0,0.0,-0.988,-1.0506,-1.1098,-1.1136,-1.0558,-0.9767,-0.874,0.0,0.0,0.0,0.0,0.0,0.0,0.0,0.0,0.0,0.0,0.0,0.0,0.0,0.0,0.0,0.0,0.0,0.0,0.0,0.0,0.0,0.0,0.0,0.0,0.0,0.0,0.0,0.0,0.0,0.0,0.0,0.0,0.0,0.0,0.0,0.0,0.0,0.0,0.0,0.0,0.0,0.0,0.0,0.0,0.0,0.0,0.0,0.0,-0.0854,0.0,0.0,0.0,0.0,0.0,0.0,0.0,0.0,0.0,0.0,0.0,0.0,0.0,0.0,0.0,0.0,0.0,0.0,0.0,0.0,0.0,0.0,0.0,0.0,0.0,0.0,0.0,0.0,0.0,0.0,0.0,0.0,0.0,0.0,0.0,0.0,0.0,0.0,0.0,0.0,0.0,0.0,0.0,0.0,0.0,0.0,0.0,0.0,0.0,0.0,0.0,0.0,0.0,0.0,0.0,0.0,0.0,0.0,0.0,-1.0433,-1.1445,-1.1814,-1.1713,-1.1148,-1.0847,-0.9792,0.0,0.0,0.0,0.0,0.0,0.0,0.0,0.0,0.0,0.0,0.0,0.0,0.0,0.0,0.0,0.0,0.0,0.0,0.0,0.0,0.0,0.0,0.0,0.0,0.0,0.0,0.0,0.0,0.0,0.0,0.0,0.0,0.0,0.0,0.0,0.0,0.0,0.0,0.0,0.0,0.0,0.0,0.0,0.0,0.0,0.0,0.0,0.0,0.0,0.0,0.0,0.0,0.0,0.0,0.0,0.0,0.0,0.0,0.0,0.0,0.0,0.0,0.0,0.0,0.0,0.0,0.0,0.0,0.0,0.0,0.0,0.0,0.0,0.0,0.0,0.0,0.0,0.0,0.0,0.0,0.0,0.0,0.0,0.0,0.0,0.0,0.0,0.0,0.0,0.0,0.0,0.0,0.0,0.0,0.0,0.0,0.0,0.0,0.0,0.0,0.0,0.0,0.0,0.0,0.0,0.0,0.0,-1.0728,-1.0973,-1.2341,-1.258,-1.2366,-1.1751,-1.1638,-1.0596,-0.8512,0.0,0.0,0.0,0.0,0.0,0.0,0.0,0.0,0.0,0.0,0.0,0.0,0.0,0.0,0.0,0.0,0.0,0.0,0.0,0.0,0.0,0.0,0.0,0.0,0.0,0.0,0.0,0.0,0.0,0.0,0.0,0.0,0.0,0.0,0.0,0.0,0.0,0.0,-0.134,-0.1528,0.0,0.0,0.0,0.0,0.0,0.0,0.0,0.0,-0.1245,0.0,0.0,0.0,0.0,0.0,0.0,0.0,0.0,0.0,0.0,0.0,0.0,0.0,0.0,0.0,0.0,0.0,0.0,0.0,0.0,0.0,0.0,0.0,0.0,0.0,0.0,0.0,0.0,0.0,0.0,0.0,0.0,0.0,0.0,0.0,0.0,0.0,0.0,0.0,0.0,0.0,0.0,0.0,0.0,0.0,0.0,0.0,0.0,0.0,0.0,0.0,0.0,0.0,0.0,0.0,0.0,-1.157,-1.1856,-1.2128,-1.2416,-1.3342,-1.333,-1.2316,-1.1826,-1.0787,-0.9075,0.0,0.0,0.0,0.0,0.0,0.0,0.0,0.0,0.0,0.0,0.0,0.0,0.0,0.0,0.0,0.0,0.0,0.0,0.0,0.0,0.0,0.0,0.0,0.0,0.0,0.0,0.0,0.0,0.0,0.0,0.0,0.0,0.0,0.0,0.0,0.0,0.0,0.0,0.0,-0.1676,-0.1713,0.0,0.0,0.0,0.0,0.0,0.0,0.0,0.0,-0.0598,0.0,0.0,0.0,0.0,0.0,0.0,0.0,0.0,0.0,0.0,0.0,0.0,0.0,0.0,0.0,0.0,0.0,0.0,0.0,0.0,0.0,0.0,0.0,0.0,0.0,0.0,0.0,0.0,0.0,0.0,0.0,0.0,0.0,0.0,0.0,0.0,0.0,0.0,0.0,0.0,0.0,0.0,0.0,0.0,0.0,0.0,0.0,0.0,0.0,0.0,0.0,0.0,0.0,0.0,0.0,-1.1485,-1.2117,-1.268,-1.3292,-1.4097,-1.3948,-1.2835,-1.204,-1.0825,0.0,0.0,0.0,0.0,0.0,0.0,0.0,0.0,0.0,0.0,0.0,0.0,0.0,0.0,0.0,0.0,0.0,0.0,0.0,0.0,0.0,0.0,0.0,0.0,0.0,0.0,0.0,0.0,0.0,0.0,0.0,0.0,0.0,0.0,0.0,0.0,0.0,0.0,0.0,0.0,-0.1758,-0.1819,-0.1824,0.0,0.0,0.0,0.0,0.0,0.0,-0.065,-0.038,0.0,0.0,0.0,0.0,0.0,0.0,0.0,0.0,0.0,0.0,0.0,0.0,0.0,0.0,0.0,0.0,0.0,0.0,0.0,0.0,0.0,0.0,0.0,0.0,0.0,0.0,0.0,0.0,0.0,0.0,0.0,0.0,0.0,0.0,0.0,0.0,0.0,0.0,0.0,0.0,0.0,0.0,0.0,0.0,0.0,0.0,0.0,0.0,0.0,0.0,0.0,0.0,0.0,0.0,0.0,-1.1516,-1.2239,-1.3006,-1.3896,-1.4563,-1.4337,-1.3073,-1.2115,-1.0797,0.0,0.0,0.0,0.0,0.0,0.0,0.0,0.0,0.0,0.0,0.0,0.0,0.0,0.0,0.0,0.0,0.0,0.0,0.0,0.0,0.0,0.0,0.0,0.0,0.0,0.0,0.0,0.0,0.0,0.0,0.0,0.0,0.0,0.0,0.0,0.0,0.0,0.0,0.0,0.0,0.0,-0.1939,-0.2089,-0.194,0.0,0.0,0.0,0.0,-0.1869,-0.1072,0.0,0.0,0.0,0.0,0.0,0.0,0.0,0.0,0.0,0.0,0.0,0.0,0.0,0.0,0.0,0.0,0.0,0.0,0.0,0.0,0.0,0.0,0.0,0.0,0.0,0.0,0.0,0.0,0.0,0.0,0.0,0.0,0.0,0.0,0.0,0.0,0.0,0.0,0.0,0.0,0.0,0.0,0.0,0.0,0.0,0.0,0.0,0.0,0.0,0.0,0.0,0.0,0.0,0.0,0.0,0.0,-1.153,-1.2607,-1.3173,-1.3323,-1.4337,-1.4124,-1.2554,-1.1902,-1.0825,0.0,0.0,0.0,0.0,0.0,0.0,0.0,0.0,0.0,0.0,0.0,0.0,0.0,0.0,0.0,0.0,0.0,0.0,0.0,0.0,0.0,0.0,0.0,0.0,0.0,0.0,0.0,0.0,0.0,0.0,0.0,0.0,0.0,0.0,0.0,0.0,0.0,0.0,0.0,0.0,0.0,-0.2143,-0.2093,-0.2373,-0.2309,0.0,0.0,0.0,-0.2393,-0.1585,0.0,0.0,0.0,0.0,0.0,0.0,0.0,0.0,0.0,0.0,0.0,0.0,0.0,0.0,0.0,0.0,0.0,0.0,0.0,0.0,0.0,0.0,0.0,0.0,0.0,0.0,0.0,0.0,0.0,0.0,0.0,0.0,0.0,0.0,0.0,0.0,0.0,0.0,0.0,0.0,0.0,0.0,0.0,0.0,0.0,0.0,0.0,0.0,0.0,0.0,0.0,0.0,0.0,0.0,0.0,-0.9403,-1.1542,-1.2381,-1.3069,-1.372,-1.4198,-1.3959,-1.2893,-1.1695,-1.047,0.0,0.0,0.0,0.0,0.0,0.0,0.0,0.0,0.0,0.0,0.0,0.0,0.0,0.0,0.0,0.0,0.0,0.0,0.0,0.0,0.0,0.0,0.0,0.0,0.0,0.0,0.0,0.0,0.0,0.0,0.0,0.0,0.0,0.0,0.0,0.0,0.0,0.0,0.0,0.0,0.0,0.0,-0.2432,-0.2602,0.0,0.0,0.0,-0.3098,-0.309,0.0,0.0,0.0,0.0,0.0,0.0,0.0,0.0,0.0,0.0,0.0,0.0,0.0,0.0,0.0,0.0,0.0,0.0,0.0,0.0,0.0,0.0,0.0,0.0,0.0,0.0,0.0,0.0,0.0,0.0,0.0,0.0,0.0,0.0,0.0,0.0,0.0,0.0,0.0,0.0,0.0,0.0,0.0,0.0,0.0,0.0,0.0,0.0,0.0,0.0,0.0,0.0,0.0,0.0,0.0,0.0,0.0,-1.1556,-1.2135,-1.2881,-1.3846,-1.3883,-1.3556,-1.2831,-1.1492,0.0,0.0,0.0,0.0,0.0,0.0,0.0,0.0,0.0,0.0,0.0,0.0,0.0,0.0,0.0,0.0,0.0,0.0,0.0,0.0,0.0,0.0,0.0,0.0,0.0,0.0,0.0,-0.1823,0.0,0.0,0.0,0.0,0.0,0.0,0.0,0.0,0.0,0.0,0.0,0.0,0.0,0.0,-0.2472,-0.273,-0.2735,-0.27,0.0,0.0,-0.3292,-0.3544,-0.302,-0.243,0.0,0.0,0.0,0.0,0.0,0.0,0.0,0.0,0.0,0.0,0.0,0.0,0.0,0.0,0.0,0.0,0.0,0.0,0.0,0.0,0.0,0.0,0.0,0.0,0.0,0.0,0.0,0.0,0.0,0.0,0.0,0.0,0.0,0.0,0.0,0.0,0.0,0.0,0.0,0.0,0.0,0.0,0.0,0.0,0.0,0.0,0.0,0.0,0.0,0.0,0.0,0.0,0.0,0.0,0.0,-1.1542,-1.2135,-1.2659,-1.3223,-1.3261,-1.2814,-1.1847,-1.1204,-1.011,0.0,0.0,0.0,0.0,0.0,0.0,0.0,0.0,0.0,0.0,0.0,0.0,0.0,0.0,0.0,0.0,0.0,0.0,0.0,0.0,0.0,0.0,0.0,0.0,0.0,0.0,0.0,0.0,0.0,0.0,0.0,0.0,0.0,0.0,0.0,0.0,0.0,0.0,0.0,0.0,0.0,-0.2867,-0.2965,-0.2803,-0.2692,0.0,0.0,-0.3563,-0.3602,-0.3082,-0.2633,-0.2399,0.0,0.0,0.0,0.0,0.0,0.0,0.0,0.0,0.0,0.0,0.0,0.0,0.0,0.0,0.0,0.0,0.0,0.0,0.0,0.0,0.0,0.0,0.0,0.0,0.0,0.0,0.0,0.0,0.0,0.0,0.0,0.0,0.0,0.0,0.0,0.0,0.0,0.0,0.0,0.0,0.0,0.0,0.0,0.0,0.0,0.0,0.0,0.0,0.0,0.0,0.0,0.0,0.0,-0.9256,-1.1199,-1.1677,-1.2341,-1.3148,-1.2872,-1.2398,-1.178,-1.1309,-1.0287,0.0,0.0,0.0,0.0,0.0,0.0,0.0,0.0,0.0,0.0,0.0,0.0,0.0,0.0,0.0,0.0,0.0,0.0,0.0,0.0,0.0,0.0,0.0,0.0,0.0,0.0,0.0,0.0,-0.2009,-0.2064,-0.2729,0.0,0.0,0.0,0.0,0.0,0.0,0.0,0.0,0.0,0.0,-0.3234,-0.3409,-0.3159,0.0,0.0,-0.3314,-0.358,-0.3619,-0.3249,-0.2911,-0.2854,-0.2475,0.0,0.0,0.0,0.0,0.0,0.0,0.0,0.0,0.0,0.0,0.0,0.0,0.0,0.0,0.0,0.0,0.0,0.0,0.0,0.0,0.0,0.0,0.0,0.0,0.0,0.0,0.0,0.0,0.0,0.0,0.0,0.0,0.0,0.0,0.0,0.0,0.0,0.0,0.0,0.0,0.0,0.0,0.0,0.0,0.0,0.0,0.0,0.0,0.0,0.0,0.0,0.0,-0.9266,-1.1119,-1.1518,-1.2241,-1.331,-1.2779,-1.2297,-1.1886,-1.1461,-1.0475,0.0,0.0,0.0,0.0,0.0,0.0,0.0,0.0,0.0,0.0,0.0,0.0,0.0,0.0,0.0,0.0,0.0,0.0,0.0,0.0,0.0,0.0,0.0,0.0,0.0,0.0,0.0,0.0,-0.2257,-0.2431,-0.3408,0.0,0.0,0.0,0.0,0.0,0.0,0.0,0.0,0.0,0.0,-0.3814,-0.3936,-0.3541,-0.3251,-0.3269,-0.3581,-0.3771,-0.37,-0.3444,-0.3215,-0.3221,0.0,0.0,0.0,0.0,0.0,0.0,0.0,0.0,0.0,0.0,0.0,0.0,0.0,0.0,0.0,0.0,0.0,0.0,0.0,0.0,0.0,0.0,0.0,0.0,0.0,0.0,0.0,0.0,0.0,0.0,0.0,0.0,0.0,0.0,0.0,0.0,0.0,0.0,0.0,0.0,0.0,0.0,0.0,0.0,0.0,0.0,0.0,0.0,0.0,0.0,0.0,0.0,0.0,0.0,-1.1452,-1.1841,-1.2537,-1.3563,-1.3007,-1.2484,-1.1991,-1.1613,-1.0626,-0.8968,0.0,0.0,0.0,0.0,0.0,0.0,0.0,0.0,0.0,0.0,0.0,0.0,0.0,0.0,0.0,0.0,0.0,0.0,0.0,0.0,0.0,0.0,0.0,0.0,0.0,0.0,-0.264,-0.2607,-0.282,0.0,0.0,0.0,0.0,0.0,0.0,0.0,0.0,0.0,0.0,-0.4475,-0.4712,-0.4523,-0.3968,-0.3641,-0.3602,-0.3991,-0.4233,-0.395,-0.3693,-0.3499,0.0,0.0,0.0,0.0,0.0,0.0,0.0,0.0,0.0,0.0,0.0,0.0,0.0,0.0,0.0,0.0,0.0,0.0,0.0,0.0,0.0,0.0,0.0,0.0,0.0,0.0,0.0,-0.9949,-1.0709,0.0,0.0,0.0,0.0,0.0,0.0,0.0,0.0,0.0,0.0,0.0,-1.2851,-1.2693,0.0,0.0,0.0,0.0,0.0,0.0,0.0,0.0,0.0,0.0,0.0,0.0,-0.9613,-1.1489,-1.217,-1.2977,-1.4006,-1.3729,-1.3098,-1.2292,-1.2167,-1.1442,-1.0009,0.0,0.0,0.0,0.0,0.0,0.0,0.0,0.0,0.0,0.0,0.0,0.0,0.0,0.0,0.0,0.0,0.0,0.0,0.0,0.0,0.0,0.0,0.0,0.0,0.0,-0.3196,0.0,0.0,0.0,0.0,0.0,0.0,0.0,0.0,0.0,0.0,0.0,-0.4535,-0.4728,-0.5109,-0.5403,-0.5387,-0.5178,-0.4906,0.0,0.0,0.0,0.0,0.0,0.0,0.0,0.0,0.0,0.0,0.0,0.0,0.0,0.0,-0.2867,-0.2382,-0.1928,-0.1498,-0.1083,0.0,0.0,0.0,0.0,0.0,0.0,0.0,0.0,0.0,0.0,0.0,0.0,0.0,0.0,0.0,0.0,-1.1748,0.0,0.0,0.0,0.0,0.0,0.0,0.0,0.0,-1.3568,-1.4227,-1.5447,-1.6308,-1.6623,0.0,-1.6415,-1.543,0.0,0.0,0.0,0.0,0.0,0.0,0.0,0.0,-1.0022,-1.1713,-1.2483,-1.34,-1.4424,-1.4195,-1.3704,-1.292,-1.2361,-1.164,-1.0599,-0.9012,-0.8173,0.0,0.0,0.0,0.0,0.0,0.0,0.0,0.0,0.0,0.0,0.0,0.0,0.0,0.0,0.0,0.0,0.0,0.0,0.0,0.0,0.0,0.0,0.0,-0.3549,0.0,0.0,0.0,0.0,0.0,0.0,0.0,0.0,0.0,-0.407,-0.4716,-0.5305,-0.5597,-0.6029,-0.6298,-0.6292,0.0,0.0,0.0,0.0,0.0,0.0,0.0,-0.4559,-0.4479,-0.4106,-0.3687,-0.3375,-0.3274,-0.3419,-0.3844,0.0,0.0,-0.2965,-0.2539,-0.2139,-0.1882,-0.1275,-0.0575,-0.0112,0.0077,0.0201,0.0,0.0,0.0,0.0,0.0,0.0,0.0,0.0,-1.3062,-1.4297,0.0,-1.389,0.0,0.0,0.0,0.0,0.0,0.0,0.0,0.0,-1.5815,-1.6537,-1.7882,-2.0429,-2.0695,-1.8871,-1.8792,-1.8659,-1.8293,-1.4827,0.0,0.0,0.0,0.0,0.0,0.0,-1.0777,-1.2195,-1.2927,-1.3771,-1.4797,-1.4547,-1.4211,-1.3794,-1.2263,-1.1249,-1.079,-1.0142,-0.9506,-0.8934,-0.749,0.0,0.0,0.0,0.0,0.0,0.0,0.0,0.0,0.0,0.0,0.0,0.0,0.0,0.0,0.0,0.0,0.0,0.0,0.0,0.0,-0.3851,0.0,0.0,0.0,0.0,0.0,0.0,0.0,0.0,0.0,0.0,-0.519,-0.5634,-0.6137,-0.6674,0.0,0.0,0.0,0.0,-0.6946,-0.6915,-0.7262,-0.7565,-0.759,-0.6571,-0.5738,-0.5705,0.0,0.0,-0.3825,-0.3838,-0.3841,-0.3619,-0.3742,-0.388,-0.3976,-0.3441,-0.2951,-0.2799,-0.1706,-0.0694,-0.0,-0.0,-0.0,-2.0047,0.0,0.0,0.0,0.0,-1.6338,-1.6879,-1.7176,-1.6981,-1.8133,-2.0051,-1.7179,0.0,0.0,0.0,0.0,0.0,0.0,-1.6338,-1.713,-1.7155,-1.7851,-1.9201,-2.1802,-2.2279,-2.0842,-2.0842,-2.0565,-1.9961,-1.8738,-1.6463,-1.3203,0.0,0.0,0.0,0.0,-1.2448,-1.3755,-1.4153,-1.4668,-1.5285,-1.5043,-1.4608,-1.4027,-1.2824,-1.2197,-1.2179,-1.1542,-1.0714,-0.9723,-0.8491,0.0,0.0,0.0,0.0,0.0,0.0,0.0,0.0,0.0,0.0,0.0,0.0,0.0,0.0,0.0,0.0,0.0,0.0,0.0,-0.4215,-0.4443,-0.4477,0.0,0.0,0.0,0.0,0.0,0.0,0.0,0.0,0.0,-0.651,-0.6854,-0.7141,0.0,0.0,-0.8397,-0.8345,-0.8474,-0.8318,-0.7707,0.0,0.0,0.0,-0.8152,-0.7281,-0.6958,-0.6084,-0.5327,-0.4992,-0.4657,-0.4435,-0.4389,-0.4354,-0.4334,-0.4314,-0.3757,-0.3115,-0.261,-0.1666,-0.074,-0.0,-0.0,-0.0,-2.4763,-2.1702,-2.0803,-2.0135,-1.9719,-2.036,-2.0855,-2.1133,-2.0659,-2.1389,-2.2773,-2.0261,-1.9016,-1.8762,-1.8035,0.0,0.0,0.0,-1.8268,-1.8877,-1.8086,-1.884,-2.097,-2.3268,-2.3687,-2.2458,-2.2443,-2.2128,-2.1431,-2.106,-1.9494,-1.6767,0.0,0.0,-1.3087,-1.2943,-1.3451,-1.4517,-1.4728,-1.5056,-1.5521,-1.5359,-1.4921,-1.4226,-1.3399,-1.2926,-1.2777,-1.2156,-1.1379,-1.0479,-0.9532,-0.8746,0.0,0.0,0.0,0.0,0.0,0.0,0.0,0.0,0.0,0.0,0.0,-0.2676,0.0,0.0,0.0,0.0,-0.3858,-0.4355,-0.4885,-0.5304,0.0,0.0,0.0,0.0,0.0,0.0,0.0,-0.684,-0.6518,-0.6563,-0.7565,-0.7976,-0.8203,-0.827,-0.8784,-0.9158,-0.9158,0.0,-0.9227,-0.8686,-0.9049,-0.9554,-0.9979,-0.9292,-0.835,-0.7572,-0.6742,-0.6002,-0.5359,-0.4992,-0.4748,-0.4626,-0.458,-0.4463,-0.4463,-0.4036,-0.3489,-0.2937,-0.2112,-0.1221,-0.0423,-0.0,-0.0,-2.8501,-2.764,-2.5446,-2.4398,-2.4198,-2.4395,-2.4589,-2.4695,-2.4036,-2.412,-2.4628,-2.3139,-2.2354,-2.2139,-2.0591,0.0,0.0,-2.0131,-2.0265,-2.0714,-1.8863,-1.9731,-2.2787,-2.4714,-2.4927,-2.367,-2.3684,-2.3355,-2.2768,-2.2143,-2.1515,-2.0812,-1.791,-1.5879,-1.4774,-1.4143,-1.418,-1.4924,-1.5024,-1.5265,-1.5758,-1.5654,-1.5242,-1.4613,-1.4015,-1.3421,-1.2882,-1.2178,-1.1584,-1.1118,-1.0512,-0.9904,-0.9334,0.0,0.0,0.0,0.0,0.0,0.0,0.0,0.0,0.0,0.0,0.0,0.0,0.0,0.0,0.0,-0.4718,0.0,-0.5685,-0.6344,0.0,0.0,0.0,-0.5161,-0.5185,-0.6015,-0.695,-0.777,0.0,0.0,0.0,0.0,-0.9143,-0.8971,-0.9412,-0.9753,-0.9753,-0.9733,-0.9726,-0.974,-0.9726,-0.9935,-1.0455,-0.9939,-0.9127,-0.7899,-0.719,-0.6427,-0.541,-0.502,-0.4809,-0.4555,-0.4529,-0.447,-0.4532,-0.4304,-0.4013,-0.3729,-0.2873,-0.1858,-0.101,-0.0466,-0.0,-3.0526,-3.0268,-2.9707,-2.8065,-2.5931,-2.6553,-2.6927,-2.6978,-2.6843,-2.6877,-2.6962,-2.5949,-2.5364,-2.4923,-2.3665,-2.3011,-2.2852,-2.2432,-2.1976,-2.1534,-2.1003,-2.1698,-2.343,-2.4882,-2.5167,-2.4418,-2.4388,-2.4044,-2.34,-2.3236,-2.2832,-2.2143,-2.0459,-1.8951,-1.7691,-1.7022,-1.68,-1.698,-1.6995,-1.707,-1.7173,-1.668,-1.6337,-1.6144,-1.4624,-1.371,-1.3555,-1.2424,-1.1622,-1.125,-1.09,-1.0339,-0.9553,-0.8344,0.0,0.0,0.0,0.0,0.0,0.0,0.0,0.0,0.0,-0.3769,-0.3802,0.0,-0.4418,0.0,-0.5584,-0.6256,-0.6627,-0.7016,0.0,0.0,-0.7525,-0.7492,-0.7501,-0.8577,-0.953,-0.9973,-0.8747,-0.8194,-0.9198,-0.9487,-0.9719,-1.0147,-1.0322,-1.0416,-1.0409,-1.0147,-1.01,-1.0274,-1.0147,-1.0167,-1.0492,-1.0276,-0.9724,-0.8898,-0.8032,-0.6965,-0.555,-0.5091,-0.4853,-0.4674,-0.4594,-0.457,-0.4616,-0.4514,-0.4412,-0.4244,-0.3447,-0.2486,-0.1825,-0.1112,-0.0646,-3.119,-3.119,-3.119,-3.0352,-2.9063,-2.9185,-2.9293,-2.9296,-2.8938,-2.8839,-2.8805,-2.8009,-2.7511,-2.7135,-2.6335,-2.576,-2.5386,-2.4828,-2.4269,-2.3739,-2.2937,-2.3229,-2.4537,-2.5875,-2.5813,-2.4597,-2.4582,-2.4089,-2.3221,-2.3191,-2.2877,-2.2274,-2.15,-2.0632,-1.96,-1.8358,-1.7682,-1.7682,-1.7682,-1.7832,-1.8085,-1.7204,-1.6712,-1.6667,-1.4815,-1.381,-1.381,-1.2499,-1.1667,-1.137,-1.1121,-1.068,-0.9983,-0.897,-0.8218,0.0,0.0,0.0,0.0,0.0,0.0,0.0,0.0,0.0,0.0,0.0,-0.5563,0.0,0.0,0.0,-0.7861,-0.838,-0.8776,-0.8936,-0.9096,-0.9196,-0.9205,-0.9839,-1.0439,-1.0746,-0.9684,-0.9166,-0.9844,-0.9896,-1.0094,-1.0675,-1.0862,-1.0902,-1.0768,-1.0608,-1.0458,-1.0262,-1.0276,-1.0468,-1.0875,-1.071,-1.0301,-0.9542,-0.8558,-0.7412,-0.6034,-0.5406,-0.503,-0.4823,-0.4721,-0.4691,-0.4769,-0.4731,-0.4667,-0.4586,-0.4138,-0.3586,-0.3049,-0.2422,-0.1912,-3.1461,-3.1478,-3.1478,-3.185,-3.2374,-3.1749,-3.1495,-3.1444,-3.0801,-3.0531,-3.0497,-2.9837,-2.9424,-2.9135,-2.8799,-2.8279,-2.7648,-2.6914,-2.6404,-2.606,-2.4578,-2.454,-2.5873,-2.7028,-2.6633,-2.4911,-2.4792,-2.4133,-2.2951,-2.2873,-2.2503,-2.1949,-2.1769,-2.141,-2.0782,-1.8892,-1.7996,-1.8071,-1.816,-1.8463,-1.8942,-1.7727,-1.701,-1.6786,-1.4934,-1.3899,-1.378,-1.2513,-1.1726,-1.1491,-1.1193,-1.087,-1.0503,-0.9769,-0.9039,0.0,-0.8365,0.0,0.0,0.0,0.0,0.0,0.0,0.0,0.0,-0.6517,-0.6849,-0.7793,-0.8273,-0.8652,-0.9131,-0.9844,-1.0371,-1.0449,-1.0489,-1.046,-1.0451,-1.055,-1.0663,-1.0857,-1.0512,-1.0327,-1.0601,-1.0441,-1.058,-1.1161,-1.1506,-1.1505,-1.1229,-1.1029,-1.0666,-0.9893,-1.0315,-1.0882,-1.1281,-1.1185,-1.0773,-1.0046,-0.9047,-0.7864,-0.6515,-0.5832,-0.5342,-0.5037,-0.4938,-0.4948,-0.4969,-0.4965,-0.4945,-0.4931,-0.4773,-0.4499,-0.4149,-0.3645,-0.3456,-3.2983,-3.2983,-3.3,-3.3068,-3.3186,-3.3034,-3.3,-3.2966,-3.2831,-3.278,-3.278,-3.2628,-3.2141,-3.1463,-3.1208,-2.9996,-2.8003,-2.7368,-2.663,-2.5873,-2.5392,-2.5849,-2.6915,-2.7394,-2.7191,-2.6371,-2.5736,-2.5016,-2.4209,-2.3684,-2.337,-2.3206,-2.2203,-2.1635,0.0,0.0,0.0,0.0,-2.0662,-2.0752,-2.0333,-1.954,-1.8627,-1.7503,-1.5635,0.0,-1.3784,-1.2513,-1.1894,-1.2009,-1.1145,0.0,0.0,0.0,0.0,0.0,0.0,0.0,0.0,0.0,0.0,0.0,-1.1752,-1.075,-0.8635,-0.8294,-0.843,-0.8875,-0.8905,-0.9209,-0.9961,-1.0214,-1.0557,-1.1273,-1.1349,-1.1364,-1.1373,-1.195,-1.2111,-1.1205,-1.1384,-1.1602,-1.1768,-1.1751,-1.1898,-1.2344,-1.2529,-1.2442,-1.2018,-1.1438,-1.0856,-1.0539,-1.0927,-1.1376,-1.173,-1.1475,-1.1116,-1.0448,-0.9532,-0.8359,-0.7078,-0.625,-0.5646,-0.5227,-0.5091,-0.5142,-0.525,-0.5179,-0.5111,-0.5098,-0.4947,-0.4716,-0.4294,-0.4062,-0.3787,-3.3389,0.0,-3.3389,-3.3609,0.0,0.0,-3.415,-3.4438,-3.3728,-3.3389,-3.3389,-3.3389,-3.2942,-3.2158,-3.1722,-3.0547,-2.882,-2.759,-2.6945,-2.6773,-2.6882,-2.717,-2.7565,-2.7699,-2.7507,-2.6972,-2.6071,-2.5255,-2.4597,-2.4238,-2.3789,-2.3131,-2.2488,-2.1859,-2.1216,-2.0872,-2.0857,-2.1186,-2.153,-2.1695,-2.1635,-2.0378,-1.9375,-1.8657,0.0,0.0,0.0,0.0,0.0,0.0,0.0,0.0,0.0,0.0,0.0,-0.9541,-1.027,-1.0973,-1.1507,-1.2567,-1.3426,-1.3865,-1.4061,-1.3144,-1.0677,-1.0089,-0.998,-1.0284,-1.0299,-1.0439,-1.091,-1.1103,-1.1406,-1.1836,-1.2135,-1.2263,-1.2263,-1.2639,-1.2849,-1.2725,-1.2742,-1.2859,-1.2965,-1.2889,-1.2995,-1.3377,-1.3336,-1.3121,-1.2734,-1.199,-1.1374,-1.106,-1.1487,-1.185,-1.185,-1.1788,-1.149,-1.1028,-1.0252,-0.9216,-0.8012,-0.726,-0.6534,-0.5929,-0.5666,-0.5634,-0.5549,-0.5511,-0.546,-0.5457,-0.5406,-0.5259,-0.4928,-0.468,-0.4543,-3.3795,-3.3795,-3.3795,-3.415,-3.4692,-3.4692,-3.5047,-3.5493,0.0,0.0,0.0,-3.3795,-3.3389,-3.2669,-3.1918,-3.0954,-2.9833,-2.8136,-2.7607,-2.7981,-2.7962,-2.8051,-2.8205,-2.8249,-2.7982,-2.7472,-2.6425,-2.5634,-2.5108,-2.4987,-2.4326,-2.3242,-2.299,-2.2169,-2.0872,-2.1261,-2.153,-2.156,-2.1874,-2.2233,-2.2664,-2.1066,-2.0085,-1.9705,-1.7522,-1.5903,-1.4977,-1.2925,-1.2053,-1.2589,-1.2384,-1.208,-1.1641,-1.1432,-1.1069,-1.0623,-1.1977,-1.3148,-1.3887,-1.4902,-1.5616,-1.6025,-1.5868,-1.4841,-1.2617,-1.1795,-1.1467,-1.1715,-1.1769,-1.1787,-1.1886,-1.2197,-1.2451,-1.2414,-1.2715,-1.291,-1.291,-1.292,-1.3233,-1.4112,-1.4175,-1.4029,-1.3901,-1.3887,-1.394,-1.4171,-1.3962,-1.36,-1.3084,-1.2367,-1.185,-1.169,-1.1979,-1.2192,-1.2056,-1.1979,-1.1922,-1.1601,-1.0943,-1.0153,-0.9348,-0.8481,-0.7673,-0.686,-0.6507,-0.6222,-0.5995,-0.5925,-0.5911,-0.5888,-0.5854,-0.581,-0.5677,-0.5426,-0.5189,-3.5301,-3.5318,-3.5273,-3.5368,-3.5453,-3.5453,-3.552,-3.556,-3.5341,-3.5301,-3.5318,-3.5301,-3.4895,-3.4134,-3.3423,-3.2242,-3.0796,-2.9688,-2.9214,0.0,-2.7147,-2.7406,-2.9484,-2.9356,-2.9061,-2.8592,-2.7612,-2.7118,-2.6965,-2.6442,-2.5722,-2.4856,-2.4161,-2.2823,-2.1121,-2.0895,-2.094,-2.1113,-2.2589,-2.3116,-2.2724,-2.2398,-2.1449,-1.975,-1.8792,-1.7445,-1.568,-1.3192,-1.2444,-1.3783,-1.4016,-1.3726,-1.2827,-1.2625,-1.2583,-1.278,-1.3873,-1.5191,-1.6672,-1.7388,-1.7944,-1.8409,-1.778,-1.6256,-1.3974,-1.3213,-1.2798,-1.2594,-1.2562,-1.2599,-1.2857,-1.3116,-1.3301,-1.326,-1.3039,-1.2897,-1.2897,-1.2976,-1.3552,-1.494,-1.5224,-1.4877,-1.4478,-1.4658,-1.482,-1.4688,-1.4323,-1.3803,-1.2826,-1.2345,-1.2231,-1.2184,-1.2211,-1.2245,-1.2218,-1.2265,-1.2231,-1.2224,-1.1636,-1.1046,-1.0644,-0.9753,-0.8857,-0.8103,-0.759,-0.7058,-0.6513,-0.6376,-0.6312,-0.6294,-0.6105,-0.6003,-0.5952,-0.5711,-0.5484,-3.5639,-3.5639,-3.5639,-3.5639,-3.5639,-3.5639,-3.5639,-3.5639,-3.5639,-3.5639,-3.5639,-3.5639,-3.5216,-3.4472,-3.3728,-3.2773,-3.1658,-3.0409,-3.0046,-3.0162,-2.7583,-2.802,-3.0771,-3.051,-3.0196,-3.0012,-2.9023,-2.8509,-2.8462,-2.8178,-2.7617,-2.6689,-2.4641,-2.2702,-2.1106,-2.0805,-2.0571,-2.0324,-2.2163,-2.2951,-2.2697,-2.2682,-2.2233,-2.1306,-1.9989,-1.8478,-1.6877,-1.4994,-1.4041,-1.4254,-1.476,-1.4524,-1.3408,-1.3395,-1.3539,-1.3836,-1.5107,-1.6426,-1.7739,-1.9168,-1.9839,-1.9472,-1.9598,-1.8858,-1.6773,-1.5298,-1.457,-1.4719,-1.4063,-1.3703,-1.3973,-1.3886,-1.3848,-1.3848,-1.3294,-1.2905,-1.2995,-1.3801,-1.4572,-1.5229,-1.4962,-1.485,-1.5286,-1.5313,-1.5348,-1.5173,-1.4574,-1.3517,-1.2696,-1.2398,-1.2305,-1.2305,-1.2305,-1.2305,-1.2305,-1.2305,-1.2305,-1.2305,-1.1978,-1.1717,-1.1489,-1.075,-0.994,-0.918,-0.8617,-0.7886,-0.716,-0.6916,-0.6722,-0.6519,-0.6376,-0.6264,-0.6149,-0.5861,-0.5559,-3.5639,-3.5639,-3.5639,-3.5639,-3.5639,-3.5639,-3.5639,-3.5639,-3.5639,-3.5639,-3.5639,-3.5639,-3.5284,-3.4709,-3.3981,-3.3339,-3.2645,-3.1444,-3.1157,-3.1398,-2.9417,-2.9806,-3.1984,-3.1537,-3.1178,-3.1095,-3.0089,-2.9601,-2.9601,-2.9601,-2.8974,-2.7723,-2.4963,-2.2753,-2.1151,-2.0903,-2.0407,-1.987,-2.1367,-2.2383,-2.2709,-2.2682,-2.2682,-2.2604,-2.1036,-1.9525,-1.8208,-1.6888,-1.5876,-1.5227,-1.569,-1.5505,-1.4497,-1.4629,-1.4905,-1.5258,-1.6411,-1.7644,-1.8755,-2.0433,-2.1145,-2.0315,-2.124,-2.1176,-1.9533,-1.7811,-1.6681,-1.6535,-1.5526,-1.4974,-1.5007,-1.4764,-1.4439,-1.4297,-1.3838,-1.3439,-1.3331,-1.4505,-1.5431,-1.5329,-1.4627,-1.4582,-1.5439,-1.5566,-1.5428,-1.531,-1.4402,-1.3513,-1.2948,-1.2648,-1.2499,-1.2452,-1.2351,-1.2258,-1.2238,-1.2271,-1.2265,-1.2231,-1.2111,-1.214,-1.2011,-1.1678,-1.1107,-1.0453,-0.9795,-0.8976,-0.805,-0.7556,-0.7224,-0.687,-0.6678,-0.6508,-0.6274,-0.5973,-0.5644,-3.5639,-3.5639,-3.5639,-3.5639,-3.5639,-3.5639,-3.5639,-3.5639,-3.5639,-3.5639,-3.5639,-3.5639,-3.5588,-3.5419,-3.4709,-3.432,-3.4184,-3.3457,-3.3136,-3.3254,-3.3414,-3.3405,-3.3143,-3.2314,-3.1775,-3.1494,-3.0603,-3.013,-3.013,-3.013,-2.9172,-2.728,-2.5428,-2.3606,-2.1834,-2.1167,-2.0467,-1.9728,-2.046,-2.147,-2.2607,-2.2682,-2.2682,-2.2709,-2.1934,-2.0887,-1.951,-1.8224,-1.7512,-1.7409,-1.7458,-1.7279,-1.6838,-1.6965,-1.7293,-1.7761,-1.8228,-1.9105,-2.0315,-2.1107,-2.1386,-2.1443,-2.228,-2.2451,-2.128,-2.0573,-1.9263,-1.7654,-1.6757,-1.6393,-1.5998,-1.5838,-1.5495,-1.4988,-1.4988,-1.4867,-1.4277,-1.4831,-1.5389,-1.54,-1.4619,-1.4307,-1.4846,-1.5176,-1.5317,-1.516,-1.4494,-1.3838,-1.3386,-1.3131,-1.3,-1.2825,-1.2573,-1.2204,-1.2031,-1.2144,-1.2178,-1.2017,-1.2151,-1.2443,-1.2693,-1.2606,-1.2258,-1.1767,-1.1277,-1.0243,-0.9143,-0.8408,-0.7865,-0.7281,-0.6912,-0.6749,-0.6376,-0.6108,-0.5888,-3.5639,-3.5639,-3.5639,-3.5639,-3.5639,-3.5639,-3.5639,-3.5639,-3.5639,-3.5639,-3.5639,-3.5639,-3.5639,-3.556,-3.5284,-3.5148,-3.5131,-3.4844,-3.4726,-3.4726,-3.4918,-3.4901,-3.4553,-3.3091,-3.2469,-3.2504,-3.1383,-3.079,-3.0773,-3.0667,-2.9626,-2.785,-2.6438,-2.4887,-2.3111,-2.1743,-2.0624,-1.9753,-1.9975,-2.0572,-2.15,-2.2278,-2.2682,-2.2694,-2.2398,-2.1665,-2.0378,-1.9373,-1.8718,-1.8373,-1.8652,-1.8567,-1.789,-1.8092,-1.8319,-1.8582,-1.9191,-1.9786,-2.0242,-2.0428,-2.0783,-2.1412,-2.2488,-2.2778,-2.2046,-2.1757,-2.1026,-1.9817,-1.8898,-1.8242,-1.7645,-1.712,-1.6471,-1.5827,-1.5538,-1.5233,-1.4936,-1.516,-1.5243,-1.4743,-1.4315,-1.415,-1.435,-1.4608,-1.4743,-1.4806,-1.4437,-1.4119,-1.4043,-1.3604,-1.3255,-1.3167,-1.2708,-1.2211,-1.1944,-1.2104,-1.2138,-1.2037,-1.2265,-1.2746,-1.3008,-1.3133,-1.294,-1.2717,-1.2083,-1.1154,-0.9918,-0.9152,-0.854,-0.7815,-0.7107,-0.6817,-0.6458,-0.6271,-0.6057,-3.5639,-3.5639,-3.5639,-3.5639,-3.5639,-3.5639,-3.5639,-3.5639,-3.5639,-3.5639,-3.5639,-3.5639,-3.5639,-3.5639,-3.5639,-3.5639,-3.5639,-3.5639,-3.5639,-3.5639,-3.5639,-3.5622,-3.5408,-3.3997,-3.3372,-3.344,-3.2205,-3.1393,-3.1224,-3.1032,-3.0089,-2.8655,-2.7529,-2.614,-2.4374,-2.2705,-2.124,-2.002,-2.0004,-2.0234,-2.0663,-2.1764,-2.2529,-2.2694,-2.2682,-2.2143,-2.1036,-2.0154,-1.9574,-1.9301,-2.0196,-2.0334,-1.9405,-1.9453,-1.949,-1.9441,-2.0004,-2.0361,-2.0373,-1.9976,-2.0346,-2.1581,-2.2611,-2.2915,-2.2648,-2.2535,-2.2301,-2.1798,-2.1047,-2.0208,-1.8953,-1.8107,-1.7265,-1.6415,-1.5748,-1.5449,-1.5361,-1.5412,-1.5002,-1.3979,-1.3748,-1.3886,-1.4082,-1.417,-1.4372,-1.4916,-1.478,-1.4569,-1.4641,-1.3985,-1.3386,-1.3374,-1.277,-1.2171,-1.1857,-1.2064,-1.2118,-1.2104,-1.2412,-1.2852,-1.322,-1.3358,-1.3487,-1.3302,-1.2674,-1.21,-1.1144,-1.0269,-0.9148,-0.8169,-0.7396,-0.6885,-0.6597,-0.6427,-0.6183,-3.5639,-3.5639,-3.5639,-3.5639,-3.5639,-3.5639,-3.5639,-3.5639,-3.5639,-3.5639,-3.569,-3.5673,-3.5656,-3.5707,-3.574,-3.5639,-3.5639,-3.5639,-3.5639,-3.5639,-3.5639,-3.5639,-3.5588,-3.481,-3.4387,-3.4218,-3.2831,-3.1816,-3.1224,-3.1055,-3.0493,-2.9515,-2.8454,-2.7101,-2.5349,-2.4135,-2.2574,-2.0898,-2.1002,-2.0813,-2.0324,-2.1273,-2.2159,-2.2589,-2.2697,-2.2368,-2.1595,-2.041,-1.9992,-2.0565,-2.221,-2.2723,-2.1659,-2.1361,-2.115,-2.0938,-2.0852,-2.0948,-2.1094,-2.0385,-2.056,-2.2018,-2.2786,-2.3113,-2.3037,-2.3012,-2.2915,-2.2952,-2.2742,-2.1805,-1.9835,-1.8874,-1.7906,-1.6938,-1.5918,-1.5496,-1.5419,-1.5402,-1.4654,-1.3414,-1.3106,-1.3365,-1.399,-1.398,-1.4592,-1.5306,-1.5386,-1.5111,-1.5145,-1.4444,-1.3763,-1.3262,-1.2763,-1.2163,-1.181,-1.2029,-1.2131,-1.2091,-1.2358,-1.2919,-1.3333,-1.3599,-1.3751,-1.38,-1.3444,-1.2869,-1.2254,-1.1214,-0.9932,-0.8794,-0.7658,-0.7059,-0.6688,-0.6559,-0.6302,-3.5667,-3.5639,-3.5639,-3.5639,-3.5639,-3.5639,-3.5639,-3.5639,-3.5639,-3.596,-3.6463,-3.64,-3.662,-3.706,-3.6586,-3.6096,-3.5656,-3.5639,-3.5639,-3.5639,-3.5639,-3.5639,-3.5537,-3.4844,-3.4489,-3.4269,-3.3,-3.1901,-3.1258,-3.1151,-3.0723,-2.9921,-2.8953,-2.7668,-2.6157,-2.4931,-2.414,-2.3802,-2.2912,-2.1838,-2.1075,-2.1697,-2.2076,-2.2109,-2.2847,-2.2772,-2.1724,-2.1484,-2.134,-2.135,-2.2258,-2.2662,-2.2394,-2.2446,-2.2556,-2.2569,-2.2545,-2.2439,-2.2181,-2.1385,-2.1341,-2.2329,-2.2883,-2.3078,-2.3125,-2.3125,-2.3125,-2.3138,-2.3138,-2.2399,-2.1357,-2.0248,-1.9068,-1.7679,-1.6465,-1.5666,-1.5474,-1.5352,-1.4753,-1.3368,-1.309,-1.3401,-1.3776,-1.4145,-1.4886,-1.5712,-1.5607,-1.5584,-1.5765,-1.5205,-1.4466,-1.3689,-1.2847,-1.2263,-1.2114,-1.2188,-1.2245,-1.2164,-1.2338,-1.2812,-1.3247,-1.3561,-1.3658,-1.3864,-1.3698,-1.3392,-1.2601,-1.1128,-0.9932,-0.889,-0.7753,-0.7021,-0.6756,-0.6634,-0.6339,-3.5684,-3.5622,-3.5639,-3.5639,-3.5639,-3.5639,-3.5639,-3.5639,-3.5639,-3.6192,-3.6949,-3.6903,-3.7195,-3.7702,-3.7127,-3.6518,-3.5994,-3.5757,-3.5639,-3.5639,-3.5639,-3.5639,-3.5554,-3.5098,-3.4844,-3.4675,-3.3609,-3.251,-3.1647,-3.1546,-3.1157,-3.0408,-2.9332,-2.8302,-2.7205,-2.5908,-2.553,-2.5711,-2.4333,-2.2889,-2.2061,-2.2315,-2.2376,-2.2239,-2.3041,-2.2996,-2.1769,-2.2092,-2.2122,-2.1844,-2.234,-2.2911,-2.3295,-2.3466,-2.3743,-2.4043,-2.3957,-2.3751,-2.3325,-2.2334,-2.204,-2.2885,-2.3031,-2.3128,-2.3303,-2.3414,-2.3414,-2.3414,-2.3401,-2.309,-2.2272,-2.1427,-2.0313,-1.8596,-1.7256,-1.6265,-1.5672,-1.5471,-1.4775,-1.3727,-1.3523,-1.3737,-1.3955,-1.4443,-1.5137,-1.6007,-1.5908,-1.601,-1.6251,-1.5938,-1.5228,-1.4322,-1.315,-1.2469,-1.2267,-1.2278,-1.2318,-1.2258,-1.2365,-1.2792,-1.3153,-1.3447,-1.3694,-1.3901,-1.3762,-1.3457,-1.2607,-1.1133,-0.9923,-0.8886,-0.7903,-0.7041,-0.6854,-0.6709,-0.6366,-3.5622,-3.5622,-3.5639,-3.5673,-3.5723,-3.5757,-3.5673,-3.5628,-3.5712,-3.6366,-3.714,-3.7005,-3.7449,-3.777,-3.7297,-3.6806,-3.6671,-3.5994,-3.5639,-3.5639,-3.5639,-3.5639,-3.5622,-3.5537,-3.5436,-3.5368,-3.4759,-3.3643,-3.228,-3.2178,-3.1816,-3.1004,-2.9538,-2.877,-2.8896,-2.7078,-2.6277,-2.626,-2.519,-2.3955,-2.2933,-2.3204,-2.3249,-2.2885,-2.3325,-2.3086,-2.1904,-2.2241,-2.233,-2.2054,-2.2996,-2.3924,-2.4448,-2.4627,-2.4819,-2.5147,-2.4941,-2.4797,-2.4577,-2.3226,-2.2821,-2.3605,-2.3441,-2.3514,-2.3916,-2.4004,-2.3966,-2.3904,-2.3866,-2.3527,-2.2611,-2.2168,-2.1408,-1.9725,-1.8395,-1.7267,-1.6269,-1.5599,-1.5089,-1.4321,-1.416,-1.4326,-1.4629,-1.4814,-1.5215,-1.5889,-1.6214,-1.6329,-1.6458,-1.6251,-1.5886,-1.5054,-1.3613,-1.2376,-1.2298,-1.2311,-1.2331,-1.2371,-1.2559,-1.2929,-1.3153,-1.3447,-1.3674,-1.3881,-1.4021,-1.3724,-1.296,-1.1483,-1.0361,-0.9314,-0.8233,-0.7212,-0.6932,-0.6726,-0.6366,-3.6062,-3.5993,-3.5888,-3.6151,-3.6441,-3.6446,-3.6127,-3.5743,-3.6683,-3.7385,-3.7677,-3.8111,-3.87,-3.8954,-3.8125,-3.755,-3.7432,-3.6265,-3.5639,-3.5639,-3.5639,-3.5639,-3.5639,-3.5639,-3.5334,-3.4878,-3.4607,-3.3728,-3.2584,-3.233,-3.1918,-3.1038,-2.9681,-2.9022,-2.8918,-2.7397,-2.6623,-2.664,-2.6468,-2.5712,-2.4595,-2.4751,-2.4645,-2.4071,-2.3759,-2.358,-2.3714,-2.3835,-2.3596,-2.3041,-2.4268,-2.5091,-2.5315,-2.5734,-2.5983,-2.6135,-2.6616,-2.6664,-2.6201,-2.5158,-2.4596,-2.4909,-2.4631,-2.4368,-2.4531,-2.4569,-2.4393,-2.4104,-2.3991,-2.3653,-2.3012,-2.251,-2.1803,-2.0677,-1.9539,-1.8406,-1.7197,-1.6067,-1.535,-1.5039,-1.4739,-1.4658,-1.4805,-1.498,-1.541,-1.5988,-1.6159,-1.6297,-1.6574,-1.6635,-1.6238,-1.5444,-1.3801,-1.2476,-1.2673,-1.2696,-1.2599,-1.2639,-1.2786,-1.2893,-1.3173,-1.3447,-1.3667,-1.3861,-1.4001,-1.3724,-1.2954,-1.2009,-1.088,-0.9758,-0.8611,-0.7838,-0.7184,-0.6711,-0.6407,-3.6557,-3.6444,-3.6259,-3.6473,-3.6962,-3.6847,-3.6666,-3.6578,-3.7441,-3.8179,-3.8685,-3.8903,-3.9377,-3.9665,-3.8565,-3.7939,-3.7736,-3.6315,-3.5639,-3.5639,-3.5639,-3.5639,-3.5639,-3.5639,-3.5419,-3.5013,-3.4912,-3.4286,-3.3136,-3.2814,-3.2324,-3.1461,-2.9837,-2.8975,-2.8876,-2.7486,-2.6708,-2.6759,-2.705,-2.6775,-2.5995,-2.6034,-2.5861,-2.5183,-2.4642,-2.4627,-2.4986,-2.5226,-2.4926,-2.4343,-2.5046,-2.5674,-2.5944,-2.6153,-2.6389,-2.6887,-2.7343,-2.7588,-2.7226,-2.6668,-2.6216,-2.5959,-2.5358,-2.5048,-2.5059,-2.5109,-2.4921,-2.4669,-2.4619,-2.428,-2.3577,-2.3188,-2.2568,-2.1915,-2.0871,-1.9527,-1.8059,-1.6392,-1.5481,-1.5332,-1.5162,-1.5076,-1.5088,-1.5205,-1.5586,-1.5957,-1.6211,-1.6475,-1.687,-1.712,-1.6693,-1.563,-1.356,-1.2884,-1.3117,-1.3058,-1.2929,-1.2939,-1.3026,-1.3073,-1.3206,-1.3467,-1.3701,-1.3915,-1.4075,-1.3906,-1.3222,-1.2437,-1.1391,-1.0274,-0.9144,-0.8345,-0.7548,-0.6876,-0.6472,-3.7114,-3.6917,-3.658,-3.6809,-3.7332,-3.7121,-3.7424,-3.797,-3.8156,-3.8914,-3.9742,-3.9474,-3.9511,-3.9714,-3.8565,-3.7922,-3.7635,-3.6332,-3.5639,-3.5639,-3.5639,-3.5639,-3.5639,-3.5639,-3.5571,-3.5537,-3.5537,-3.5115,-3.4218,-3.3592,-3.3017,-3.2053,-3.0091,-2.8941,-2.8636,-2.7435,-2.6708,-2.6759,-2.7238,-2.7234,-2.6756,-2.7051,-2.6901,-2.6276,-2.6061,-2.5907,-2.5916,-2.6258,-2.6033,-2.5045,-2.5555,-2.6153,-2.6422,-2.6048,-2.6467,-2.7425,-2.7575,-2.7713,-2.7752,-2.791,-2.7506,-2.6516,-2.5986,-2.5547,-2.5665,-2.5649,-2.5573,-2.5423,-2.5435,-2.5096,-2.4268,-2.3991,-2.3678,-2.3075,-2.1901,-2.0365,-1.834,-1.6581,-1.5766,-1.5566,-1.5527,-1.5478,-1.5478,-1.5488,-1.5693,-1.5986,-1.6367,-1.6689,-1.7139,-1.7282,-1.7474,-1.5904,-1.37,-1.2905,-1.2931,-1.3154,-1.3046,-1.3394,-1.3414,-1.3367,-1.3367,-1.3574,-1.3761,-1.3968,-1.4088,-1.3828,-1.3476,-1.2693,-1.2003,-1.1063,-0.9938,-0.8854,-0.7938,-0.718,-0.6548,-3.7505,-3.7321,-3.7034,-3.7545,-3.8486,-3.8239,-3.8643,-3.9521,-3.9924,-4.0079,-4.0326,-4.018,-4.0014,-4.0051,-3.8597,-3.7922,-3.7499,-3.6315,-3.5639,-3.5639,-3.5639,-3.5639,-3.5639,-3.5639,-3.5639,-3.5639,-3.5605,-3.5233,-3.4489,-3.3829,-3.3068,-3.2205,-3.0209,-2.882,-2.8275,-2.7299,-2.6742,-2.686,-2.776,-2.8085,-2.7863,-2.8462,-2.855,-2.789,-2.7638,-2.7349,-2.7085,-2.72,-2.7215,-2.6886,-2.6946,-2.716,-2.723,-2.7051,-2.7096,-2.75,-2.8023,-2.8144,-2.8075,-2.8771,-2.8629,-2.7404,-2.6882,-2.6624,-2.6418,-2.6294,-2.6013,-2.5737,-2.5586,-2.5347,-2.477,-2.4582,-2.4155,-2.3165,-2.2218,-2.0673,-1.8498,-1.7132,-1.6364,-1.6337,-1.6333,-1.6152,-1.5928,-1.5889,-1.5947,-1.6145,-1.6279,-1.6533,-1.7109,-1.7439,-1.7504,-1.6116,-1.4275,-1.3237,-1.2716,-1.3027,-1.328,-1.3768,-1.3848,-1.3748,-1.3734,-1.3788,-1.3935,-1.4075,-1.4082,-1.3913,-1.3652,-1.3124,-1.2357,-1.1763,-1.0499,-0.9275,-0.8272,-0.7431,-0.6715,-3.8068,-3.7826,-3.7542,-3.8049,-3.8894,-3.8636,-3.9242,-4.0236,-4.0279,-4.0224,-4.006,-3.9778,-3.9637,-3.9361,-3.8051,-3.7449,-3.7263,-3.618,-3.5656,-3.5639,-3.5639,-3.5639,-3.5639,-3.5639,-3.5639,-3.5639,-3.5639,-3.5385,-3.4912,-3.4235,-3.3474,-3.2577,-3.0852,-2.9394,-2.8222,-2.7552,-2.6979,-2.6928,-2.7715,-2.8165,-2.8295,-2.8951,-2.9131,-2.8794,-2.8637,-2.8301,-2.791,-2.784,-2.7755,-2.761,-2.756,-2.756,-2.753,-2.734,-2.729,-2.753,-2.7964,-2.8092,-2.8238,-2.9016,-2.9086,-2.8126,-2.7603,-2.7271,-2.6905,-2.6658,-2.6251,-2.6038,-2.5975,-2.5686,-2.5234,-2.4958,-2.424,-2.3269,-2.2518,-2.1045,-1.8478,-1.7263,-1.6951,-1.7032,-1.6944,-1.6572,-1.6204,-1.623,-1.6328,-1.6406,-1.6611,-1.6924,-1.7295,-1.7448,-1.7158,-1.5887,-1.4767,-1.3702,-1.3202,-1.3365,-1.3507,-1.3998,-1.4035,-1.3981,-1.3968,-1.3955,-1.4015,-1.4082,-1.4082,-1.3997,-1.3737,-1.3476,-1.3052,-1.2186,-1.088,-0.9765,-0.8743,-0.7513,-0.6866,-3.8578,-3.8382,-3.8065,-3.8276,-3.8777,-3.8549,-3.9284,-4.0415,-3.9934,-3.9506,-3.9385,-3.8929,-3.8839,-3.8408,-3.7604,-3.6944,-3.691,-3.6129,-3.5796,-3.5739,-3.5739,-3.5722,-3.5739,-3.5622,-3.5622,-3.5639,-3.5639,-3.5605,-3.5318,-3.4776,-3.4167,-3.322,-3.1901,-3.0273,-2.8797,-2.8007,-2.7418,-2.6945,-2.7433,-2.7947,-2.8294,-2.885,-2.9176,-2.9134,-2.9042,-2.8764,-2.835,-2.8137,-2.7925,-2.7675,-2.764,-2.7575,-2.75,-2.6991,-2.7021,-2.744,-2.7649,-2.7801,-2.8036,-2.8594,-2.884,-2.8079,-2.7678,-2.7433,-2.6945,-2.6502,-2.6239,-2.6151,-2.6389,-2.6206,-2.5762,-2.5247,-2.4576,-2.3784,-2.3384,-2.1788,-1.9382,-1.7624,-1.7121,-1.7828,-1.7238,-1.6733,-1.6416,-1.6475,-1.6777,-1.6562,-1.6777,-1.7031,-1.72,-1.7298,-1.6874,-1.6053,-1.5076,-1.4096,-1.3885,-1.3794,-1.394,-1.4079,-1.4055,-1.4048,-1.4048,-1.4048,-1.4062,-1.4088,-1.4088,-1.4088,-1.3997,-1.3743,-1.3483,-1.2613,-1.1225,-1.0177,-0.9119,-0.7724,-0.6709,-3.8609,-3.8478,-3.8303,-3.859,-3.912,-3.8959,-3.9387,-4.0193,-4.0012,-3.9394,-3.8885,-3.896,-3.8961,-3.8764,-3.7698,-3.7281,-3.7127,-3.6517,-3.6174,-3.6114,-3.6045,-3.6062,-3.6071,-3.5888,-3.5667,-3.5667,-3.5639,-3.5622,-3.5436,-3.4945,-3.4421,-3.4015,-3.2341,-3.0717,-2.9681,-2.8397,-2.7452,-2.6945,-2.7401,-2.7771,-2.8138,-2.8937,-2.941,-2.931,-2.9299,-2.9196,-2.8857,-2.8324,-2.8051,-2.7993,-2.7775,-2.7595,-2.758,-2.741,-2.7395,-2.7485,-2.756,-2.7599,-2.7676,-2.7925,-2.7878,-2.7412,-2.7086,-2.6516,-2.6153,-2.597,-2.5816,-2.5862,-2.6176,-2.637,-2.6189,-2.5749,-2.5156,-2.4703,-2.4429,-2.3889,-2.2558,-1.9736,-1.8106,-1.7903,-1.7819,-1.7441,-1.6738,-1.6992,-1.707,-1.6836,-1.6914,-1.71,-1.7191,-1.728,-1.6949,-1.6419,-1.5781,-1.4949,-1.4513,-1.4345,-1.407,-1.4176,-1.4139,-1.4088,-1.4088,-1.4088,-1.4088,-1.4088,-1.4088,-1.4088,-1.4088,-1.4004,-1.3743,-1.2699,-1.1569,-1.0388,-0.9185,-0.7773,-0.6871,-3.8658,-3.8609,-3.8483,-3.8674,-3.8955,-3.8925,-3.9075,-3.9384,-3.9438,-3.9046,-3.8528,-3.8613,-3.8528,-3.8294,-3.7627,-3.7312,-3.7242,-3.6928,-3.6701,-3.6631,-3.6417,-3.6399,-3.6736,-3.662,-3.6446,-3.6036,-3.5888,-3.5844,-3.5664,-3.5348,-3.4905,-3.4438,-3.2916,-3.1495,-3.0192,-2.8924,-2.7824,-2.6928,-2.7063,-2.7435,-2.7924,-2.8706,-2.9621,-2.9716,-2.9772,-2.9661,-2.9377,-2.8996,-2.8654,-2.8352,-2.7898,-2.76,-2.761,-2.756,-2.756,-2.756,-2.756,-2.7575,-2.7571,-2.7846,-2.7954,-2.7295,-2.6979,-2.6539,-2.6011,-2.5602,-2.5413,-2.5573,-2.5875,-2.6113,-2.6445,-2.5937,-2.5514,-2.5023,-2.4887,-2.4381,-2.3077,-2.0604,-1.8563,-1.8257,-1.8065,-1.7703,-1.7488,-1.7441,-1.7412,-1.7207,-1.7441,-1.7617,-1.7637,-1.7696,-1.7572,-1.7133,-1.6554,-1.5945,-1.5335,-1.4809,-1.4193,-1.4112,-1.4075,-1.4088,-1.4088,-1.4088,-1.4088,-1.4088,-1.4088,-1.4088,-1.4088,-1.4004,-1.3743,-1.2784,-1.1655,-1.0443,-0.9283,-0.7985,-0.7274,-3.8707,-3.8707,-3.8707,-3.8707,-3.8707,-3.8695,-3.8731,-3.8731,-3.8707,-3.8643,-3.8328,-3.8047,-3.806,-3.7703,-3.7484,-3.7339,-3.7283,-3.7283,-3.7266,-3.7175,-3.6872,-3.6925,-3.7246,-3.7512,-3.7394,-3.6626,-3.6385,-3.6259,-3.6045,-3.5881,-3.5426,-3.4651,-3.3761,-3.2239,-3.0548,-2.9347,-2.818,-2.6928,-2.6776,-2.6996,-2.7553,-2.8275,-2.913,-3.0109,-3.0385,-3.0241,-3.0044,-2.9742,-2.943,-2.8842,-2.81,-2.7739,-2.7695,-2.7625,-2.756,-2.756,-2.756,-2.7575,-2.7649,-2.8002,-2.8054,-2.7607,-2.7159,-2.6768,-2.6142,-2.5497,-2.5329,-2.5552,-2.5866,-2.6038,-2.642,-2.5937,-2.5269,-2.4666,-2.4582,-2.3766,-2.2318,-2.0687,-1.9222,-1.8161,-1.7962,-1.7774,-1.7681,-1.7607,-1.7607,-1.7666,-1.793,-1.8086,-1.8086,-1.7998,-1.7823,-1.7657,-1.7101,-1.6108,-1.5496,-1.4518,-1.3954,-1.3931,-1.3928,-1.3995,-1.4015,-1.4068,-1.4068,-1.4082,-1.4088,-1.4088,-1.4088,-1.4088,-1.3652,-1.2784,-1.1832,-1.0621,-0.9405,-0.8189,-0.7654,-3.8707,-3.8707,-3.8707,-3.8707,-3.8707,-3.8707,-3.8707,-3.8707,-3.8707,-3.8609,-3.846,-3.8285,-3.8153,-3.8,-3.7809,-3.7721,-3.7739,-3.7739,-3.7739,-3.7739,-3.756,-3.7631,-3.7774,-3.8169,-3.808,-3.7593,-3.7094,-3.6661,-3.635,-3.6122,-3.5752,-3.5176,-3.4049,-3.251,-3.1004,-2.9668,-2.823,-2.6928,-2.6708,-2.6826,-2.7097,-2.784,-2.8817,-3.0101,-3.065,-3.0781,-3.07,-3.0625,-3.0299,-2.9438,-2.8467,-2.8084,-2.7978,-2.7775,-2.7625,-2.756,-2.756,-2.756,-2.7619,-2.7679,-2.7565,-2.7097,-2.66,-2.6174,-2.5878,-2.5511,-2.5409,-2.5747,-2.6068,-2.6408,-2.6483,-2.5875,-2.536,-2.4693,-2.3904,-2.2971,-2.1692,-2.0377,-1.9166,-1.829,-1.8137,-1.8046,-1.7982,-1.8007,-1.8096,-1.8193,-1.8379,-1.8437,-1.8389,-1.8184,-1.8027,-1.7842,-1.7641,-1.6508,-1.5412,-1.4301,-1.346,-1.3575,-1.3601,-1.3774,-1.3841,-1.3988,-1.4041,-1.4075,-1.4088,-1.4088,-1.4088,-1.4088,-1.3737,-1.3045,-1.2009,-1.089,-0.9845,-0.8803,-0.7937,-3.8707,-3.8707,-3.8707,-3.8707,-3.8707,-3.8707,-3.8707,-3.8707,-3.8707,-3.8658,-3.8609,-3.8533,-3.8469,-3.8401,-3.8336,-3.8252,-3.8252,-3.8271,-3.8271,-3.8271,-3.8271,-3.8271,-3.8252,-3.8594,-3.8503,-3.8207,-3.7774,-3.7152,-3.6603,-3.6291,-3.5985,-3.5338,-3.4134,-3.2662,-3.119,-2.9702,-2.8213,-2.7046,-2.6708,-2.6708,-2.6826,-2.774,-2.9008,-2.9939,-3.0768,-3.1061,-3.0986,-3.1007,-3.0615,-2.9826,-2.8886,-2.845,-2.8174,-2.7875,-2.756,-2.756,-2.756,-2.756,-2.756,-2.756,-2.7437,-2.7093,-2.6496,-2.6242,-2.5999,-2.5708,-2.551,-2.5775,-2.6236,-2.6521,-2.6508,-2.5699,-2.4996,-2.4381,-2.3588,-2.2409,-2.1049,-2.0132,-1.9549,-1.905,-1.8826,-1.8664,-1.8474,-1.8508,-1.8705,-1.8801,-1.8857,-1.8799,-1.8711,-1.8428,-1.8193,-1.7764,-1.7394,-1.6436,-1.5281,-1.4245,-1.3413,-1.3358,-1.3373,-1.354,-1.3734,-1.3921,-1.4028,-1.4082,-1.4088,-1.4088,-1.4088,-1.4088,-1.3743,-1.3313,-1.2437,-1.1483,-1.0544,-0.9593,-0.8548,-3.8707,-3.8707,-3.8707,-3.8707,-3.8707,-3.8707,-3.8707,-3.8707,-3.8707,-3.8707,-3.8707,-3.8707,-3.8676,-3.8707,-3.8676,-3.8676,-3.8707,-3.8676,-3.8658,-3.8627,-3.8645,-3.8676,-3.8707,-3.8707,-3.8645,-3.8551,-3.8238,-3.7667,-3.6904,-3.6498,-3.6071,-3.5348,-3.4134,-3.2662,-3.119,-2.9719,-2.8213,-2.7165,-2.6708,-2.6708,-2.7029,-2.801,-2.911,-2.9871,-3.0615,-3.0948,-3.1055,-3.1127,-3.0817,-3.007,-2.9281,-2.8623,-2.8398,-2.7925,-2.7625,-2.756,-2.756,-2.756,-2.756,-2.756,-2.7473,-2.7233,-2.6841,-2.6697,-2.6733,-2.6297,-2.5805,-2.5848,-2.6138,-2.6339,-2.6126,-2.541,-2.4669,-2.4079,-2.3479,-2.2591,-2.1497,-2.086,-2.1194,-2.0594,-1.9884,-1.934,-1.9101,-1.9174,-1.9312,-1.9311,-1.9355,-1.9131,-1.9004,-1.8701,-1.8329,-1.7643,-1.706,-1.6173,-1.5235,-1.4359,-1.3717,-1.3473,-1.3478,-1.3467,-1.3681,-1.3895,-1.3981,-1.4075,-1.4088,-1.4088,-1.4088,-1.4088,-1.3828,-1.3476,-1.2857,-1.2083,-1.1144,-1.0024,-0.8982,-3.8707,-3.8707,-3.8707,-3.8707,-3.8707,-3.8707,-3.8707,-3.8707,-3.8707,-3.8707,-3.8707,-3.8707,-3.8707,-3.8707,-3.8707,-3.8707,-3.8707,-3.8707,-3.8707,-3.8707,-3.8707,-3.8707,-3.8707,-3.8707,-3.8707,-3.8658,-3.8387,-3.7844,-3.7228,-3.6781,-3.6241,-3.5477,-3.4176,-3.2696,-3.1382,-2.9926,-2.8213,-2.6996,-2.6725,-2.6708,-2.6843,-2.7588,-2.8399,-2.9161,-2.9905,-3.0615,-3.105,-3.1162,-3.0929,-3.0368,-2.9327,-2.8744,-2.8529,-2.7993,-2.766,-2.756,-2.756,-2.756,-2.756,-2.756,-2.7575,-2.7372,-2.7034,-2.7198,-2.7197,-2.726,-2.6817,-2.6388,-2.6483,-2.6214,-2.5799,-2.5159,-2.4582,-2.4016,-2.3479,-2.3127,-2.2412,-2.1778,-2.2093,-2.1913,-2.1122,-2.0228,-1.9656,-1.9813,-1.9928,-1.9851,-1.9785,-1.9561,-1.9238,-1.8825,-1.8482,-1.7913,-1.7379,-1.6536,-1.5425,-1.4553,-1.3925,-1.3632,-1.3498,-1.338,-1.3554,-1.3754,-1.3988,-1.4062,-1.4062,-1.4075,-1.4088,-1.3997,-1.3913,-1.3652,-1.3294,-1.2607,-1.1757,-1.0626,-0.941,-3.8707,-3.8707,-3.8707,-3.8707,-3.8707,-3.8707,-3.8707,-3.8707,-3.8707,-3.8707,-3.8707,-3.8707,-3.8707,-3.8707,-3.8707,-3.8707,-3.8707,-3.8707,-3.8707,-3.8707,-3.8707,-3.8707,-3.8707,-3.8707,-3.8707,-3.8627,-3.8451,-3.8135,-3.756,-3.7094,-3.6574,-3.5848,-3.4506,-3.3162,-3.193,-3.0425,-2.8929,-2.7672,-2.6979,-2.6725,-2.6877,-2.7418,-2.818,-2.8941,-2.9702,-3.0429,-3.1004,-3.119,-3.1032,-3.0518,-2.9654,-2.908,-2.8779,-2.8301,-2.7806,-2.7725,-2.7625,-2.7625,-2.756,-2.7545,-2.7575,-2.7524,-2.7343,-2.7312,-2.7449,-2.7584,-2.7377,-2.6577,-2.6138,-2.5862,-2.5498,-2.4833,-2.4381,-2.3903,-2.3457,-2.3255,-2.3111,-2.3098,-2.2858,-2.2648,-2.2348,-2.136,-2.0499,-2.0338,-2.0388,-2.0266,-2.0146,-1.998,-1.9438,-1.8749,-1.8427,-1.8145,-1.7758,-1.7232,-1.5947,-1.4856,-1.4048,-1.3657,-1.3317,-1.3326,-1.3387,-1.3581,-1.3828,-1.3935,-1.3895,-1.3941,-1.4035,-1.4088,-1.3997,-1.3913,-1.3737,-1.3045,-1.2272,-1.1052,-0.9753,-3.8707,-3.8707,-3.8707,-3.8707,-3.8707,-3.8707,-3.8707,-3.8707,-3.8707,-3.8707,-3.8707,-3.8707,-3.8707,-3.8707,-3.8707,-3.8707,-3.8707,-3.8707,-3.8707,-3.8707,-3.8707,-3.8707,-3.8707,-3.8707,-3.8707,-3.8707,-3.8528,-3.8267,-3.7948,-3.7542,-3.7094,-3.6504,-3.522,-3.399,-3.2835,-3.1384,-2.97,-2.7824,-2.7283,-2.6962,-2.6843,-2.7199,-2.8044,-2.8822,-2.9567,-3.026,-3.1038,-3.119,-3.1032,-3.0675,-3.0241,-2.975,-2.9212,-2.8357,-2.7753,-2.7516,-2.7214,-2.6901,-2.7066,-2.723,-2.75,-2.7664,-2.7847,-2.7864,-2.7642,-2.7886,-2.7709,-2.6782,-2.6324,-2.5879,-2.5322,-2.4644,-2.4205,-2.3803,-2.3351,-2.3226,-2.3113,-2.3097,-2.3097,-2.2992,-2.2677,-2.238,-2.1643,-2.1086,-2.0792,-2.0602,-2.0478,-2.0352,-1.973,-1.8914,-1.8585,-1.8434,-1.7985,-1.7489,-1.6524,-1.5384,-1.4553,-1.3756,-1.3369,-1.3198,-1.3253,-1.344,-1.3667,-1.3721,-1.3701,-1.3781,-1.3861,-1.3981,-1.4088,-1.3997,-1.3828,-1.3483,-1.2699,-1.1397,-0.9836,-3.8707,-3.8707,-3.8689,-3.8707,-3.8707,-3.8707,-3.8707,-3.8707,-3.8707,-3.8707,-3.8707,-3.8707,-3.8707,-3.8707,-3.8707,-3.8707,-3.8707,-3.8707,-3.8707,-3.8707,-3.8707,-3.8707,-3.8707,-3.8707,-3.8707,-3.8689,-3.8578,-3.8433,-3.8271,-3.8101,-3.765,-3.7031,-3.6013,-3.5081,-3.3838,-3.2262,-3.0407,-2.864,-2.7841,-2.7385,-2.7046,-2.7131,-2.7672,-2.8755,-2.9178,-2.9702,-3.1072,-3.119,-3.1112,-3.0888,-3.0717,-3.0287,-2.9524,-2.8416,-2.7736,-2.733,-2.6557,-2.6279,-2.6381,-2.6976,-2.75,-2.7801,-2.8178,-2.8521,-2.831,-2.8387,-2.7973,-2.7136,-2.6582,-2.5987,-2.5338,-2.4707,-2.4142,-2.374,-2.3389,-2.3213,-2.3125,-2.3125,-2.315,-2.3155,-2.302,-2.2734,-2.2162,-2.1463,-2.0884,-2.0671,-2.0537,-2.041,-2.0092,-1.9409,-1.8997,-1.8674,-1.8242,-1.7627,-1.6922,-1.5826,-1.467,-1.3855,-1.3339,-1.3158,-1.3126,-1.332,-1.3414,-1.3487,-1.348,-1.3587,-1.3645,-1.3921,-1.4055,-1.4075,-1.3913,-1.3392,-1.2351,-1.0794,-0.9226,-3.8477,-3.8931,-3.895,-3.8851,-3.8707,-3.8707,-3.8707,-3.8707,-3.8707,-3.8707,-3.8707,-3.8707,-3.8707,-3.8707,-3.8707,-3.8707,-3.8707,-3.8707,-3.8707,-3.8707,-3.8707,-3.8707,-3.8707,-3.8707,-3.8707,-3.8689,-3.8627,-3.8627,-3.8546,-3.8451,-3.8401,-3.7832,-3.6827,-3.6022,-3.4774,-3.3087,-3.1179,-2.9952,-2.8672,-2.7824,-2.8112,-2.7655,-2.8112,-2.9516,-2.9668,-3.0176,-3.1038,-3.1173,-3.1095,-3.1043,-3.1065,-3.0591,-2.9886,-2.8658,-2.7837,-2.7364,-2.6367,-2.5907,-2.6159,-2.6771,-2.7275,-2.8226,-2.8636,-2.897,-2.9038,-2.901,-2.8465,-2.7657,-2.6878,-2.6189,-2.5526,-2.4732,-2.4054,-2.369,-2.3401,-2.3201,-2.3125,-2.3125,-2.3078,-2.3165,-2.318,-2.3096,-2.2423,-2.1696,-2.1143,-2.0767,-2.0643,-2.0468,-2.0043,-1.9766,-1.932,-1.8773,-1.8262,-1.7714,-1.6941,-1.5861,-1.4633,-1.3988,-1.3326,-1.3065,-1.2879,-1.2919,-1.3013,-1.3126,-1.3293,-1.3434,-1.3627,-1.3895,-1.4028,-1.4075,-1.3737,-1.33,-1.1918,-1.0274,-0.8882,-3.8145,-3.8861,-3.9141,-3.9073,-3.881,-3.878,-3.875,-3.8719,-3.8689,-3.8707,-3.8707,-3.8707,-3.8707,-3.8707,-3.8707,-3.8707,-3.8707,-3.8707,-3.8707,-3.8707,-3.8707,-3.8707,-3.8707,-3.8707,-3.8707,-3.8707,-3.8707,-3.8676,-3.8658,-3.8707,-3.8627,-3.8269,-3.7645,-3.6985,-3.606,-3.4109,-3.2299,-3.1141,-3.0068,-2.867,-2.8991,-2.8518,-2.8653,-2.9888,-3.0023,-3.0429,-3.097,-3.119,-3.1151,-3.1106,-3.1069,-3.0924,-3.012,-2.916,-2.8158,-2.7315,-2.6483,-2.5849,-2.6166,-2.6883,-2.7505,-2.8659,-2.9247,-2.9542,-2.9638,-2.9614,-2.9079,-2.8182,-2.7315,-2.6569,-2.5914,-2.5012,-2.4318,-2.3966,-2.3364,-2.3125,-2.3125,-2.3125,-2.3125,-2.3115,-2.3105,-2.3013,-2.2514,-2.1756,-2.1031,-2.0486,-2.0036,-1.9987,-1.9762,-1.9535,-1.9402,-1.8863,-1.8281,-1.7634,-1.6959,-1.5765,-1.4612,-1.4007,-1.3366,-1.2729,-1.2559,-1.2612,-1.2659,-1.2752,-1.2959,-1.324,-1.352,-1.3794,-1.3961,-1.4082,-1.3568,-1.3045,-1.1569,-1.0009,-0.8794,-3.757,-3.8403,-3.9218,-3.9333,-3.9017,-3.8939,-3.8862,-3.8792,-3.8719,-3.8707,-3.8707,-3.8707,-3.8707,-3.8707,-3.8707,-3.8707,-3.8707,-3.8707,-3.8707,-3.8707,-3.8707,-3.8707,-3.8707,-3.8707,-3.8707,-3.8707,-3.8707,-3.8707,-3.8707,-3.8707,-3.8707,-3.8658,-3.83,-3.7932,-3.7646,-3.6098,-3.4021,-3.1998,-3.1317,-3.0213,-2.9465,-2.911,-2.9482,-3.0057,-3.0294,-3.0683,-3.1021,-3.119,-3.119,-3.1168,-3.1185,-3.1026,-3.0673,-2.9228,-2.829,-2.7734,-2.5811,-2.5037,-2.5284,-2.6705,-2.803,-2.9229,-2.9714,-3.016,-3.05,-3.0297,-2.9808,-2.8939,-2.8295,-2.7419,-2.6466,-2.5549,-2.49,-2.418,-2.3602,-2.3103,-2.3115,-2.3125,-2.3125,-2.3128,-2.2872,-2.2616,-2.2241,-2.1773,-2.0949,-2.0256,-1.9639,-1.9429,-1.935,-1.9377,-1.9262,-1.8755,-1.8184,-1.7703,-1.6954,-1.5608,-1.4555,-1.3945,-1.3295,-1.2559,-1.2325,-1.2479,-1.2513,-1.2445,-1.2792,-1.322,-1.3467,-1.3687,-1.3895,-1.3997,-1.3307,-1.2443,-1.1052,-0.9749,-0.8619,-3.6842,-3.8664,-3.8948,-3.9277,-3.9519,-3.9181,-3.9008,-3.8902,-3.8762,-3.8707,-3.8707,-3.8707,-3.8707,-3.8707,-3.8707,-3.8707,-3.8707,-3.8707,-3.8707,-3.8707,-3.8707,-3.8707,-3.8707,-3.8707,-3.8707,-3.8707,-3.8707,-3.8707,-3.8707,-3.8707,-3.8707,-3.8658,-3.8627,-3.8318,-3.7505,-3.6262,-3.47,-3.3404,-3.2127,-3.0903,-3.0429,-3.004,-3.0074,-3.0768,-3.0835,-3.1004,-3.1292,-3.1343,-3.1219,-3.1258,-3.1258,-3.1128,-3.0874,-2.9599,-2.8973,-2.8338,-2.683,-2.6081,-2.6305,-2.716,-2.821,-2.9229,-3.0033,-3.0563,-3.1099,-3.0896,-3.0404,-2.9794,-2.917,-2.8292,-2.7341,-2.6479,-2.564,-2.4633,-2.3904,-2.3268,-2.3069,-2.3115,-2.309,-2.3081,-2.2972,-2.2798,-2.2523,-2.1978,-2.1225,-2.0411,-1.9809,-1.9322,-1.9162,-1.9171,-1.9163,-1.8508,-1.7998,-1.7686,-1.6968,-1.5777,-1.4798,-1.4182,-1.3167,-1.2047,-1.1975,-1.2297,-1.2358,-1.2325,-1.2779,-1.3233,-1.3494,-1.3741,-1.3948,-1.3828,-1.3222,-1.2266,-1.0961,-0.9749,-0.8707,-3.6033,-3.8075,-3.8744,-3.9204,-3.9581,-3.9344,-3.9181,-3.9045,-3.8881,-3.881,-3.878,-3.875,-3.8738,-3.8707,-3.8707,-3.8707,-3.8707,-3.8707,-3.8707,-3.8707,-3.8707,-3.8707,-3.8707,-3.8707,-3.8707,-3.8707,-3.8707,-3.8707,-3.8707,-3.8707,-3.8707,-3.8707,-3.8707,-3.8492,-3.7807,-3.686,-3.5857,-3.4653,-3.3328,-3.1918,-3.1427,-3.1055,-3.0852,-3.1343,-3.1596,-3.1715,-3.1742,-3.1584,-3.1308,-3.1421,-3.1354,-3.1196,-3.0847,-3.0532,-2.9942,-2.9271,-2.8586,-2.7705,-2.7584,-2.7309,-2.8308,-2.943,-3.0181,-3.089,-3.1315,-3.119,-3.0896,-3.0404,-2.9856,-2.8967,-2.8036,-2.713,-2.6129,-2.5102,-2.414,-2.3567,-2.3071,-2.3119,-2.309,-2.3094,-2.3133,-2.2995,-2.2756,-2.217,-2.1552,-2.0795,-2.0096,-1.9499,-1.8934,-1.8904,-1.8864,-1.837,-1.7998,-1.7793,-1.7173,-1.6156,-1.524,-1.4514,-1.3316,-1.2023,-1.2006,-1.2305,-1.2256,-1.2285,-1.2792,-1.324,-1.3554,-1.3808,-1.4001,-1.3828,-1.3222,-1.2174,-1.0875,-0.9749,-0.8798,-3.5141,-3.6815,-3.8507,-3.9119,-3.9178,-3.9472,-3.9433,-3.911,-3.9064,-3.8979,-3.8892,-3.8833,-3.8762,-3.8707,-3.8707,-3.8707,-3.8707,-3.8707,-3.8707,-3.8707,-3.8707,-3.8707,-3.8707,-3.8707,-3.8707,-3.8707,-3.8707,-3.8707,-3.8707,-3.8707,-3.8707,-3.8707,-3.8707,-3.8611,-3.821,-3.7596,-3.6728,-3.5605,-3.4186,-3.2883,-3.2213,-3.1523,-3.1416,-3.1721,-3.1907,-3.2154,-3.2215,-3.2075,-3.1857,-3.1705,-3.1537,-3.1291,-3.1162,-3.1207,-3.0929,-3.053,-2.9941,-2.9299,-2.8634,-2.8204,-2.8553,-2.9723,-3.0537,-3.1218,-3.1369,-3.1232,-3.1146,-3.0777,-3.0237,-2.9359,-2.8465,-2.747,-2.6492,-2.5446,-2.4352,-2.3753,-2.3207,-2.3121,-2.3105,-2.313,-2.323,-2.3082,-2.2719,-2.2197,-2.1697,-2.0886,-2.0087,-1.9375,-1.8849,-1.8389,-1.834,-1.834,-1.8036,-1.7948,-1.7269,-1.66,-1.5632,-1.4875,-1.3561,-1.2432,-1.2441,-1.2164,-1.2067,-1.2204,-1.2806,-1.328,-1.3701,-1.3921,-1.4041,-1.3737,-1.3307,-1.2174,-1.0875,-0.9836,-0.8886,-3.4276,-3.5916,-3.7007,-3.8112,-3.9186,-3.9776,-3.9813,-3.9476,-3.9383,-3.9253,-3.9008,-3.897,-3.8862,-3.8689,-3.8707,-3.8707,-3.8707,-3.8707,-3.8707,-3.8707,-3.8707,-3.8707,-3.8707,-3.8707,-3.8707,-3.8707,-3.8707,-3.8707,-3.8707,-3.8707,-3.8707,-3.8707,-3.8707,-3.8693,-3.8463,-3.802,-3.7256,-3.6227,-3.4775,-3.367,-3.2684,-3.1871,-3.1798,-3.1754,-3.1755,-3.1968,-3.1979,-3.2611,-3.2432,-3.1641,-3.1419,-3.1234,-3.1224,-3.1624,-3.1808,-3.1479,-3.0975,-3.0413,-2.9696,-2.9222,-2.9355,-2.9854,-3.0338,-3.0413,-3.072,-3.1168,-3.1291,-3.1029,-3.0613,-2.9808,-2.8917,-2.8018,-2.6974,-2.5894,-2.5021,-2.4707,-2.4104,-2.3269,-2.3243,-2.3153,-2.3253,-2.3096,-2.272,-2.2396,-2.1862,-2.0927,-2.0096,-1.9362,-1.8792,-1.8301,-1.8054,-1.8074,-1.8545,-1.8684,-1.7973,-1.7273,-1.6193,-1.5172,-1.3859,-1.2783,-1.2291,-1.2011,-1.1886,-1.2158,-1.2819,-1.3414,-1.3941,-1.4068,-1.4088,-1.3828,-1.3313,-1.2089,-1.0961,-0.9923,-0.8798,-3.3718,-3.5064,-3.6238,-3.7685,-3.9154,-3.9648,-3.9833,-3.9906,-3.9747,-3.9513,-3.9275,-3.9192,-3.8989,-3.8792,-3.875,-3.8738,-3.8707,-3.8707,-3.8707,-3.8707,-3.8707,-3.8707,-3.8707,-3.8707,-3.8707,-3.8707,-3.8707,-3.8707,-3.8707,-3.8707,-3.8707,-3.8707,-3.8707,-3.87,-3.8561,-3.8241,-3.7859,-3.6809,-3.5557,-3.4271,-3.3263,-3.2314,-3.1836,-3.1769,-3.1664,-3.1704,-3.1968,-3.3063,-3.2693,-3.2154,-3.21,-3.2066,-3.2181,-3.2681,-3.3115,-3.2894,-3.2595,-3.1943,-3.1235,-3.0616,-3.0483,-3.0428,-3.0391,-3.0507,-3.066,-3.1063,-3.1317,-3.1351,-3.0866,-3.0251,-2.9421,-2.8529,-2.7407,-2.6353,-2.6085,-2.5817,-2.4796,-2.3666,-2.3356,-2.3228,-2.313,-2.3083,-2.2824,-2.2507,-2.1795,-2.0662,-1.9779,-1.9096,-1.8572,-1.8252,-1.8072,-1.8059,-1.8909,-1.9531,-1.8718,-1.7824,-1.68,-1.5596,-1.4199,-1.3171,-1.2362,-1.1931,-1.1871,-1.2278,-1.2879,-1.344,-1.3975,-1.4055,-1.4088,-1.3743,-1.3313,-1.218,-1.1047,-0.9923,-0.8707,-3.3353,-3.4257,-3.5988,-3.7546,-3.8988,-3.9219,-3.9685,-4.0303,-4.0024,-3.9829,-3.9628,-3.9408,-3.9192,-3.896,-3.8862,-3.8762,-3.8719,-3.8707,-3.8707,-3.8707,-3.8707,-3.8707,-3.8707,-3.8707,-3.8707,-3.8707,-3.8707,-3.8707,-3.8707,-3.8707,-3.8707,-3.8707,-3.8707,-3.8713,-3.8638,-3.8455,-3.8219,-3.7938,-3.6466,-3.5048,-3.4181,-3.3103,-3.2063,-3.2372,-3.2344,-3.233,-3.2831,-3.3152,-3.3237,-3.3186,-3.3288,-3.3186,-3.3339,-3.3506,-3.3872,-3.4211,-3.386,-3.3208,-3.2388,-3.1697,-3.1141,-3.1082,-3.1106,-3.0979,-3.1102,-3.1225,-3.1407,-3.1409,-3.0999,-3.0478,-2.9704,-2.903,-2.8048,-2.7064,-2.6565,-2.627,-2.5704,-2.4419,-2.3256,-2.314,-2.3115,-2.3008,-2.2504,-2.2135,-2.1456,-2.0358,-1.9446,-1.8738,-1.8567,-1.8267,-1.8203,-1.8237,-1.9185,-1.9865,-1.9167,-1.8296,-1.7426,-1.6167,-1.4655,-1.3556,-1.2786,-1.2272,-1.1935,-1.2465,-1.3073,-1.3474,-1.3881,-1.3995,-1.4088,-1.3913,-1.3307,-1.2266,-1.1139,-1.0096,-0.8707,-3.3006,-3.3449,-3.5738,-3.6969,-3.7488,-3.8757,-3.9219,-3.93,-4.0068,-4.0177,-3.9981,-3.9743,-3.9458,-3.9082,-3.8998,-3.8892,-3.875,-3.875,-3.8707,-3.8707,-3.8707,-3.8707,-3.8707,-3.8707,-3.8707,-3.8707,-3.8707,-3.8707,-3.8707,-3.8707,-3.8707,-3.8707,-3.8707,-3.8695,-3.8695,-3.8564,-3.8569,-3.8556,-3.7444,-3.5984,-3.4938,-3.3441,-3.2301,-3.2171,-3.2015,-3.1815,-3.2021,-3.1854,-3.181,-3.1759,-3.291,-3.3243,-3.3389,-3.3405,-3.3969,-3.4645,-3.4446,-3.3855,-3.3212,-3.2482,-3.1921,-3.1602,-3.1554,-3.1414,-3.136,-3.148,-3.1467,-3.1351,-3.1102,-3.0644,-3.0133,-2.9407,-2.8712,-2.7814,-2.6917,-2.6673,-2.6401,-2.4835,-2.3242,-2.3128,-2.3078,-2.2751,-2.2308,-2.1707,-2.0952,-2.0172,-1.9239,-1.8695,-1.8769,-1.8658,-1.8697,-1.8816,-1.9684,-2.0046,-1.9419,-1.873,-1.7793,-1.673,-1.5352,-1.4233,-1.3147,-1.2564,-1.2097,-1.2721,-1.3267,-1.3581,-1.3834,-1.4021,-1.4088,-1.4004,-1.3483,-1.2528,-1.158,-1.0539,-0.8973,-3.2583,-3.316,-3.5257,-3.6372,-3.6853,-3.7757,-3.8373,-3.8896,-3.9631,-4.0101,-4.0212,-3.9982,-3.966,-3.9327,-3.9245,-3.9073,-3.8892,-3.8851,-3.8822,-3.8792,-3.875,-3.8738,-3.8707,-3.8707,-3.8707,-3.8707,-3.8707,-3.8707,-3.8707,-3.8707,-3.8707,-3.8707,-3.8707,-3.8707,-3.8707,-3.8707,-3.8707,-3.867,-3.79,-3.6863,-3.557,-3.4175,-3.2902,-3.2493,-3.1896,-3.1637,-3.1423,-3.1365,-3.1455,-3.1833,-3.2846,-3.327,-3.3372,-3.3355,-3.364,-3.4069,-3.4163,-3.4052,-3.3467,-3.3022,-3.2554,-3.229,-3.1728,-3.1494,-3.1435,-3.1467,-3.1467,-3.1409,-3.1278,-3.0896,-3.0464,-2.9856,-2.9044,-2.8141,-2.7117,-2.6437,-2.5434,-2.3916,-2.3121,-2.3103,-2.308,-2.3034,-2.2563,-2.2005,-2.1396,-2.0928,-1.9887,-1.9231,-1.916,-1.8969,-1.9017,-1.9197,-1.9868,-2.0019,-1.9385,-1.8776,-1.8132,-1.706,-1.5942,-1.4696,-1.3534,-1.2733,-1.2423,-1.2878,-1.3293,-1.3527,-1.3768,-1.4008,-1.4088,-1.4088,-1.3568,-1.296,-1.1923,-1.089,-0.9584,-3.2275,-3.3256,-3.4853,-3.5892,-3.6526,-3.6699,-3.73,-3.8319,-3.9027,-3.9777,-4.0399,-4.0195,-3.9899,-3.9698,-3.9526,-3.935,-3.9219,-3.911,-3.9045,-3.8931,-3.8862,-3.8792,-3.8719,-3.8707,-3.8707,-3.8707,-3.8707,-3.8707,-3.8707,-3.8707,-3.8707,-3.8707,-3.8707,-3.8707,-3.8707,-3.8707,-3.8707,-3.856,-3.801,-3.7154,-3.6097,-3.5042,-3.3822,-3.29,-3.2179,-3.1806,-3.16,-3.1526,-3.1636,-3.1952,-3.2493,-3.2814,-3.3051,-3.3085,-3.3305,-3.3616,-3.4063,-3.3943,-3.3705,-3.3843,-3.3348,-3.281,-3.2035,-3.1607,-3.1607,-3.1582,-3.1582,-3.1467,-3.1336,-3.1161,-3.0777,-3.0237,-2.9421,-2.8414,-2.7275,-2.633,-2.4881,-2.3462,-2.3244,-2.324,-2.3317,-2.3282,-2.2989,-2.2462,-2.2048,-2.1633,-2.1002,-2.0401,-1.9829,-1.9506,-1.9295,-1.9331,-1.9674,-1.9574,-1.9195,-1.8806,-1.8259,-1.7436,-1.6296,-1.5053,-1.3876,-1.3085,-1.272,-1.3006,-1.3333,-1.3507,-1.3781,-1.4048,-1.4088,-1.4088,-1.3652,-1.3045,-1.2266,-1.123,-1.0284,-3.2583,-3.4045,-3.5103,-3.5608,-3.5834,-3.6411,-3.6498,-3.6526,-3.8435,-3.9738,-4.0319,-4.0447,-4.0252,-3.9982,-3.9859,-3.9687,-3.9519,-3.9414,-3.9242,-3.9063,-3.9027,-3.8862,-3.875,-3.8707,-3.8707,-3.8707,-3.8707,-3.8707,-3.8707,-3.8707,-3.8707,-3.8707,-3.8707,-3.8707,-3.8707,-3.8707,-3.8689,-3.8579,-3.8395,-3.7704,-3.6373,-3.5253,-3.4111,-3.3166,-3.235,-3.2039,-3.1711,-3.1368,-3.1353,-3.141,-3.1647,-3.2053,-3.2307,-3.2527,-3.2713,-3.306,-3.3556,-3.3745,-3.3715,-3.436,-3.4086,-3.3196,-3.2513,-3.2035,-3.1957,-3.1769,-3.1712,-3.1524,-3.1409,-3.1409,-3.1102,-3.0673,-2.9917,-2.8666,-2.7485,-2.6777,-2.575,-2.4516,-2.3741,-2.3829,-2.3992,-2.4014,-2.4005,-2.3592,-2.3304,-2.27,-2.1819,-2.1157,-2.0781,-2.0236,-1.9573,-1.9638,-1.9645,-1.8953,-1.8401,-1.8647,-1.8211,-1.7484,-1.6598,-1.5297,-1.4231,-1.3331,-1.3092,-1.311,-1.3247,-1.344,-1.3734,-1.4028,-1.4088,-1.4082,-1.3652,-1.313,-1.2437,-1.1488,-1.0366]},{"header":{"parameterUnit":"m.s-1","parameterCategory":1,"la1":31.0,"la2":29.5877,"lo1":-88.7671,"lo2":-86.6584,"dy":0.0162,"dx":0.0185,"nx":115,"ny":88,"refTime":"2026-03-22T00:00:00:Z","depth":0,"parameterNumber":3,"parameterNumberName":"V-component_of_WINDS"},"data":[0.0,0.0,0.0,0.0,0.0,0.0,0.0,0.0,0.0,0.0,0.0,0.0,0.0,0.0,0.0,0.0,0.0,0.0,0.0,0.0,0.0,0.0,0.0,0.0,0.0,0.0,0.0,0.0,0.0,0.0,0.0,0.0,0.0,0.0,0.0,0.0,0.0,0.0,0.0,0.0,0.0,0.0,0.0,0.0,0.0,0.0,0.0,0.0,0.0,0.0,0.0,0.0,0.0,0.0,0.0,0.0,0.0,0.0,0.0,0.0,0.0,0.0,0.0,0.0,0.0,0.0,0.0,0.0,0.0,0.0,0.0,0.0,0.0,0.0,0.0,0.0,0.0,0.0,0.0,0.0,0.0,0.0,0.0,0.0,0.0,0.0,0.0,0.0,0.0,0.0,0.0,0.0,0.0,0.0,0.0,0.0,0.0,0.0,0.0,0.0,0.0,0.0,0.0,0.0,0.0,0.0,0.0,0.0,0.0,0.0,0.0,0.0,0.0,0.0,0.0,0.0,0.0,0.0,0.0,0.0,0.0,0.0,0.0,0.0,0.0,0.0,0.0,0.0,0.0,0.0,0.0,0.0,0.0,0.0,0.0,0.0,0.0,0.0,0.0,0.0,0.0,0.0,0.0,0.0,0.0,0.0,0.0,0.0,0.0,0.0,0.0,0.0,0.0,0.0,0.0,0.0,0.0,0.0,0.0,0.0,0.0,0.0,0.0,0.0,0.0,0.0,0.0,0.0,0.0,0.0,0.0,0.0,0.0,0.0,0.0,0.0,0.0,0.0,0.0,0.0,0.0,0.0,0.0,0.0,0.0,0.0,0.0,0.0,0.0,0.0,0.0,0.0,0.0,0.0,0.0,0.0,0.0,0.0,0.0,0.0,0.0,0.0,0.0,0.0,0.0,0.0,0.0,0.0,0.0,0.0,0.0,0.0,0.0,0.0,0.0,0.0,0.0,0.0,0.0,0.0,0.0,0.0,0.0,0.0,0.0,0.0,0.0,0.0,0.0,0.0,0.0,0.0,0.0,0.0,0.0,0.0,0.0,0.0,0.0,0.0,0.0,0.0,0.0,0.0,0.0,0.0,0.0,0.0,0.0,0.0,0.0,0.0,0.0,0.0,0.0,0.0,0.0,0.0,0.0,0.0,0.0,0.0,0.0,0.0,0.0,0.0,0.0,0.0,0.0,0.0,0.0,0.0,0.0,0.0,0.0,0.0,0.0,0.0,0.0,0.0,0.0,0.0,0.0,0.0,0.0,0.0,0.0,0.0,0.0,0.0,0.0,0.0,0.0,0.0,0.0,0.0,0.0,0.0,0.0,0.0,0.0,0.0,0.0,0.0,0.0,0.0,0.0,0.0,0.0,0.0,0.0,0.0,0.0,0.0,0.0,0.0,0.0,0.0,0.0,0.0,0.0,0.0,0.0,0.0,0.0,0.0,0.0,0.0,0.0,0.0,0.0,0.0,0.0,0.0,0.0,0.0,0.0,0.0,0.0,0.0,0.0,0.0,0.0,0.0,0.0,0.0,0.0,0.0,0.0,0.0,0.0,0.0,0.0,0.0,0.0,0.0,0.0,0.0,0.0,0.0,0.0,0.0,0.0,0.0,0.0,0.0,0.0,0.0,0.0,0.0,0.0,0.0,0.0,0.0,0.0,0.0,0.0,0.0,0.0,0.0,0.0,0.0,0.0,0.0,0.0,0.0,0.0,0.0,0.0,0.0,0.0,0.0,0.0,0.0,0.0,0.0,0.0,0.0,0.0,0.0,0.0,0.0,0.0,0.0,0.0,0.0,0.0,0.0,0.0,0.0,0.0,0.0,0.0,0.0,0.0,0.0,0.0,0.0,0.0,0.0,0.0,0.0,0.0,0.0,0.0,0.0,0.0,0.0,0.0,0.0,0.0,0.0,0.0,0.0,0.0,0.0,0.0,0.0,0.0,0.0,0.0,0.0,0.0,0.0,0.0,0.0,0.0,0.0,0.0,0.0,0.0,0.0,0.0,0.0,0.0,0.0,0.0,0.0,0.0,0.0,0.0,0.0,0.0,0.0,0.0,0.0,0.0,0.0,0.0,0.0,0.0,0.0,0.0,0.0,0.0,0.0,0.0,0.0,0.0,0.0,0.0,0.0,0.0,0.0,0.0,0.0,0.0,0.0,0.0,0.0,0.0,0.0,0.0,0.0,0.0,0.0,0.0,0.0,0.0,0.0,0.0,0.0,0.0,0.0,0.0,0.0,0.0,0.0,0.0,0.0,0.0,0.0,0.0,0.0,0.0,0.0,0.0,0.0,0.0,0.0,0.0,0.0,0.0,0.0,0.0,0.0,0.0,0.0,0.0,0.0,0.0,0.0,0.0,0.0,0.0,0.0,0.0,0.0,0.0,0.0,0.0,0.0,0.0,0.0,0.0,0.0,0.0,0.0,0.0,0.0,0.0,0.0,0.0,0.0,0.0,0.0,0.0,0.0,0.0,0.0,0.0,0.0,0.0,0.0,0.0,0.0,0.0,0.0,0.0,0.0,0.0,0.0,0.0,0.0,0.0,0.0,0.0,0.0,0.0,0.0,0.0,0.0,0.0,0.0,0.0,0.0,0.0,0.0,0.0,0.0,0.0,0.0,0.0,0.0,0.0,0.0,0.0,0.0,0.0,0.0,0.0,0.0,0.0,0.0,0.0,0.0,0.0,0.0,0.0,0.0,0.0,0.0,0.0,0.0,0.0,0.0,0.0,0.0,0.0,0.0,0.0,0.0,0.0,0.0,0.0,0.0,0.0,0.0,0.0,0.0,0.0,0.0,0.0,0.0,0.0,0.0,0.0,0.0,0.0,0.0,0.0,0.0,0.0,0.0,0.0,0.0,0.0,0.0,0.0,0.0,0.0,0.0,0.0,0.0,0.0,0.0,0.0,0.0,0.0,0.0,0.0,0.0,0.0,0.0,0.0,0.0,0.0,0.0,0.0,0.0,0.0,0.0,0.0,0.0,0.0,0.0,0.0,0.0,0.0,0.0,0.0,0.0,0.0,0.0,0.0,0.0,0.0,0.0,0.0,0.0,0.0,0.0,0.0,0.0,0.0,0.0,0.0,0.0,0.0,0.0,0.0,0.0,0.0,0.0,0.0,0.0,0.0,0.0,0.0,0.0,0.0,0.0,0.0,0.0,0.0,0.0,0.0,0.0,0.0,0.0,0.0,0.0,0.0,0.0,0.0,0.0,0.0,0.0,0.0,0.0,0.0,0.0,0.0,0.0,0.0,0.0,0.0,0.0,0.0,0.0,0.0,0.0,0.0,0.0,0.0,0.0,0.0,0.0,0.0,0.0,0.0,0.0,0.0,0.0,0.0,0.0,0.0,0.0,0.0,0.0,0.0,0.0,0.0,0.0,0.0,0.0,0.0,0.0,0.0,0.0,0.0,0.0,0.0,0.0,0.0,0.0,0.0,0.0,0.0,0.0,0.0,0.0,0.0,0.0,0.0,0.0,0.0,0.0,0.0,0.0,0.0,0.0,0.0,0.0,0.0,0.0,0.0,0.0,0.0,0.0,0.0,0.0,0.0,0.0,0.0,0.0,0.0,0.0,0.0,0.0,0.0,0.0,0.0,0.0,0.0,0.0,0.0,0.0,0.0,0.0,0.0,0.0,0.0,0.0,0.0,0.0,0.0,0.0,0.0,0.0,0.0,0.0,0.0,0.0,0.0,0.0,0.0,0.0,0.0,0.0,0.0,0.0,0.0,0.0,0.0,0.0,0.0,0.0,0.0,0.0,0.0,0.0,0.0,0.0,0.0,0.0,0.0,0.0,0.0,0.0,0.0,0.0,0.0,0.0,0.0,0.0,0.0,0.0,0.0,0.0,0.0,0.0,0.0,0.0,0.0,0.0,0.0,0.0,0.0,0.0,0.0,0.0,0.0,0.0,0.0,0.0,0.0,0.0,0.0,0.0,0.0,0.0,0.0,0.0,0.0,0.0,0.0,0.0,0.0,0.0,0.0,0.0,0.0,0.0,0.0,0.0,0.0,0.0,0.0,0.0,0.0,0.0,0.0,0.0,0.0,0.0,0.0,0.0,0.0,0.0,0.0,0.0,0.0,0.0,0.0,0.0,0.0,0.0,0.0,0.0,0.0,0.0,0.0,0.0,0.0,0.0,0.0,0.0,0.0,0.0,0.0,0.0,0.0,0.0,0.0,0.0,0.0,0.0,0.0,0.0,0.0,0.0,0.0,0.0,0.0,0.0,0.0,0.0,0.0,0.0,0.0,0.0,0.0,0.0,0.0,0.0,-0.7694,0.0,0.0,0.0,0.0,0.0,0.0,0.0,0.0,0.0,0.0,0.0,0.0,0.0,0.0,0.0,0.0,0.0,0.0,0.0,0.0,0.0,0.0,0.0,0.0,0.0,0.0,0.0,0.0,0.0,0.0,0.0,0.0,0.0,0.0,0.0,0.0,0.0,0.0,0.0,0.0,0.0,0.0,0.0,0.0,0.0,0.0,0.0,0.0,0.0,0.0,0.0,0.0,0.0,0.0,0.0,0.0,0.0,0.0,0.0,0.0,0.0,0.0,0.0,0.0,0.0,0.0,0.0,0.0,0.0,0.0,0.0,0.0,0.0,0.0,0.0,0.0,0.0,0.0,0.0,0.0,0.0,0.0,0.0,0.0,0.0,0.0,0.0,0.0,0.0,0.0,0.0,0.0,0.0,0.0,0.0,0.0,0.0,0.0,0.0,0.0,0.0,0.0,0.0,0.0,0.0,0.0,0.0,0.0,0.0,0.0,-0.7899,-0.7899,-0.787,-0.7841,-0.7797,0.0,0.0,0.0,0.0,0.0,0.0,0.0,0.0,0.0,0.0,0.0,0.0,0.0,0.0,0.0,0.0,0.0,0.0,0.0,0.0,0.0,0.0,0.0,0.0,0.0,0.0,0.0,0.0,0.0,0.0,0.0,0.0,0.0,0.0,0.0,0.0,0.0,0.0,0.0,0.0,0.0,0.0,0.0,0.0,0.0,0.0,0.0,0.0,0.0,0.0,0.0,0.0,0.0,0.0,0.0,0.0,0.0,0.0,0.0,0.0,0.0,0.0,0.0,0.0,0.0,0.0,0.0,0.0,0.0,0.0,0.0,0.0,0.0,0.0,0.0,0.0,0.0,0.0,0.0,0.0,0.0,0.0,0.0,0.0,0.0,0.0,0.0,0.0,0.0,0.0,0.0,0.0,0.0,0.0,0.0,0.0,0.0,0.0,0.0,0.0,0.0,0.0,0.0,0.0,0.0,0.0,0.0,0.0,0.0,0.0,0.0,0.0,-0.7974,-0.7899,-0.7899,0.0,0.0,0.0,0.0,0.0,0.0,0.0,0.0,0.0,0.0,0.0,0.0,0.0,0.0,0.0,0.0,0.0,0.0,0.0,0.0,0.0,0.0,0.0,0.0,0.0,0.0,0.0,0.0,0.0,0.0,0.0,0.0,0.0,0.0,0.0,0.0,0.0,0.0,0.0,0.0,0.0,0.0,0.0,0.0,0.0,0.0,0.0,0.0,0.0,0.0,0.0,0.0,0.0,0.0,0.0,0.0,0.0,0.0,0.0,0.0,0.0,0.0,0.0,0.0,0.0,0.0,0.0,0.0,0.0,0.0,0.0,0.0,0.0,0.0,0.0,0.0,0.0,0.0,0.0,0.0,0.0,0.0,0.0,0.0,0.0,0.0,0.0,0.0,0.0,0.0,0.0,0.0,0.0,0.0,0.0,0.0,0.0,0.0,0.0,0.0,0.0,0.0,0.0,0.0,0.0,0.0,0.0,0.0,0.0,0.0,-0.8184,-0.8785,-0.8214,0.0,-0.7899,0.0,0.0,0.0,0.0,0.0,0.0,0.0,0.0,0.0,0.0,0.0,0.0,0.0,0.0,0.0,0.0,0.0,0.0,0.0,0.0,0.0,0.0,0.0,0.0,0.0,0.0,0.0,0.0,0.0,0.0,0.0,0.0,0.0,0.0,0.0,0.0,0.0,0.0,0.0,0.0,0.0,0.0,0.0,0.0,0.0,0.0,0.0,0.0,0.0,0.0,0.0,0.0,0.0,0.0,0.0,0.0,0.0,0.0,0.0,0.0,0.0,0.0,0.0,0.0,0.0,0.0,0.0,0.0,0.0,0.0,0.0,0.0,0.0,0.0,0.0,0.0,0.0,0.0,0.0,0.0,0.0,0.0,0.0,0.0,0.0,0.0,0.0,0.0,0.0,0.0,0.0,0.0,0.0,0.0,0.0,0.0,0.0,0.0,0.0,0.0,0.0,0.0,0.0,0.0,0.0,0.0,0.0,0.0,0.0,0.0,0.0,-0.8289,-0.8439,-0.8304,0.0,0.0,0.0,0.0,0.0,0.0,0.0,0.0,0.0,0.0,0.0,0.0,0.0,0.0,0.0,0.0,0.0,0.0,0.0,0.0,0.0,0.0,0.0,0.0,0.0,0.0,0.0,0.0,0.0,0.0,0.0,0.0,0.0,0.0,0.0,0.0,0.0,0.0,0.0,0.0,0.0,0.0,0.0,0.0,0.0,0.0,0.0,0.0,0.0,0.0,0.0,0.0,0.0,0.0,0.0,0.0,0.0,0.0,0.0,0.0,0.0,0.0,0.0,0.0,0.0,0.0,0.0,0.0,0.0,0.0,0.0,0.0,0.0,0.0,0.0,0.0,0.0,0.0,0.0,0.0,0.0,0.0,0.0,0.0,0.0,0.0,0.0,0.0,0.0,0.0,0.0,0.0,0.0,0.0,0.0,0.0,0.0,0.0,0.0,0.0,0.0,0.0,0.0,0.0,0.0,0.0,0.0,0.0,0.0,0.0,-0.6897,0.0,-0.7884,-0.8544,-0.8589,-0.7929,0.0,0.0,0.0,0.0,0.0,0.0,0.0,0.0,0.0,0.0,0.0,0.0,0.0,0.0,0.0,0.0,0.0,0.0,0.0,0.0,0.0,0.0,0.0,0.0,0.0,0.0,0.0,0.0,0.0,0.0,0.0,0.0,0.0,0.0,0.0,0.0,0.0,0.0,0.0,0.0,0.0,0.0,0.0,0.0,0.0,0.0,0.0,0.0,0.0,0.0,0.0,0.0,0.0,0.0,0.0,0.0,0.0,0.0,0.0,0.0,0.0,0.0,0.0,0.0,0.0,0.0,0.0,0.0,0.0,0.0,0.0,0.0,0.0,0.0,0.0,0.0,0.0,0.0,0.0,0.0,0.0,0.0,0.0,0.0,0.0,0.0,0.0,0.0,0.0,0.0,0.0,0.0,0.0,0.0,0.0,0.0,0.0,0.0,0.0,0.0,0.0,0.0,0.0,0.0,0.0,0.0,0.0,0.0,0.0,-0.6912,-0.7227,-0.7884,-0.8544,-0.8574,0.0,0.0,0.0,0.0,0.0,0.0,0.0,0.0,0.0,0.0,0.0,0.0,0.0,0.0,0.0,0.0,0.0,0.0,0.0,0.0,0.0,0.0,0.0,0.0,0.0,0.0,0.0,0.0,0.0,0.0,0.0,0.0,0.0,0.0,0.0,0.0,0.0,0.0,0.0,0.0,0.0,0.0,0.0,0.0,0.0,0.0,0.0,0.0,0.0,0.0,0.0,0.0,0.0,0.0,0.0,0.0,0.0,0.0,0.0,0.0,0.0,0.0,0.0,0.0,0.0,0.0,0.0,0.0,0.0,0.0,0.0,0.0,0.0,0.0,0.0,0.0,0.0,0.0,0.0,0.0,0.0,0.0,0.0,0.0,0.0,0.0,0.0,0.0,0.0,0.0,0.0,0.0,0.0,0.0,0.0,0.0,0.0,0.0,0.0,0.0,0.0,0.0,0.0,0.0,0.0,0.0,0.0,0.0,0.0,-0.6927,-0.7316,-0.7659,-0.7914,-0.8559,-0.8589,0.0,0.0,0.0,0.0,0.0,0.0,0.0,0.0,0.0,0.0,0.0,0.0,0.0,0.0,0.0,0.0,0.0,0.0,0.0,0.0,0.0,0.0,0.0,0.0,0.0,0.0,0.0,0.0,0.0,0.0,0.0,0.0,0.0,0.0,0.0,0.0,0.0,0.0,0.0,0.0,0.0,0.0,0.0,0.0,0.0,0.0,0.0,0.0,0.0,0.0,0.0,0.0,0.0,0.0,0.0,0.0,0.0,0.0,0.0,0.0,0.0,0.0,0.0,0.0,0.0,0.0,0.0,0.0,0.0,0.0,0.0,0.0,0.0,0.0,0.0,0.0,0.0,0.0,0.0,0.0,0.0,0.0,0.0,0.0,0.0,0.0,0.0,0.0,0.0,0.0,0.0,0.0,0.0,0.0,0.0,0.0,0.0,0.0,0.0,0.0,0.0,0.0,0.0,0.0,0.0,0.0,0.0,0.0,0.0,-0.6915,0.0,-0.7689,0.0,-0.8319,-0.8349,0.0,0.0,0.0,0.0,0.0,0.0,0.0,0.0,0.0,0.0,0.0,0.0,0.0,0.0,0.0,0.0,0.0,0.0,0.0,0.0,0.0,0.0,0.0,0.0,0.0,0.0,0.0,0.0,0.0,0.0,0.0,0.0,0.0,0.0,0.0,0.0,0.0,0.0,0.0,0.0,0.0,0.0,0.0,0.0,0.0,0.0,0.0,0.0,0.0,0.0,0.0,0.0,0.0,0.0,0.0,0.0,0.0,0.0,0.0,0.0,0.0,0.0,0.0,0.0,0.0,0.0,0.0,0.0,0.0,0.0,0.0,0.0,0.0,0.0,0.0,0.0,0.0,0.0,0.0,0.0,0.0,0.0,0.0,0.0,0.0,0.0,0.0,0.0,0.0,0.0,0.0,0.0,0.0,0.0,0.0,0.0,0.0,0.0,0.0,0.0,0.0,0.0,0.0,0.0,0.0,0.0,0.0,0.0,-0.693,-0.6915,-0.6959,-0.7316,-0.7869,-0.7929,-0.7914,0.0,0.0,0.0,0.0,0.0,0.0,0.0,0.0,0.0,0.0,0.0,0.0,0.0,0.0,0.0,0.0,0.0,0.0,0.0,0.0,0.0,0.0,0.0,0.0,0.0,0.0,0.0,0.0,0.0,0.0,0.0,0.0,0.0,0.0,0.0,0.0,0.0,0.0,0.0,0.0,0.0,0.0,0.0,0.0,0.0,0.0,0.0,0.0,0.0,0.0,0.0,0.0,0.0,0.0,0.0,0.0,0.0,0.0,0.0,0.0,0.0,0.0,0.0,0.0,0.0,0.0,0.0,0.0,0.0,0.0,0.0,0.0,0.0,0.0,0.0,0.0,0.0,0.0,0.0,0.0,0.0,0.0,0.0,0.0,0.0,0.0,0.0,0.0,0.0,0.0,0.0,0.0,0.0,0.0,0.0,0.0,0.0,0.0,0.0,0.0,0.0,0.0,0.0,0.0,0.0,0.0,0.0,0.0,0.0,-0.7629,-0.8034,-0.8154,-0.7914,-0.7899,-0.7899,0.0,0.0,0.0,0.0,0.0,0.0,0.0,0.0,0.0,0.0,0.0,0.0,0.0,0.0,0.0,0.0,0.0,0.0,0.0,0.0,0.0,0.0,0.0,0.0,0.0,0.0,0.0,0.0,0.0,0.0,0.0,0.0,0.0,0.0,0.0,0.0,0.0,0.0,0.0,0.0,0.0,0.0,0.0,0.0,0.0,0.0,0.0,0.0,0.0,0.0,0.0,0.0,0.0,0.0,0.0,0.0,0.0,0.0,0.0,0.0,0.0,0.0,0.0,0.0,0.0,0.0,0.0,0.0,0.0,0.0,0.0,0.0,0.0,0.0,0.0,0.0,0.0,0.0,0.0,0.0,0.0,0.0,0.0,0.0,0.0,0.0,0.0,0.0,0.0,0.0,0.0,0.0,0.0,0.0,0.0,0.0,0.0,0.0,0.0,0.0,0.0,0.0,0.0,0.0,0.0,0.0,0.0,0.0,0.0,-0.8319,-0.8679,-0.8694,-0.8274,-0.8034,-0.7899,-0.7899,0.0,0.0,0.0,0.0,0.0,0.0,0.0,0.0,0.0,0.0,0.0,0.0,0.0,0.0,0.0,0.0,0.0,0.0,0.0,0.0,0.0,0.0,0.0,0.0,0.0,0.0,0.0,0.0,0.0,0.0,0.0,0.0,0.0,0.0,0.0,0.0,0.0,0.0,0.0,0.0,0.0,0.0,0.0,0.0,0.0,0.0,0.0,0.0,0.0,0.0,0.0,0.0,0.0,0.0,0.0,0.0,0.0,0.0,0.0,0.0,0.0,0.0,0.0,0.0,0.0,0.0,0.0,0.0,0.0,0.0,0.0,0.0,0.0,0.0,0.0,0.0,0.0,0.0,0.0,0.0,0.0,0.0,0.0,0.0,0.0,0.0,0.0,0.0,0.0,0.0,0.0,0.0,0.0,0.0,0.0,0.0,0.0,0.0,0.0,0.0,0.0,0.0,0.0,0.0,0.0,0.0,0.0,0.0,-0.9025,-0.901,-0.898,-0.8875,-0.8304,-0.7929,0.0,0.0,0.0,0.0,0.0,0.0,0.0,0.0,0.0,0.0,0.0,0.0,0.0,0.0,0.0,0.0,0.0,0.0,0.0,0.0,0.0,0.0,0.0,0.0,0.0,0.0,0.0,0.0,0.0,0.0,0.0,0.0,0.0,0.0,0.0,0.0,0.0,0.0,0.0,0.0,0.0,0.0,0.0,0.0,0.0,0.0,0.0,0.0,0.0,0.0,0.0,0.0,0.0,0.0,0.0,0.0,0.0,0.0,0.0,0.0,0.0,0.0,0.0,0.0,0.0,0.0,0.0,0.0,0.0,0.0,0.0,0.0,0.0,0.0,0.0,0.0,0.0,0.0,0.0,0.0,0.0,0.0,0.0,0.0,0.0,0.0,0.0,0.0,0.0,0.0,0.0,0.0,0.0,0.0,0.0,0.0,0.0,0.0,0.0,0.0,0.0,0.0,0.0,0.0,0.0,0.0,0.0,0.0,0.0,-1.0294,-1.0309,-0.9845,-0.8935,-0.8725,-0.8409,0.0,0.0,0.0,0.0,0.0,0.0,0.0,0.0,0.0,0.0,0.0,0.0,0.0,0.0,0.0,0.0,0.0,0.0,0.0,0.0,0.0,0.0,0.0,0.0,0.0,0.0,0.0,0.0,0.0,0.0,0.0,0.0,0.0,0.0,0.0,0.0,0.0,0.0,0.0,0.0,0.0,0.0,0.0,0.0,0.0,0.0,0.0,0.0,0.0,0.0,0.0,0.0,0.0,0.0,0.0,0.0,0.0,0.0,0.0,0.0,0.0,0.0,0.0,0.0,0.0,0.0,0.0,0.0,0.0,0.0,0.0,0.0,0.0,0.0,0.0,0.0,0.0,0.0,0.0,0.0,0.0,0.0,0.0,0.0,0.0,0.0,0.0,0.0,0.0,0.0,0.0,0.0,0.0,0.0,0.0,0.0,0.0,0.0,0.0,0.0,0.0,0.0,0.0,0.0,0.0,0.0,0.0,0.0,-1.0339,-1.1186,-1.1521,-1.1147,-1.0148,-0.9323,-0.8725,0.0,0.0,0.0,0.0,0.0,0.0,0.0,0.0,0.0,0.0,0.0,0.0,0.0,0.0,0.0,0.0,0.0,0.0,0.0,0.0,0.0,0.0,0.0,0.0,0.0,0.0,0.0,0.0,0.0,0.0,0.0,0.0,0.0,0.0,0.0,0.0,0.0,0.0,0.0,0.0,0.0,0.0,0.0,0.0,0.0,0.0,0.0,0.0,0.0,0.0,0.0,0.0,0.0,0.0,0.0,0.0,0.0,0.0,0.0,0.0,0.0,0.0,0.0,0.0,0.0,0.0,0.0,0.0,0.0,0.0,0.0,0.0,0.0,0.0,0.0,0.0,0.0,0.0,0.0,0.0,0.0,0.0,0.0,0.0,0.0,0.0,0.0,0.0,0.0,0.0,0.0,0.0,0.0,0.0,0.0,0.0,0.0,0.0,0.0,0.0,0.0,0.0,0.0,0.0,0.0,0.0,0.0,0.0,-1.0683,-1.188,-1.2576,-1.2568,-1.1895,-1.0148,-0.91,0.0,0.0,0.0,0.0,0.0,0.0,0.0,0.0,0.0,0.0,0.0,0.0,0.0,0.0,0.0,0.0,0.0,0.0,0.0,0.0,0.0,0.0,0.0,0.0,0.0,0.0,0.0,0.0,0.0,0.0,0.0,0.0,0.0,0.0,0.0,0.0,0.0,0.0,0.0,0.0,0.0,0.0,0.0,0.0,0.0,0.0,0.0,0.0,0.0,0.0,0.0,0.0,0.0,0.0,0.0,0.0,0.0,0.0,0.0,0.0,0.0,0.0,0.0,0.0,0.0,0.0,0.0,0.0,0.0,0.0,0.0,0.0,0.0,0.0,0.0,0.0,0.0,0.0,0.0,0.0,0.0,0.0,0.0,0.0,0.0,0.0,0.0,0.0,0.0,0.0,0.0,0.0,0.0,0.0,0.0,0.0,0.0,0.0,0.0,0.0,0.0,0.0,0.0,0.0,0.0,0.0,0.0,0.0,-1.1775,-1.2576,-1.3226,-1.3271,-1.2583,-1.1692,-1.0462,0.0,0.0,0.0,0.0,0.0,0.0,0.0,0.0,0.0,0.0,0.0,0.0,0.0,0.0,0.0,0.0,0.0,0.0,0.0,0.0,0.0,0.0,0.0,0.0,0.0,0.0,0.0,0.0,0.0,0.0,0.0,0.0,0.0,0.0,0.0,0.0,0.0,0.0,0.0,0.0,0.0,0.0,0.0,0.0,0.0,0.0,0.0,0.0,-1.0277,0.0,0.0,0.0,0.0,0.0,0.0,0.0,0.0,0.0,0.0,0.0,0.0,0.0,0.0,0.0,0.0,0.0,0.0,0.0,0.0,0.0,0.0,0.0,0.0,0.0,0.0,0.0,0.0,0.0,0.0,0.0,0.0,0.0,0.0,0.0,0.0,0.0,0.0,0.0,0.0,0.0,0.0,0.0,0.0,0.0,0.0,0.0,0.0,0.0,0.0,0.0,0.0,0.0,0.0,0.0,0.0,0.0,0.0,0.0,-1.2433,-1.37,-1.4079,-1.3959,-1.3286,-1.2927,-1.167,0.0,0.0,0.0,0.0,0.0,0.0,0.0,0.0,0.0,0.0,0.0,0.0,0.0,0.0,0.0,0.0,0.0,0.0,0.0,0.0,0.0,0.0,0.0,0.0,0.0,0.0,0.0,0.0,0.0,0.0,0.0,0.0,0.0,0.0,0.0,0.0,0.0,0.0,0.0,0.0,0.0,0.0,0.0,0.0,0.0,0.0,0.0,0.0,0.0,0.0,0.0,0.0,0.0,0.0,0.0,0.0,0.0,0.0,0.0,0.0,0.0,0.0,0.0,0.0,0.0,0.0,0.0,0.0,0.0,0.0,0.0,0.0,0.0,0.0,0.0,0.0,0.0,0.0,0.0,0.0,0.0,0.0,0.0,0.0,0.0,0.0,0.0,0.0,0.0,0.0,0.0,0.0,0.0,0.0,0.0,0.0,0.0,0.0,0.0,0.0,0.0,0.0,0.0,0.0,0.0,0.0,0.0,-1.1759,-1.3077,-1.4707,-1.4992,-1.4737,-1.4004,-1.387,-1.2628,-1.0144,0.0,0.0,0.0,0.0,0.0,0.0,0.0,0.0,0.0,0.0,0.0,0.0,0.0,0.0,0.0,0.0,0.0,0.0,0.0,0.0,0.0,0.0,0.0,0.0,0.0,0.0,0.0,0.0,0.0,0.0,0.0,0.0,0.0,0.0,0.0,0.0,0.0,0.0,-0.7697,-0.8556,0.0,0.0,0.0,0.0,0.0,0.0,0.0,0.0,-0.872,0.0,0.0,0.0,0.0,0.0,0.0,0.0,0.0,0.0,0.0,0.0,0.0,0.0,0.0,0.0,0.0,0.0,0.0,0.0,0.0,0.0,0.0,0.0,0.0,0.0,0.0,0.0,0.0,0.0,0.0,0.0,0.0,0.0,0.0,0.0,0.0,0.0,0.0,0.0,0.0,0.0,0.0,0.0,0.0,0.0,0.0,0.0,0.0,0.0,0.0,0.0,0.0,0.0,0.0,0.0,0.0,-1.0789,-1.311,-1.4453,-1.4797,-1.583,-1.5815,-1.4677,-1.4094,-1.2799,-1.0768,0.0,0.0,0.0,0.0,0.0,0.0,0.0,0.0,0.0,0.0,0.0,0.0,0.0,0.0,0.0,0.0,0.0,0.0,0.0,0.0,0.0,0.0,0.0,0.0,0.0,0.0,0.0,0.0,0.0,0.0,0.0,0.0,0.0,0.0,0.0,0.0,0.0,0.0,0.0,-0.9383,-0.9971,0.0,0.0,0.0,0.0,0.0,0.0,0.0,0.0,-1.0139,0.0,0.0,0.0,0.0,0.0,0.0,0.0,0.0,0.0,0.0,0.0,0.0,0.0,0.0,0.0,0.0,0.0,0.0,0.0,0.0,0.0,0.0,0.0,0.0,0.0,0.0,0.0,0.0,0.0,0.0,0.0,0.0,0.0,0.0,0.0,0.0,0.0,0.0,0.0,0.0,0.0,0.0,0.0,0.0,0.0,0.0,0.0,0.0,0.0,0.0,0.0,0.0,0.0,0.0,0.0,-1.1385,-1.3636,-1.5111,-1.5771,-1.6726,-1.6623,-1.5364,-1.4348,-1.2844,0.0,0.0,0.0,0.0,0.0,0.0,0.0,0.0,0.0,0.0,0.0,0.0,0.0,0.0,0.0,0.0,0.0,0.0,0.0,0.0,0.0,0.0,0.0,0.0,0.0,0.0,0.0,0.0,0.0,0.0,0.0,0.0,0.0,0.0,0.0,0.0,0.0,0.0,0.0,0.0,-0.9844,-1.0448,-1.1358,0.0,0.0,0.0,0.0,0.0,0.0,-1.0253,-1.0247,0.0,0.0,0.0,0.0,0.0,0.0,0.0,0.0,0.0,0.0,0.0,0.0,0.0,0.0,0.0,0.0,0.0,0.0,0.0,0.0,0.0,0.0,0.0,0.0,0.0,0.0,0.0,0.0,0.0,0.0,0.0,0.0,0.0,0.0,0.0,0.0,0.0,0.0,0.0,0.0,0.0,0.0,0.0,0.0,0.0,0.0,0.0,0.0,0.0,0.0,0.0,0.0,0.0,0.0,0.0,-1.1822,-1.3894,-1.55,-1.6488,-1.7279,-1.701,-1.5649,-1.4438,-1.2867,0.0,0.0,0.0,0.0,0.0,0.0,0.0,0.0,0.0,0.0,0.0,0.0,0.0,0.0,0.0,0.0,0.0,0.0,0.0,0.0,0.0,0.0,0.0,0.0,0.0,0.0,0.0,0.0,0.0,0.0,0.0,0.0,0.0,0.0,0.0,0.0,0.0,0.0,0.0,0.0,0.0,-1.1141,-1.2483,-1.225,0.0,0.0,0.0,0.0,-1.0737,-1.0885,0.0,0.0,0.0,0.0,0.0,0.0,0.0,0.0,0.0,0.0,0.0,0.0,0.0,0.0,0.0,0.0,0.0,0.0,0.0,0.0,0.0,0.0,0.0,0.0,0.0,0.0,0.0,0.0,0.0,0.0,0.0,0.0,0.0,0.0,0.0,0.0,0.0,0.0,0.0,0.0,0.0,0.0,0.0,0.0,0.0,0.0,0.0,0.0,0.0,0.0,0.0,0.0,0.0,0.0,0.0,0.0,-1.1836,-1.4376,-1.5769,-1.5948,-1.7086,-1.6832,-1.4962,-1.4184,-1.2844,0.0,0.0,0.0,0.0,0.0,0.0,0.0,0.0,0.0,0.0,0.0,0.0,0.0,0.0,0.0,0.0,0.0,0.0,0.0,0.0,0.0,0.0,0.0,0.0,0.0,0.0,0.0,0.0,0.0,0.0,0.0,0.0,0.0,0.0,0.0,0.0,0.0,0.0,0.0,0.0,0.0,-1.2473,-1.268,-1.3286,-1.3436,0.0,0.0,0.0,-1.2607,-1.3147,0.0,0.0,0.0,0.0,0.0,0.0,0.0,0.0,0.0,0.0,0.0,0.0,0.0,0.0,0.0,0.0,0.0,0.0,0.0,0.0,0.0,0.0,0.0,0.0,0.0,0.0,0.0,0.0,0.0,0.0,0.0,0.0,0.0,0.0,0.0,0.0,0.0,0.0,0.0,0.0,0.0,0.0,0.0,0.0,0.0,0.0,0.0,0.0,0.0,0.0,0.0,0.0,0.0,0.0,0.0,-1.0535,-1.1797,-1.4055,-1.5575,-1.6278,-1.6846,-1.6562,-1.5366,-1.4,-1.2478,0.0,0.0,0.0,0.0,0.0,0.0,0.0,0.0,0.0,0.0,0.0,0.0,0.0,0.0,0.0,0.0,0.0,0.0,0.0,0.0,0.0,0.0,0.0,0.0,0.0,0.0,0.0,0.0,0.0,0.0,0.0,0.0,0.0,0.0,0.0,0.0,0.0,0.0,0.0,0.0,0.0,0.0,-1.397,-1.4038,0.0,0.0,0.0,-1.4896,-1.5535,0.0,0.0,0.0,0.0,0.0,0.0,0.0,0.0,0.0,0.0,0.0,0.0,0.0,0.0,0.0,0.0,0.0,0.0,0.0,0.0,0.0,0.0,0.0,0.0,0.0,0.0,0.0,0.0,0.0,0.0,0.0,0.0,0.0,0.0,0.0,0.0,0.0,0.0,0.0,0.0,0.0,0.0,0.0,0.0,0.0,0.0,0.0,0.0,0.0,0.0,0.0,0.0,0.0,0.0,0.0,0.0,0.0,-1.1811,-1.3777,-1.5351,-1.6428,-1.6473,-1.6084,-1.5291,-1.3635,0.0,0.0,0.0,0.0,0.0,0.0,0.0,0.0,0.0,0.0,0.0,0.0,0.0,0.0,0.0,0.0,0.0,0.0,0.0,0.0,0.0,0.0,0.0,0.0,0.0,0.0,0.0,-0.4781,0.0,0.0,0.0,0.0,0.0,0.0,0.0,0.0,0.0,0.0,0.0,0.0,0.0,0.0,-1.3843,-1.5285,-1.5126,-1.5311,0.0,0.0,-1.6551,-1.7616,-1.6702,-1.5791,0.0,0.0,0.0,0.0,0.0,0.0,0.0,0.0,0.0,0.0,0.0,0.0,0.0,0.0,0.0,0.0,0.0,0.0,0.0,0.0,0.0,0.0,0.0,0.0,0.0,0.0,0.0,0.0,0.0,0.0,0.0,0.0,0.0,0.0,0.0,0.0,0.0,0.0,0.0,0.0,0.0,0.0,0.0,0.0,0.0,0.0,0.0,0.0,0.0,0.0,0.0,0.0,0.0,0.0,0.0,-1.1797,-1.3777,-1.5154,-1.5829,-1.5873,-1.5203,-1.3871,-1.306,-1.1733,0.0,0.0,0.0,0.0,0.0,0.0,0.0,0.0,0.0,0.0,0.0,0.0,0.0,0.0,0.0,0.0,0.0,0.0,0.0,0.0,0.0,0.0,0.0,0.0,0.0,0.0,0.0,0.0,0.0,0.0,0.0,0.0,0.0,0.0,0.0,0.0,0.0,0.0,0.0,0.0,0.0,-1.528,-1.6196,-1.6977,-1.7489,0.0,0.0,-1.8547,-1.7903,-1.7702,-1.736,-1.6546,0.0,0.0,0.0,0.0,0.0,0.0,0.0,0.0,0.0,0.0,0.0,0.0,0.0,0.0,0.0,0.0,0.0,0.0,0.0,0.0,0.0,0.0,0.0,0.0,0.0,0.0,0.0,0.0,0.0,0.0,0.0,0.0,0.0,0.0,0.0,0.0,0.0,0.0,0.0,0.0,0.0,0.0,0.0,0.0,0.0,0.0,0.0,0.0,0.0,0.0,0.0,0.0,0.0,-1.0509,-1.1801,-1.3374,-1.4707,-1.5739,-1.5409,-1.471,-1.3672,-1.2839,-1.1526,0.0,0.0,0.0,0.0,0.0,0.0,0.0,0.0,0.0,0.0,0.0,0.0,0.0,0.0,0.0,0.0,0.0,0.0,0.0,0.0,0.0,0.0,0.0,0.0,0.0,0.0,0.0,0.0,-0.6371,-0.6496,-0.6797,0.0,0.0,0.0,0.0,0.0,0.0,0.0,0.0,0.0,0.0,-1.5546,-1.6946,-1.7471,0.0,0.0,-1.8792,-1.9081,-1.9292,-1.8427,-1.7632,-1.7285,-1.5408,0.0,0.0,0.0,0.0,0.0,0.0,0.0,0.0,0.0,0.0,0.0,0.0,0.0,0.0,0.0,0.0,0.0,0.0,0.0,0.0,0.0,0.0,0.0,0.0,0.0,0.0,0.0,0.0,0.0,0.0,0.0,0.0,0.0,0.0,0.0,0.0,0.0,0.0,0.0,0.0,0.0,0.0,0.0,0.0,0.0,0.0,0.0,0.0,0.0,0.0,0.0,0.0,-1.0474,-1.1716,-1.3019,-1.4332,-1.5653,-1.5028,-1.4335,-1.3554,-1.2729,-1.1382,0.0,0.0,0.0,0.0,0.0,0.0,0.0,0.0,0.0,0.0,0.0,0.0,0.0,0.0,0.0,0.0,0.0,0.0,0.0,0.0,0.0,0.0,0.0,0.0,0.0,0.0,0.0,0.0,-0.75,-0.7651,-0.7654,0.0,0.0,0.0,0.0,0.0,0.0,0.0,0.0,0.0,0.0,-1.6519,-1.7753,-1.8432,-1.8922,-1.9276,-1.9558,-1.986,-2.0211,-1.8808,-1.7778,-1.8035,0.0,0.0,0.0,0.0,0.0,0.0,0.0,0.0,0.0,0.0,0.0,0.0,0.0,0.0,0.0,0.0,0.0,0.0,0.0,0.0,0.0,0.0,0.0,0.0,0.0,0.0,0.0,0.0,0.0,0.0,0.0,0.0,0.0,0.0,0.0,0.0,0.0,0.0,0.0,0.0,0.0,0.0,0.0,0.0,0.0,0.0,0.0,0.0,0.0,0.0,0.0,0.0,0.0,0.0,-1.1502,-1.2753,-1.4047,-1.533,-1.4831,-1.4173,-1.3435,-1.2618,-1.1295,-0.9368,0.0,0.0,0.0,0.0,0.0,0.0,0.0,0.0,0.0,0.0,0.0,0.0,0.0,0.0,0.0,0.0,0.0,0.0,0.0,0.0,0.0,0.0,0.0,0.0,0.0,0.0,-0.7353,-0.8025,-0.8489,0.0,0.0,0.0,0.0,0.0,0.0,0.0,0.0,0.0,0.0,-1.6999,-1.8552,-1.8659,-2.018,-2.0916,-2.0169,-2.0772,-2.1043,-2.0323,-1.8781,-1.8003,0.0,0.0,0.0,0.0,0.0,0.0,0.0,0.0,0.0,0.0,0.0,0.0,0.0,0.0,0.0,0.0,0.0,0.0,0.0,0.0,0.0,0.0,0.0,0.0,0.0,0.0,0.0,-0.76,-0.7888,0.0,0.0,0.0,0.0,0.0,0.0,0.0,0.0,0.0,0.0,0.0,-1.1879,-1.1733,0.0,0.0,0.0,0.0,0.0,0.0,0.0,0.0,0.0,0.0,0.0,0.0,-1.0264,-1.1794,-1.2548,-1.3615,-1.4954,-1.4917,-1.4357,-1.324,-1.2822,-1.1593,-0.9456,0.0,0.0,0.0,0.0,0.0,0.0,0.0,0.0,0.0,0.0,0.0,0.0,0.0,0.0,0.0,0.0,0.0,0.0,0.0,0.0,0.0,0.0,0.0,0.0,0.0,-0.8166,0.0,0.0,0.0,0.0,0.0,0.0,0.0,0.0,0.0,0.0,0.0,-1.4605,-1.5465,-1.7247,-1.8688,-1.9261,-2.0388,-2.0836,0.0,0.0,0.0,0.0,0.0,0.0,0.0,0.0,0.0,0.0,0.0,0.0,0.0,0.0,-1.8628,-1.7219,-1.6292,-1.5553,-1.502,0.0,0.0,0.0,0.0,0.0,0.0,0.0,0.0,0.0,0.0,0.0,0.0,0.0,0.0,0.0,0.0,-0.8419,0.0,0.0,0.0,0.0,0.0,0.0,0.0,0.0,-1.2542,-1.3152,-1.3667,-1.3684,-1.3948,0.0,-1.4459,-1.3833,0.0,0.0,0.0,0.0,0.0,0.0,0.0,0.0,-1.0333,-1.1765,-1.2321,-1.3226,-1.455,-1.4828,-1.4378,-1.3263,-1.2415,-1.1143,-0.9419,-0.9052,-0.8803,0.0,0.0,0.0,0.0,0.0,0.0,0.0,0.0,0.0,0.0,0.0,0.0,0.0,0.0,0.0,0.0,0.0,0.0,0.0,0.0,0.0,0.0,0.0,-0.8951,0.0,0.0,0.0,0.0,0.0,0.0,0.0,0.0,0.0,-1.2252,-1.4095,-1.5855,-1.6972,-1.8557,-1.9824,-2.042,0.0,0.0,0.0,0.0,0.0,0.0,0.0,-1.9172,-2.0413,-2.0411,-2.0392,-2.0723,-2.1273,-2.1586,-2.1257,0.0,0.0,-1.9838,-1.8656,-1.7743,-1.7182,-1.667,-1.6474,-1.7089,-1.7656,-1.8397,0.0,0.0,0.0,0.0,0.0,0.0,0.0,0.0,-0.8646,-0.889,0.0,-0.9021,0.0,0.0,0.0,0.0,0.0,0.0,0.0,0.0,-1.3869,-1.4439,-1.4938,-1.4979,-1.5244,-1.5765,-1.5768,-1.5866,-1.5902,-1.3826,0.0,0.0,0.0,0.0,0.0,0.0,-1.0545,-1.1522,-1.2055,-1.2954,-1.4227,-1.4483,-1.4211,-1.3438,-1.1536,-1.0128,-0.938,-0.9052,-0.9021,-0.9292,-0.8809,0.0,0.0,0.0,0.0,0.0,0.0,0.0,0.0,0.0,0.0,0.0,0.0,0.0,0.0,0.0,0.0,0.0,0.0,0.0,0.0,-0.9017,0.0,0.0,0.0,0.0,0.0,0.0,0.0,0.0,0.0,0.0,-1.4759,-1.6134,-1.7697,-1.9247,0.0,0.0,0.0,0.0,-2.3079,-2.2271,-2.2858,-2.311,-2.236,-2.1662,-2.1796,-2.3537,0.0,0.0,-2.4152,-2.4229,-2.3912,-2.3176,-2.2978,-2.2876,-2.284,-2.1425,-2.0354,-2.0237,-1.9025,-1.8698,-2.0098,-2.0332,-2.0957,-1.2771,0.0,0.0,0.0,0.0,-1.102,-1.0909,-1.0733,-1.0714,-1.1004,-1.1402,-1.0839,0.0,0.0,0.0,0.0,0.0,0.0,-1.377,-1.4437,-1.4978,-1.5517,-1.604,-1.6503,-1.6941,-1.7488,-1.7488,-1.7332,-1.7048,-1.6578,-1.502,-1.2475,0.0,0.0,0.0,0.0,-1.1307,-1.2277,-1.2358,-1.2807,-1.3702,-1.3967,-1.3802,-1.3138,-1.1648,-1.0649,-1.031,-1.0033,-0.9817,-0.9723,-0.9306,0.0,0.0,0.0,0.0,0.0,0.0,0.0,0.0,0.0,0.0,0.0,0.0,0.0,0.0,0.0,0.0,0.0,0.0,0.0,-0.8787,-0.9694,-1.0236,0.0,0.0,0.0,0.0,0.0,0.0,0.0,0.0,0.0,-1.7646,-1.8831,-1.989,0.0,0.0,-2.3548,-2.3566,-2.4266,-2.4505,-2.3721,0.0,0.0,0.0,-2.3509,-2.3814,-2.5088,-2.5836,-2.678,-2.8313,-2.7103,-2.5813,-2.5544,-2.5014,-2.4582,-2.4466,-2.2758,-2.1159,-2.0518,-2.0048,-1.9947,-2.0488,-2.1074,-2.1855,-1.5175,-1.4026,-1.351,-1.3139,-1.299,-1.2971,-1.2843,-1.2573,-1.2413,-1.2599,-1.3016,-1.2355,-1.2173,-1.2419,-1.2924,0.0,0.0,0.0,-1.5329,-1.591,-1.6428,-1.6963,-1.7518,-1.8343,-1.8758,-1.8844,-1.8832,-1.8568,-1.8062,-1.7987,-1.6871,-1.4769,0.0,0.0,-1.1939,-1.1603,-1.1796,-1.2564,-1.2468,-1.2746,-1.3433,-1.3648,-1.3494,-1.2922,-1.1855,-1.1089,-1.0721,-1.0428,-1.0246,-1.0208,-0.9828,-0.9629,0.0,0.0,0.0,0.0,0.0,0.0,0.0,0.0,0.0,0.0,0.0,-0.4635,0.0,0.0,0.0,0.0,-0.6995,-0.8147,-0.9435,-1.0581,0.0,0.0,0.0,0.0,0.0,0.0,0.0,-1.4503,-1.5544,-1.7209,-1.9837,-2.1477,-2.2538,-2.2721,-2.4135,-2.5162,-2.5162,0.0,-2.5698,-2.5226,-2.5554,-2.5724,-2.5332,-2.5529,-2.6284,-2.7775,-2.8631,-2.9174,-2.9636,-2.8313,-2.6928,-2.6236,-2.5649,-2.5313,-2.5313,-2.3801,-2.2346,-2.1578,-2.1439,-2.1508,-2.1558,-2.2266,-2.3144,-1.6957,-1.6608,-1.5593,-1.5098,-1.4974,-1.4803,-1.4556,-1.4258,-1.3877,-1.3926,-1.4219,-1.363,-1.3498,-1.37,-1.4418,0.0,0.0,-1.6448,-1.6929,-1.7458,-1.8058,-1.8561,-1.912,-2.0192,-2.0457,-1.9861,-1.9874,-1.9597,-1.9021,-1.8581,-1.8053,-1.7463,-1.5776,-1.4297,-1.3071,-1.2458,-1.2327,-1.269,-1.2663,-1.2922,-1.3518,-1.3548,-1.3367,-1.2929,-1.213,-1.1412,-1.0809,-1.0401,-1.0339,-1.0643,-1.0285,-1.0256,-1.0596,0.0,0.0,0.0,0.0,0.0,0.0,0.0,0.0,0.0,0.0,0.0,0.0,0.0,0.0,0.0,-0.8214,0.0,-1.0203,-1.1624,0.0,0.0,0.0,-1.3897,-1.3867,-1.4611,-1.5163,-1.5331,0.0,0.0,0.0,0.0,-2.5293,-2.4649,-2.586,-2.6796,-2.6796,-2.6741,-2.6722,-2.6759,-2.6722,-2.675,-2.6886,-2.7684,-2.8947,-3.082,-3.1454,-3.0901,-2.9548,-2.8467,-2.7274,-2.5832,-2.536,-2.5351,-2.538,-2.4726,-2.3983,-2.3218,-2.2985,-2.2972,-2.3142,-2.3726,-2.4492,-1.7713,-1.7652,-1.7412,-1.6697,-1.5735,-1.5876,-1.5782,-1.5655,-1.5498,-1.5518,-1.5566,-1.5209,-1.5315,-1.5878,-1.6188,-1.6642,-1.722,-1.7763,-1.7955,-1.7909,-1.8911,-1.9452,-1.966,-2.0786,-2.1024,-2.0489,-2.0464,-2.0175,-1.9635,-1.9497,-1.9158,-1.8581,-1.7397,-1.6185,-1.5043,-1.4474,-1.4222,-1.4311,-1.4324,-1.4387,-1.4538,-1.4183,-1.3892,-1.3788,-1.238,-1.1555,-1.1374,-1.0564,-1.0237,-1.0445,-1.0076,-1.0072,-1.0426,-0.9308,0.0,0.0,0.0,0.0,0.0,0.0,0.0,0.0,0.0,-0.612,-0.6328,0.0,-0.7575,0.0,-0.9721,-1.089,-1.1712,-1.2658,0.0,0.0,-1.4929,-1.5447,-1.5464,-1.5634,-1.626,-1.7538,-1.8441,-2.0029,-2.291,-2.504,-2.6704,-2.7691,-2.8168,-2.8425,-2.8407,-2.7879,-2.775,-2.8227,-2.7879,-2.7746,-2.8439,-2.9843,-3.1318,-3.2637,-3.2519,-3.1745,-3.0316,-2.8871,-2.7525,-2.6505,-2.5726,-2.5591,-2.6178,-2.5601,-2.5024,-2.4697,-2.3775,-2.3168,-2.3856,-2.4252,-2.4679,-1.8008,-1.8008,-1.8008,-1.7701,-1.7119,-1.7105,-1.6998,-1.6914,-1.6792,-1.665,-1.6631,-1.6253,-1.6367,-1.6873,-1.7184,-1.7622,-1.8191,-1.888,-1.9218,-1.9224,-2.0115,-2.0552,-2.0589,-2.1425,-2.1469,-2.0731,-2.0718,-2.0303,-1.9484,-1.9459,-1.9196,-1.8607,-1.8041,-1.7313,-1.6446,-1.5404,-1.4903,-1.4903,-1.4903,-1.5029,-1.5243,-1.45,-1.4085,-1.4047,-1.2486,-1.1588,-1.1588,-1.0628,-1.0187,-1.0373,-1.0326,-1.0449,-1.08,-1.0006,-0.9496,0.0,0.0,0.0,0.0,0.0,0.0,0.0,0.0,0.0,0.0,0.0,-0.9304,0.0,0.0,0.0,-1.3684,-1.4737,-1.559,-1.6038,-1.7107,-1.776,-1.7778,-1.748,-1.7811,-1.9188,-1.9637,-2.0954,-2.3912,-2.595,-2.7732,-2.9329,-2.9843,-2.9953,-2.9586,-2.9145,-2.8929,-2.8979,-2.8621,-2.876,-2.9879,-3.1325,-3.2672,-3.3552,-3.3091,-3.2105,-3.104,-2.9529,-2.8168,-2.7351,-2.6774,-2.6601,-2.7044,-2.6832,-2.6467,-2.6342,-2.5763,-2.5116,-2.4833,-2.5157,-2.573,-1.8164,-1.8174,-1.8174,-1.8389,-1.8691,-1.833,-1.8184,-1.8154,-1.7783,-1.7627,-1.7607,-1.7227,-1.716,-1.742,-1.7821,-1.8277,-1.8736,-1.9644,-2.026,-2.0544,-2.1085,-2.1427,-2.1519,-2.2083,-2.1857,-2.0903,-2.0803,-2.025,-1.9258,-1.9108,-1.8882,-1.8417,-1.8267,-1.7965,-1.7438,-1.5923,-1.5167,-1.523,-1.5306,-1.5492,-1.5894,-1.4941,-1.4337,-1.4148,-1.2587,-1.1663,-1.1563,-1.064,-1.0238,-1.053,-1.0762,-1.1061,-1.1462,-1.0994,-1.049,0.0,-1.0013,0.0,0.0,0.0,0.0,0.0,0.0,0.0,0.0,-1.0229,-1.1287,-1.3498,-1.4258,-1.4986,-1.5815,-1.705,-1.7873,-1.8099,-1.9218,-1.9987,-1.997,-1.943,-1.9435,-2.0418,-2.097,-2.2273,-2.4823,-2.685,-2.8677,-3.0253,-3.1187,-3.1396,-3.0644,-3.0301,-2.9913,-2.9354,-2.9333,-2.9898,-3.1207,-3.2256,-3.3157,-3.3914,-3.3183,-3.2138,-3.1322,-3.0005,-2.8825,-2.8206,-2.8005,-2.8063,-2.8179,-2.8159,-2.8044,-2.7967,-2.7776,-2.7248,-2.6197,-2.6351,-2.7164,-1.9043,-1.9043,-1.9053,-1.9092,-1.916,-1.9072,-1.9053,-1.9033,-1.8955,-1.8926,-1.8926,-1.8838,-1.8744,-1.8626,-1.8937,-1.8744,-1.8272,-1.9074,-1.9437,-1.9409,-2.0379,-2.1026,-2.1602,-2.2283,-2.2315,-2.1836,-2.15,-2.0991,-2.0404,-1.9874,-1.961,-1.9472,-1.8631,-1.8154,0.0,0.0,0.0,0.0,-1.7338,-1.7413,-1.7061,-1.6396,-1.563,-1.4752,-1.3119,0.0,-1.1618,-1.064,-1.0431,-1.115,-1.0952,0.0,0.0,0.0,0.0,0.0,0.0,0.0,0.0,0.0,0.0,0.0,-1.4384,-1.3759,-1.2218,-1.2895,-1.3892,-1.4992,-1.5269,-1.595,-1.7253,-1.7603,-1.8285,-1.9427,-1.9857,-1.9983,-2.0,-1.9889,-2.0157,-2.1184,-2.2104,-2.3656,-2.6124,-2.8196,-3.0013,-3.1538,-3.2639,-3.2839,-3.2143,-3.1004,-3.0446,-3.0826,-3.0857,-3.1256,-3.2228,-3.2631,-3.2982,-3.3138,-3.2702,-3.175,-3.0658,-2.9721,-2.9046,-2.8906,-2.8871,-2.9159,-2.9775,-2.9371,-2.8986,-2.8909,-2.842,-2.7806,-2.7499,-2.7593,-2.7829,-1.9277,0.0,-1.9277,-1.9404,0.0,0.0,-1.9717,-1.9883,-1.9473,-1.9277,-1.9277,-1.9277,-1.9115,-1.8754,-1.8686,-1.8445,-1.8009,-1.8261,-1.8519,-1.8834,-1.9621,-2.0381,-2.1056,-2.1934,-2.2175,-2.1842,-2.1587,-2.1192,-2.0731,-2.0429,-1.9962,-1.9409,-1.8869,-1.8342,-1.7802,-1.7513,-1.7501,-1.7777,-1.8066,-1.8204,-1.8154,-1.7099,-1.6258,-1.5655,0.0,0.0,0.0,0.0,0.0,0.0,0.0,0.0,0.0,0.0,0.0,-1.132,-1.2239,-1.3077,-1.3775,-1.4977,-1.6143,-1.7121,-1.7364,-1.6598,-1.4695,-1.5315,-1.6127,-1.6948,-1.7485,-1.8082,-1.8802,-1.9232,-1.9756,-2.05,-2.0914,-2.1133,-2.1133,-2.1139,-2.1491,-2.2377,-2.3106,-2.4441,-2.688,-2.8447,-3.0066,-3.1708,-3.2803,-3.331,-3.2958,-3.207,-3.1464,-3.1452,-3.1776,-3.2122,-3.2559,-3.3059,-3.337,-3.3443,-3.3015,-3.2406,-3.1839,-3.1137,-3.0739,-3.0861,-3.095,-3.1155,-3.1468,-3.1256,-3.0968,-3.0948,-3.066,-3.021,-2.985,-2.9138,-2.8685,-1.9512,-1.9512,-1.9512,-1.9717,-2.0029,-2.0029,-2.0234,-2.0595,0.0,0.0,0.0,-1.9512,-1.9277,-1.8767,-1.8428,-1.8142,-1.7926,-1.7667,-1.7843,-1.852,-1.9039,-1.9733,-2.0492,-2.1384,-2.1764,-2.156,-2.1494,-2.1225,-2.0789,-2.069,-2.0142,-1.9245,-1.9121,-1.852,-1.7513,-1.784,-1.8066,-1.8091,-1.8355,-1.8656,-1.8933,-1.7677,-1.6779,-1.6534,-1.4638,-1.3286,-1.2567,-1.174,-1.1388,-1.1586,-1.1348,-1.1615,-1.2538,-1.2808,-1.2789,-1.2605,-1.4274,-1.5739,-1.6623,-1.776,-1.8944,-2.0146,-1.9771,-1.8742,-1.7051,-1.7323,-1.7914,-1.8658,-1.9588,-2.0212,-2.0381,-2.1126,-2.1566,-2.161,-2.2135,-2.2474,-2.2474,-2.2491,-2.2806,-2.3603,-2.4065,-2.505,-2.7135,-2.8473,-2.9726,-3.1275,-3.2499,-3.3243,-3.3429,-3.3076,-3.2559,-3.2118,-3.247,-3.2828,-3.29,-3.3364,-3.3902,-3.3931,-3.343,-3.3209,-3.3424,-3.3091,-3.2906,-3.3345,-3.3475,-3.3569,-3.357,-3.3603,-3.3526,-3.3391,-3.3199,-3.2949,-3.2199,-3.0775,-2.9806,-2.0381,-2.0391,-2.0468,-2.042,-2.0469,-2.0469,-2.0508,-2.0634,-2.0507,-2.0381,-2.0391,-2.0381,-2.0146,-1.9707,-1.9297,-1.8803,-1.814,-1.8015,-1.8078,0.0,-1.9186,-1.973,-2.0169,-2.1133,-2.1504,-2.1448,-2.138,-2.1283,-2.1162,-2.0752,-2.0278,-1.986,-1.9478,-1.8647,-1.7489,-1.7455,-1.7493,-1.756,-1.887,-1.9397,-1.8983,-1.8794,-1.7919,-1.6572,-1.5768,-1.4638,-1.3157,-1.2628,-1.2498,-1.2741,-1.2455,-1.2744,-1.3756,-1.4021,-1.4475,-1.5231,-1.6533,-1.8104,-1.9869,-2.0722,-2.1479,-2.2134,-2.1665,-2.0436,-1.8376,-1.8524,-1.8884,-1.9208,-2.0202,-2.1072,-2.1827,-2.2603,-2.3038,-2.3083,-2.3164,-2.3266,-2.3266,-2.3289,-2.3592,-2.438,-2.5213,-2.6029,-2.723,-2.8612,-2.9887,-3.1144,-3.217,-3.3118,-3.3633,-3.3688,-3.3605,-3.3476,-3.355,-3.3642,-3.3568,-3.3697,-3.3834,-3.3815,-3.332,-3.3252,-3.4018,-3.3736,-3.3941,-3.5453,-3.5706,-3.5895,-3.6017,-3.6161,-3.5795,-3.5243,-3.4622,-3.4045,-3.3757,-3.2391,-3.1102,-2.0576,-2.0576,-2.0576,-2.0576,-2.0576,-2.0576,-2.0576,-2.0576,-2.0576,-2.0576,-2.0576,-2.0576,-2.0332,-1.9902,-1.9473,-1.9017,-1.837,-1.7912,-1.7875,-1.8213,-1.8518,-1.8988,-1.9603,-2.029,-2.0753,-2.0917,-2.0894,-2.0904,-2.0869,-2.0661,-2.0435,-2.0111,-1.9251,-1.8302,-1.7476,-1.738,-1.7415,-1.7435,-1.8679,-1.9258,-1.9045,-1.9032,-1.8656,-1.7877,-1.6773,-1.5505,-1.4161,-1.3383,-1.2979,-1.2891,-1.2551,-1.2794,-1.3824,-1.4428,-1.5169,-1.6128,-1.7766,-1.9489,-2.1141,-2.2542,-2.3228,-2.3206,-2.3253,-2.2574,-2.0898,-2.0118,-2.0147,-2.1119,-2.1655,-2.2252,-2.314,-2.3691,-2.3985,-2.3985,-2.3984,-2.4018,-2.4059,-2.4394,-2.4738,-2.5096,-2.5528,-2.6247,-2.7435,-2.7911,-2.8714,-3.0103,-3.1434,-3.2834,-3.4183,-3.4064,-3.3807,-3.3807,-3.3807,-3.3807,-3.3807,-3.3807,-3.3807,-3.3807,-3.3592,-3.3788,-3.4587,-3.4619,-3.5246,-3.648,-3.6958,-3.7101,-3.7268,-3.7314,-3.7171,-3.6969,-3.6161,-3.5526,-3.4872,-3.3237,-3.1525,-2.0576,-2.0576,-2.0576,-2.0576,-2.0576,-2.0576,-2.0576,-2.0576,-2.0576,-2.0576,-2.0576,-2.0576,-2.0371,-2.0039,-1.9619,-1.9248,-1.8848,-1.8154,-1.7988,-1.8311,-1.8382,-1.8716,-1.9313,-1.9706,-2.0054,-2.029,-2.0391,-2.0344,-2.0344,-2.0344,-2.0288,-1.9958,-1.8896,-1.8018,-1.7513,-1.7385,-1.7276,-1.7273,-1.8168,-1.8781,-1.897,-1.9032,-1.9032,-1.8883,-1.7652,-1.6384,-1.5279,-1.436,-1.368,-1.3295,-1.2992,-1.3243,-1.406,-1.4952,-1.5984,-1.7246,-1.8963,-2.0659,-2.2252,-2.403,-2.4758,-2.4104,-2.465,-2.4576,-2.3486,-2.2093,-2.1641,-2.2654,-2.291,-2.3391,-2.4133,-2.4693,-2.4884,-2.4763,-2.4709,-2.4751,-2.4809,-2.5251,-2.5681,-2.5765,-2.5722,-2.6038,-2.6877,-2.6962,-2.7691,-2.9726,-3.1062,-3.2624,-3.4402,-3.4284,-3.3881,-3.3982,-3.3935,-3.3678,-3.3623,-3.3715,-3.3697,-3.3605,-3.3732,-3.4281,-3.5132,-3.5676,-3.6328,-3.7374,-3.7875,-3.8118,-3.8284,-3.8424,-3.8508,-3.8473,-3.7873,-3.6911,-3.5584,-3.3872,-3.2006,-2.0576,-2.0576,-2.0576,-2.0576,-2.0576,-2.0576,-2.0576,-2.0576,-2.0576,-2.0576,-2.0576,-2.0576,-2.0547,-2.0449,-2.0039,-1.9814,-1.9736,-1.9316,-1.9131,-1.9199,-1.9584,-1.9677,-1.962,-1.9899,-1.9952,-1.9775,-1.9684,-1.966,-1.966,-1.966,-1.9585,-1.9369,-1.873,-1.8195,-1.776,-1.7371,-1.7023,-1.6627,-1.7244,-1.8016,-1.897,-1.9032,-1.9032,-1.897,-1.8405,-1.7526,-1.6371,-1.5772,-1.5223,-1.4803,-1.4714,-1.4954,-1.5362,-1.6312,-1.7674,-1.9382,-2.0513,-2.1978,-2.4104,-2.5605,-2.6059,-2.5555,-2.5972,-2.6056,-2.536,-2.4627,-2.3682,-2.3111,-2.3601,-2.4304,-2.4753,-2.5594,-2.5916,-2.5445,-2.5445,-2.5493,-2.5493,-2.5559,-2.5866,-2.6539,-2.5839,-2.5678,-2.5844,-2.6285,-2.7775,-3.0241,-3.1083,-3.2403,-3.4422,-3.4207,-3.4089,-3.4531,-3.4312,-3.3532,-3.3054,-3.3366,-3.3458,-3.3018,-3.3385,-3.4421,-3.5598,-3.6353,-3.6904,-3.8189,-3.9008,-3.9252,-3.9603,-3.9985,-3.9996,-3.9769,-3.92,-3.8277,-3.6161,-3.4641,-3.3391,-2.0576,-2.0576,-2.0576,-2.0576,-2.0576,-2.0576,-2.0576,-2.0576,-2.0576,-2.0576,-2.0576,-2.0576,-2.0576,-2.0634,-2.0371,-2.0293,-2.0283,-2.0117,-2.0049,-2.0049,-2.0262,-2.0252,-2.0151,-1.9785,-1.9606,-1.9434,-1.895,-1.8684,-1.8674,-1.8885,-1.8783,-1.8434,-1.8256,-1.8081,-1.7814,-1.7218,-1.6925,-1.702,-1.691,-1.7262,-1.8041,-1.8694,-1.9032,-1.8958,-1.8794,-1.8179,-1.7099,-1.6473,-1.5916,-1.5417,-1.5171,-1.5306,-1.5828,-1.6797,-1.8002,-1.9496,-2.1407,-2.2861,-2.3911,-2.5227,-2.5895,-2.5631,-2.6564,-2.6907,-2.6273,-2.5929,-2.5394,-2.4691,-2.4741,-2.5108,-2.5554,-2.6237,-2.6488,-2.6081,-2.6118,-2.6252,-2.6265,-2.5865,-2.5748,-2.5926,-2.5045,-2.4509,-2.498,-2.5688,-2.7154,-2.9216,-3.0268,-3.1898,-3.454,-3.4316,-3.4306,-3.5217,-3.4679,-3.355,-3.2816,-3.3256,-3.3348,-3.3073,-3.3697,-3.5018,-3.5983,-3.683,-3.7581,-3.885,-3.9216,-3.9551,-3.9778,-4.0041,-4.0177,-4.0204,-3.98,-3.8661,-3.6622,-3.5565,-3.4353,-2.0576,-2.0576,-2.0576,-2.0576,-2.0576,-2.0576,-2.0576,-2.0576,-2.0576,-2.0576,-2.0576,-2.0576,-2.0576,-2.0576,-2.0576,-2.0576,-2.0576,-2.0576,-2.0576,-2.0576,-2.0576,-2.0566,-2.0546,-1.9826,-1.9462,-1.9307,-1.8594,-1.8125,-1.8027,-1.8279,-1.8258,-1.7905,-1.7963,-1.7966,-1.779,-1.7187,-1.6971,-1.7099,-1.6785,-1.6754,-1.7185,-1.8182,-1.882,-1.8958,-1.9032,-1.8581,-1.7652,-1.7213,-1.6718,-1.6195,-1.5993,-1.6102,-1.6646,-1.7362,-1.8334,-1.9697,-2.183,-2.3319,-2.3644,-2.4889,-2.5693,-2.5948,-2.6946,-2.743,-2.6991,-2.6856,-2.6696,-2.6326,-2.6108,-2.6099,-2.5967,-2.6469,-2.6585,-2.627,-2.647,-2.6624,-2.6607,-2.6034,-2.5596,-2.548,-2.4424,-2.3691,-2.4391,-2.5173,-2.6333,-2.8501,-2.9645,-3.1243,-3.4078,-3.4183,-3.3982,-3.5535,-3.4614,-3.344,-3.2577,-3.3146,-3.3293,-3.3256,-3.3872,-3.5312,-3.6321,-3.7206,-3.7824,-3.8633,-3.9008,-3.9272,-3.9513,-3.9709,-4.0022,-4.0154,-3.9906,-3.9046,-3.7411,-3.6449,-3.5064,-2.0576,-2.0576,-2.0576,-2.0576,-2.0576,-2.0576,-2.0576,-2.0576,-2.0576,-2.0576,-2.0605,-2.0596,-2.0586,-2.0615,-2.0635,-2.0576,-2.0576,-2.0576,-2.0576,-2.0576,-2.0576,-2.0576,-2.0547,-2.0098,-1.9853,-1.9756,-1.8955,-1.8369,-1.8027,-1.8202,-1.8231,-1.7999,-1.804,-1.7938,-1.7667,-1.7455,-1.7166,-1.6773,-1.6706,-1.663,-1.6458,-1.7458,-1.8348,-1.887,-1.9045,-1.8769,-1.8201,-1.8137,-1.7844,-1.7332,-1.7666,-1.7994,-1.8094,-1.8325,-1.9127,-2.0575,-2.1974,-2.3163,-2.4053,-2.5061,-2.5847,-2.6474,-2.7156,-2.7545,-2.7455,-2.7425,-2.743,-2.7475,-2.7345,-2.6927,-2.5967,-2.6218,-2.6299,-2.5959,-2.6232,-2.6438,-2.6573,-2.6017,-2.5639,-2.5362,-2.4265,-2.3743,-2.4354,-2.4584,-2.619,-2.8337,-2.9555,-3.081,-3.3042,-3.3418,-3.3641,-3.4324,-3.4137,-3.3193,-3.2012,-3.2826,-3.333,-3.322,-3.3954,-3.5495,-3.6633,-3.7617,-3.804,-3.8437,-3.877,-3.9027,-3.9163,-3.9432,-3.9835,-4.0082,-4.0334,-3.9531,-3.793,-3.7199,-3.5738,-2.0489,-2.0576,-2.0576,-2.0576,-2.0576,-2.0576,-2.0576,-2.0576,-2.0576,-2.0762,-2.0946,-2.1016,-2.1143,-2.1396,-2.1123,-2.084,-2.0586,-2.0576,-2.0576,-2.0576,-2.0576,-2.0576,-2.0518,-2.0117,-1.9912,-1.9785,-1.9053,-1.8418,-1.8047,-1.8076,-1.7917,-1.7625,-1.7569,-1.7457,-1.7313,-1.6896,-1.6669,-1.6744,-1.6646,-1.6456,-1.6392,-1.7181,-1.7957,-1.847,-1.9171,-1.9108,-1.8229,-1.8512,-1.8469,-1.7915,-1.8105,-1.8351,-1.8707,-1.9341,-2.0221,-2.1417,-2.2643,-2.3645,-2.4312,-2.5373,-2.6121,-2.6494,-2.7151,-2.7625,-2.756,-2.756,-2.756,-2.7575,-2.7575,-2.7173,-2.661,-2.6388,-2.6125,-2.5603,-2.5845,-2.6201,-2.627,-2.5933,-2.5424,-2.4878,-2.3984,-2.3566,-2.3981,-2.4625,-2.6046,-2.7913,-2.8596,-2.9937,-3.1794,-3.2239,-3.2491,-3.346,-3.3688,-3.324,-3.2399,-3.3038,-3.3642,-3.3421,-3.3899,-3.5202,-3.6395,-3.7257,-3.7783,-3.8352,-3.8681,-3.8892,-3.9073,-3.9457,-3.9835,-4.0101,-4.0356,-3.9815,-3.8315,-3.7623,-3.5949,-2.0498,-2.0566,-2.0576,-2.0576,-2.0576,-2.0576,-2.0576,-2.0576,-2.0576,-2.079,-2.1118,-2.1199,-2.1475,-2.1768,-2.1435,-2.1084,-2.0781,-2.0644,-2.0576,-2.0576,-2.0576,-2.0576,-2.0527,-2.0264,-2.0117,-2.0019,-1.9404,-1.8769,-1.8271,-1.8213,-1.7988,-1.7644,-1.7278,-1.7174,-1.7165,-1.6585,-1.6343,-1.6458,-1.649,-1.6478,-1.6549,-1.7278,-1.7959,-1.8496,-1.9334,-1.9296,-1.8267,-1.8702,-1.8727,-1.8329,-1.8497,-1.8971,-1.9547,-2.0131,-2.0914,-2.1839,-2.2734,-2.3647,-2.4366,-2.5355,-2.615,-2.6559,-2.7205,-2.7685,-2.7895,-2.7904,-2.7904,-2.7904,-2.7889,-2.764,-2.6898,-2.6579,-2.6116,-2.5478,-2.5584,-2.5903,-2.6083,-2.5748,-2.5208,-2.4637,-2.4147,-2.3913,-2.4171,-2.5017,-2.6218,-2.7587,-2.8117,-2.9333,-3.0888,-3.162,-3.1925,-3.2939,-3.3382,-3.3351,-3.303,-3.3505,-3.3844,-3.3678,-3.3972,-3.5147,-3.6138,-3.6945,-3.7624,-3.8193,-3.8596,-3.8807,-3.9091,-3.9476,-3.9797,-4.0081,-4.0187,-3.9931,-3.8873,-3.8046,-3.6103,-2.0566,-2.0566,-2.0576,-2.0596,-2.0625,-2.0644,-2.0596,-2.0673,-2.0722,-2.0996,-2.1335,-2.1257,-2.1621,-2.1807,-2.1533,-2.125,-2.1172,-2.0781,-2.0576,-2.0576,-2.0576,-2.0576,-2.0566,-2.0518,-2.0459,-2.042,-2.0068,-1.9424,-1.8543,-1.8484,-1.8369,-1.79,-1.7313,-1.7116,-1.7362,-1.6593,-1.6181,-1.6171,-1.6437,-1.6696,-1.6815,-1.7725,-1.8493,-1.9033,-1.9572,-1.9371,-1.838,-1.8828,-1.8904,-1.8505,-1.9296,-2.0075,-2.0514,-2.0756,-2.1104,-2.186,-2.2359,-2.3124,-2.4257,-2.5236,-2.6253,-2.6916,-2.7446,-2.8023,-2.8502,-2.8607,-2.8562,-2.8487,-2.8442,-2.8038,-2.6946,-2.6654,-2.6319,-2.5706,-2.5552,-2.56,-2.5785,-2.558,-2.5112,-2.4681,-2.4526,-2.4814,-2.5338,-2.5659,-2.6353,-2.752,-2.8369,-2.9157,-3.0312,-3.1219,-3.2214,-3.2654,-3.3069,-3.3323,-3.356,-3.3825,-3.388,-3.399,-3.4504,-3.5284,-3.6138,-3.6945,-3.7569,-3.8138,-3.8524,-3.8755,-3.9017,-3.9396,-3.9705,-3.9944,-4.0021,-3.988,-3.8819,-3.7666,-3.6103,-1.9784,-1.9951,-2.0098,-2.0349,-2.0827,-2.0936,-2.1174,-2.1477,-2.15,-2.1693,-2.2083,-2.2114,-2.2344,-2.249,-2.2012,-2.168,-2.1611,-2.0937,-2.0576,-2.0576,-2.0576,-2.0576,-2.0576,-2.0576,-2.04,-2.0137,-1.998,-1.9473,-1.8718,-1.8572,-1.8428,-1.792,-1.7223,-1.6841,-1.6865,-1.6138,-1.5604,-1.5692,-1.6539,-1.7099,-1.7382,-1.8398,-1.9341,-2.002,-1.9936,-1.9786,-1.9899,-2.0089,-1.9888,-1.9334,-2.0363,-2.1054,-2.1242,-2.1594,-2.1996,-2.242,-2.3444,-2.4326,-2.5192,-2.6396,-2.7316,-2.8031,-2.8586,-2.9041,-2.9235,-2.928,-2.9071,-2.8727,-2.8592,-2.8188,-2.7425,-2.6826,-2.6449,-2.5879,-2.5579,-2.5568,-2.5859,-2.5589,-2.5297,-2.5279,-2.5274,-2.5389,-2.5642,-2.5947,-2.6691,-2.7553,-2.813,-2.8659,-2.9445,-3.0638,-3.1027,-3.1147,-3.2122,-3.3369,-3.3671,-3.4183,-3.4614,-3.4724,-3.5128,-3.5422,-3.6193,-3.6945,-3.7551,-3.8083,-3.8469,-3.8755,-3.8998,-3.9279,-3.9566,-3.9878,-4.0081,-3.9404,-3.8297,-3.7113,-3.5878,-1.8727,-1.9073,-1.9381,-2.001,-2.07,-2.106,-2.149,-2.187,-2.1945,-2.2154,-2.2448,-2.2461,-2.2734,-2.29,-2.2266,-2.1904,-2.1787,-2.0967,-2.0576,-2.0576,-2.0576,-2.0576,-2.0576,-2.0576,-2.0449,-2.0215,-2.0156,-1.9795,-1.9131,-1.8945,-1.8662,-1.8164,-1.7227,-1.6728,-1.6587,-1.5869,-1.542,-1.5527,-1.6414,-1.7222,-1.7866,-1.8828,-1.9844,-2.0575,-2.0494,-2.0573,-2.0966,-2.1167,-2.0916,-2.0426,-2.1016,-2.1543,-2.1769,-2.1945,-2.2241,-2.2862,-2.356,-2.4408,-2.5388,-2.6668,-2.7869,-2.8453,-2.9171,-2.9719,-2.9864,-2.9924,-2.9699,-2.94,-2.934,-2.8936,-2.8098,-2.7634,-2.7135,-2.6585,-2.5773,-2.5563,-2.579,-2.573,-2.5765,-2.59,-2.5999,-2.5982,-2.6133,-2.6336,-2.6996,-2.7638,-2.8078,-2.8535,-2.9367,-3.0415,-3.0585,-3.101,-3.2139,-3.313,-3.3731,-3.4465,-3.5284,-3.555,-3.5789,-3.5917,-3.6285,-3.7,-3.7643,-3.823,-3.867,-3.8732,-3.895,-3.9146,-3.9402,-3.9728,-4.0003,-3.926,-3.8386,-3.7559,-3.6243,-1.7504,-1.8006,-1.8638,-1.9469,-2.027,-2.0895,-2.139,-2.1812,-2.1919,-2.2129,-2.2371,-2.2447,-2.2697,-2.2814,-2.2266,-2.1894,-2.1728,-2.0977,-2.0576,-2.0576,-2.0576,-2.0576,-2.0576,-2.0576,-2.0537,-2.0518,-2.0518,-2.0273,-1.9756,-1.9394,-1.9062,-1.8506,-1.7373,-1.6709,-1.6533,-1.584,-1.542,-1.5527,-1.6367,-1.7266,-1.7962,-1.9118,-2.0088,-2.0994,-2.1198,-2.1356,-2.165,-2.2033,-2.1845,-2.1108,-2.1443,-2.1945,-2.2171,-2.1857,-2.2209,-2.3012,-2.3138,-2.3879,-2.4988,-2.6485,-2.7626,-2.8311,-2.9243,-2.9911,-3.0451,-3.0567,-3.0477,-3.0298,-3.0313,-2.9909,-2.8921,-2.8592,-2.8218,-2.75,-2.6216,-2.5603,-2.5711,-2.6026,-2.6369,-2.6691,-2.6759,-2.681,-2.681,-2.6826,-2.7182,-2.7689,-2.8349,-2.8907,-2.9685,-3.0391,-3.1202,-3.1725,-3.208,-3.3184,-3.3907,-3.495,-3.5844,-3.6798,-3.6853,-3.6725,-3.6725,-3.7294,-3.7808,-3.8377,-3.8707,-3.878,-3.8862,-3.9064,-3.9261,-3.9556,-3.9491,-3.9128,-3.8586,-3.782,-3.6666,-1.6698,-1.7107,-1.7764,-1.8719,-1.9716,-2.0439,-2.109,-2.1682,-2.1677,-2.1761,-2.2124,-2.2387,-2.2524,-2.2775,-2.2172,-2.1894,-2.165,-2.0967,-2.0576,-2.0576,-2.0576,-2.0576,-2.0576,-2.0576,-2.0576,-2.0576,-2.0557,-2.0342,-1.9912,-1.9531,-1.9092,-1.8594,-1.7441,-1.6723,-1.6572,-1.5841,-1.5439,-1.5586,-1.6598,-1.7379,-1.8094,-1.9379,-2.0648,-2.1595,-2.1886,-2.2246,-2.2627,-2.2824,-2.2836,-2.256,-2.2611,-2.2689,-2.2849,-2.2698,-2.2736,-2.3075,-2.3514,-2.4037,-2.4948,-2.6479,-2.7767,-2.8626,-2.9725,-3.0762,-3.1068,-3.1198,-3.1001,-3.0672,-3.0492,-3.0208,-2.952,-2.9295,-2.8786,-2.773,-2.6714,-2.6107,-2.6174,-2.6508,-2.6966,-2.7461,-2.8007,-2.7977,-2.7588,-2.752,-2.7621,-2.7823,-2.8197,-2.8636,-2.9634,-3.0053,-3.0781,-3.0959,-3.1507,-3.2969,-3.4238,-3.531,-3.6486,-3.7826,-3.8046,-3.7771,-3.7734,-3.7881,-3.8285,-3.867,-3.8689,-3.875,-3.8822,-3.8942,-3.9192,-3.9395,-3.9528,-3.9391,-3.8916,-3.823,-3.7132,-1.5477,-1.5959,-1.6617,-1.744,-1.8447,-1.9158,-1.978,-2.0281,-2.0413,-2.0606,-2.0965,-2.1373,-2.1633,-2.1931,-2.1748,-2.1621,-2.1514,-2.0889,-2.0586,-2.0576,-2.0576,-2.0576,-2.0576,-2.0576,-2.0576,-2.0576,-2.0576,-2.043,-2.0156,-1.9766,-1.9326,-1.8809,-1.7812,-1.7056,-1.6624,-1.6068,-1.5576,-1.5625,-1.6407,-1.7175,-1.7853,-1.9071,-2.0303,-2.1307,-2.1776,-2.2211,-2.2702,-2.2848,-2.2982,-2.3065,-2.3125,-2.3125,-2.31,-2.284,-2.2899,-2.31,-2.3464,-2.3887,-2.4764,-2.6356,-2.7601,-2.8497,-2.986,-3.0689,-3.1087,-3.1351,-3.1285,-3.1031,-3.0956,-3.0612,-3.0073,-2.9744,-2.9275,-2.8606,-2.7932,-2.7303,-2.676,-2.7097,-2.7661,-2.8206,-2.8622,-2.8704,-2.7924,-2.8112,-2.8281,-2.8416,-2.8772,-2.9313,-2.9956,-3.007,-3.0326,-3.0682,-3.1668,-3.3286,-3.4619,-3.5747,-3.6861,-3.82,-3.856,-3.8414,-3.8377,-3.834,-3.8505,-3.8689,-3.8689,-3.8719,-3.8792,-3.8862,-3.9007,-3.9245,-3.9566,-3.9534,-3.9033,-3.8651,-3.7502,-1.4328,-1.4734,-1.5379,-1.6149,-1.6961,-1.7568,-1.8214,-1.8418,-1.8622,-1.8843,-1.9316,-1.9835,-2.0434,-2.0745,-2.0952,-2.1009,-2.0989,-2.0545,-2.0459,-2.0323,-2.0323,-2.0313,-2.0323,-2.0566,-2.0566,-2.0576,-2.0576,-2.0557,-2.0391,-2.0078,-1.9727,-1.918,-1.8418,-1.7566,-1.6878,-1.6333,-1.583,-1.5557,-1.5999,-1.6627,-1.7338,-1.8291,-1.9403,-2.04,-2.1101,-2.1577,-2.2149,-2.2482,-2.2714,-2.3017,-2.309,-2.3138,-2.3075,-2.2648,-2.2673,-2.3025,-2.3201,-2.3536,-2.4372,-2.5746,-2.6894,-2.7714,-2.904,-3.0201,-3.0456,-3.0893,-3.127,-3.1165,-3.145,-3.1093,-3.0702,-3.0088,-2.9681,-2.9371,-2.9266,-2.8653,-2.7939,-2.7932,-2.8494,-2.9093,-2.9265,-2.8837,-2.8433,-2.8535,-2.9059,-2.8687,-2.9059,-2.9499,-2.9942,-3.0112,-3.0441,-3.0837,-3.2148,-3.3821,-3.5024,-3.617,-3.7284,-3.842,-3.8615,-3.8597,-3.8597,-3.8597,-3.8634,-3.8707,-3.8707,-3.8707,-3.8719,-3.881,-3.8881,-3.911,-3.947,-3.935,-3.9107,-3.8829,-3.8046,-1.4243,-1.4482,-1.4992,-1.5592,-1.6204,-1.6738,-1.7126,-1.7476,-1.7501,-1.7642,-1.8236,-1.8897,-1.9425,-1.9858,-2.0044,-2.0242,-2.0158,-1.9724,-1.9539,-1.9608,-1.9571,-1.958,-1.9687,-2.0098,-2.0489,-2.0489,-2.0576,-2.0566,-2.0459,-2.0176,-1.9873,-1.9639,-1.8672,-1.7734,-1.7223,-1.6478,-1.585,-1.5557,-1.59,-1.6196,-1.6574,-1.7559,-1.8466,-1.9308,-2.0231,-2.0921,-2.1353,-2.1832,-2.2213,-2.2567,-2.2896,-2.3053,-2.304,-2.3,-2.2987,-2.3062,-2.3125,-2.3261,-2.3742,-2.4706,-2.5546,-2.6356,-2.7684,-2.8684,-2.9173,-3.014,-3.063,-3.0821,-3.1195,-3.1287,-3.121,-3.0687,-3.0113,-2.9702,-2.9372,-2.9109,-2.8873,-2.9259,-2.9838,-3.0393,-3.0555,-3.0209,-2.8991,-2.9431,-2.9567,-2.9161,-2.9296,-2.9617,-2.9926,-3.0234,-3.0577,-3.1042,-3.2178,-3.3773,-3.5255,-3.6417,-3.7631,-3.8425,-3.8585,-3.8707,-3.8707,-3.8707,-3.8707,-3.8707,-3.8707,-3.8707,-3.8707,-3.8738,-3.881,-3.9082,-3.9371,-3.9456,-3.9392,-3.9078,-3.8969,-1.4166,-1.4243,-1.458,-1.4846,-1.5149,-1.5333,-1.5589,-1.5712,-1.5734,-1.5974,-1.6454,-1.7091,-1.766,-1.8163,-1.8555,-1.8705,-1.867,-1.8512,-1.8399,-1.8364,-1.8356,-1.8347,-1.8416,-1.886,-1.9277,-1.9872,-2.0098,-2.0177,-2.0178,-2.0101,-2.0051,-1.9883,-1.9004,-1.8184,-1.7432,-1.6699,-1.6064,-1.5547,-1.5625,-1.584,-1.6204,-1.6994,-1.7975,-1.8749,-1.9706,-2.0291,-2.0666,-2.1164,-2.1592,-2.2051,-2.2592,-2.2955,-2.3065,-2.3125,-2.3125,-2.3125,-2.3125,-2.3138,-2.3444,-2.3994,-2.4732,-2.5342,-2.6744,-2.7723,-2.8511,-2.9451,-3.0152,-3.0477,-3.0836,-3.112,-3.1377,-3.0911,-3.0272,-2.9689,-2.9268,-2.9056,-2.9011,-2.9563,-3.0292,-3.0841,-3.0977,-3.0509,-3.0137,-3.0209,-3.0159,-2.9803,-3.0209,-3.0514,-3.0548,-3.0806,-3.09,-3.1391,-3.2315,-3.3617,-3.5267,-3.6653,-3.7961,-3.8511,-3.867,-3.8707,-3.8707,-3.8707,-3.8707,-3.8707,-3.8707,-3.8707,-3.8707,-3.8738,-3.881,-3.9055,-3.9345,-3.9664,-3.9811,-3.9693,-3.973,-1.4088,-1.4088,-1.4088,-1.4088,-1.4088,-1.4179,-1.4193,-1.4193,-1.4088,-1.4544,-1.4713,-1.5372,-1.6058,-1.6394,-1.6984,-1.7115,-1.7188,-1.7188,-1.718,-1.7236,-1.7194,-1.7218,-1.7269,-1.7392,-1.7736,-1.8763,-1.9143,-1.9381,-1.9775,-1.9991,-2.0043,-1.9905,-1.9492,-1.8613,-1.7637,-1.6943,-1.6269,-1.5547,-1.5459,-1.5586,-1.5988,-1.6572,-1.7503,-1.8451,-1.9079,-1.9452,-1.9791,-2.0346,-2.0896,-2.1439,-2.2152,-2.2664,-2.2932,-2.3078,-2.3125,-2.3125,-2.3125,-2.3138,-2.3201,-2.3601,-2.4172,-2.4857,-2.5999,-2.712,-2.7912,-2.8946,-2.9788,-3.0317,-3.069,-3.1031,-3.1347,-3.0911,-3.0248,-2.9657,-2.9167,-2.8703,-2.8565,-2.9003,-2.9459,-3.0375,-3.0494,-3.0174,-3.0319,-3.0497,-3.0497,-3.0598,-3.1055,-3.1326,-3.1326,-3.1173,-3.1184,-3.1368,-3.2162,-3.3583,-3.5218,-3.6159,-3.7571,-3.8016,-3.8267,-3.845,-3.8505,-3.8652,-3.8652,-3.8689,-3.8707,-3.8707,-3.8707,-3.8707,-3.8822,-3.9055,-3.9313,-3.9637,-3.9943,-4.025,-4.0315,-1.4088,-1.4088,-1.4088,-1.4088,-1.4088,-1.4088,-1.4088,-1.4088,-1.4088,-1.4243,-1.4475,-1.4985,-1.5318,-1.5643,-1.6049,-1.6304,-1.6214,-1.6214,-1.6214,-1.6214,-1.6234,-1.6265,-1.6229,-1.6202,-1.6459,-1.6836,-1.7594,-1.8479,-1.9125,-1.9511,-2.0022,-2.0206,-1.9658,-1.8769,-1.79,-1.7129,-1.6299,-1.5547,-1.542,-1.5488,-1.5644,-1.6154,-1.6806,-1.782,-1.8235,-1.8586,-1.8906,-1.9323,-1.9865,-2.0613,-2.1549,-2.214,-2.2555,-2.2896,-2.3078,-2.3125,-2.3125,-2.3125,-2.3175,-2.3226,-2.3542,-2.4079,-2.4914,-2.5947,-2.7032,-2.8332,-2.9359,-3.0279,-3.0929,-3.1332,-3.1422,-3.0836,-3.0223,-2.9559,-2.8614,-2.7866,-2.7517,-2.7538,-2.8017,-2.9128,-2.9453,-3.0034,-3.0527,-3.1033,-3.1343,-3.1512,-3.1833,-3.1935,-3.185,-3.1495,-3.1067,-3.1375,-3.1824,-3.3475,-3.5234,-3.5846,-3.6732,-3.7044,-3.7367,-3.7845,-3.8028,-3.8432,-3.8579,-3.867,-3.8707,-3.8707,-3.8707,-3.8707,-3.8792,-3.8989,-3.9279,-3.9604,-3.9857,-4.012,-4.036,-1.4088,-1.4088,-1.4088,-1.4088,-1.4088,-1.4088,-1.4088,-1.4088,-1.4088,-1.4166,-1.4243,-1.4503,-1.4671,-1.4741,-1.4908,-1.5068,-1.5068,-1.5075,-1.5075,-1.5075,-1.5075,-1.5075,-1.5068,-1.5106,-1.507,-1.534,-1.6131,-1.7423,-1.855,-1.9195,-1.9844,-2.0198,-1.9707,-1.8857,-1.8008,-1.7148,-1.6289,-1.5615,-1.542,-1.542,-1.5488,-1.6016,-1.6748,-1.7285,-1.7764,-1.8114,-1.8434,-1.8816,-1.941,-2.0118,-2.1083,-2.1732,-2.231,-2.2775,-2.3125,-2.3125,-2.3125,-2.3125,-2.3125,-2.3125,-2.333,-2.376,-2.4279,-2.5121,-2.6342,-2.7569,-2.8961,-3.0179,-3.0991,-3.1467,-3.1452,-3.0627,-2.9789,-2.9056,-2.7987,-2.7063,-2.6581,-2.6355,-2.7031,-2.7978,-2.8715,-2.9724,-3.1053,-3.1577,-3.2073,-3.2401,-3.2662,-3.256,-3.2408,-3.1918,-3.1354,-3.1397,-3.1871,-3.2966,-3.4523,-3.5258,-3.5875,-3.6208,-3.6743,-3.7202,-3.7734,-3.8248,-3.8542,-3.8689,-3.8707,-3.8707,-3.8707,-3.8707,-3.881,-3.8939,-3.9146,-3.9396,-3.9698,-3.9958,-4.0215,-1.4088,-1.4088,-1.4088,-1.4088,-1.4088,-1.4088,-1.4088,-1.4088,-1.4088,-1.4088,-1.4088,-1.4088,-1.4173,-1.4088,-1.4173,-1.4173,-1.4088,-1.4173,-1.4166,-1.425,-1.4257,-1.4173,-1.4088,-1.4088,-1.4257,-1.451,-1.5159,-1.6281,-1.79,-1.8798,-1.9687,-2.0101,-1.9707,-1.8857,-1.8008,-1.7158,-1.6289,-1.5684,-1.542,-1.542,-1.5605,-1.6172,-1.6807,-1.7246,-1.7676,-1.7958,-1.8202,-1.8427,-1.8977,-1.9715,-2.0598,-2.1471,-2.2087,-2.2714,-2.3078,-2.3125,-2.3125,-2.3125,-2.3125,-2.3125,-2.3258,-2.3569,-2.3956,-2.4896,-2.627,-2.7712,-2.9039,-3.0398,-3.115,-3.139,-3.1135,-3.0283,-2.94,-2.8569,-2.749,-2.6451,-2.6195,-2.6108,-2.629,-2.7205,-2.8136,-2.9358,-3.0717,-3.2068,-3.2622,-3.328,-3.3525,-3.3136,-3.2916,-3.2391,-3.1907,-3.1666,-3.1918,-3.2616,-3.3624,-3.4452,-3.5048,-3.5561,-3.6289,-3.7,-3.7588,-3.8175,-3.8414,-3.867,-3.8707,-3.8707,-3.8707,-3.8707,-3.878,-3.8862,-3.899,-3.9216,-3.9513,-3.9832,-4.01,-1.4088,-1.4088,-1.4088,-1.4088,-1.4088,-1.4088,-1.4088,-1.4088,-1.4088,-1.4088,-1.4088,-1.4088,-1.4088,-1.4088,-1.4088,-1.4088,-1.4088,-1.4088,-1.4088,-1.4088,-1.4088,-1.4088,-1.4088,-1.4088,-1.4088,-1.4166,-1.4831,-1.5966,-1.7261,-1.8238,-1.9371,-2.0072,-1.9632,-1.8877,-1.8027,-1.7191,-1.6289,-1.5586,-1.543,-1.542,-1.5498,-1.5928,-1.6396,-1.6836,-1.7266,-1.7676,-1.8017,-1.8173,-1.8492,-1.9253,-2.0156,-2.098,-2.1694,-2.2567,-2.3005,-2.3125,-2.3125,-2.3125,-2.3125,-2.3125,-2.3138,-2.3378,-2.3708,-2.4813,-2.6494,-2.8601,-3.0178,-3.117,-3.1422,-3.124,-3.0746,-2.9983,-2.9295,-2.8495,-2.749,-2.684,-2.6475,-2.6419,-2.6564,-2.694,-2.803,-2.9159,-3.0412,-3.1862,-3.3165,-3.3869,-3.4269,-3.388,-3.3322,-3.2771,-3.2337,-3.1986,-3.1679,-3.228,-3.2891,-3.3669,-3.425,-3.483,-3.5864,-3.6762,-3.7239,-3.779,-3.8432,-3.8634,-3.8634,-3.867,-3.8707,-3.8719,-3.875,-3.8822,-3.8884,-3.9091,-3.9376,-3.9656,-3.9962,-1.4088,-1.4088,-1.4088,-1.4088,-1.4088,-1.4088,-1.4088,-1.4088,-1.4088,-1.4088,-1.4088,-1.4088,-1.4088,-1.4088,-1.4088,-1.4088,-1.4088,-1.4088,-1.4088,-1.4088,-1.4088,-1.4088,-1.4088,-1.4088,-1.4088,-1.425,-1.4664,-1.5311,-1.6527,-1.7594,-1.8736,-1.9565,-1.9127,-1.8571,-1.7973,-1.7301,-1.6534,-1.5977,-1.5576,-1.543,-1.5518,-1.583,-1.6269,-1.6709,-1.7148,-1.7568,-1.79,-1.8008,-1.8279,-1.8977,-1.9814,-2.0647,-2.1393,-2.2211,-2.2921,-2.2957,-2.3078,-2.3078,-2.3125,-2.3113,-2.3138,-2.3198,-2.356,-2.4484,-2.6739,-2.8941,-3.0673,-3.1394,-3.115,-3.0821,-3.0387,-2.9594,-2.9056,-2.836,-2.7586,-2.7348,-2.706,-2.7045,-2.7121,-2.7474,-2.7969,-2.9264,-3.0535,-3.1924,-3.3434,-3.4577,-3.4895,-3.4607,-3.3838,-3.2971,-3.257,-3.2236,-3.1871,-3.1737,-3.2336,-3.298,-3.3502,-3.4232,-3.5619,-3.6366,-3.678,-3.7312,-3.7991,-3.8285,-3.8175,-3.8303,-3.856,-3.8707,-3.8719,-3.875,-3.8792,-3.8989,-3.9219,-3.9519,-3.9859,-1.4088,-1.4088,-1.4088,-1.4088,-1.4088,-1.4088,-1.4088,-1.4088,-1.4088,-1.4088,-1.4088,-1.4088,-1.4088,-1.4088,-1.4088,-1.4088,-1.4088,-1.4088,-1.4088,-1.4088,-1.4088,-1.4088,-1.4088,-1.4088,-1.4088,-1.4088,-1.4405,-1.4977,-1.5718,-1.6617,-1.7594,-1.87,-1.8335,-1.8073,-1.7828,-1.7307,-1.6718,-1.6064,-1.5752,-1.5566,-1.5498,-1.5703,-1.6191,-1.6641,-1.707,-1.7471,-1.792,-1.8008,-1.8279,-1.8798,-1.9452,-2.0161,-2.0933,-2.1661,-2.2274,-2.2381,-2.2533,-2.2573,-2.2711,-2.2849,-2.3075,-2.3213,-2.3783,-2.4979,-2.7045,-2.9003,-3.0372,-3.1219,-3.1096,-3.0705,-3.0178,-2.937,-2.8846,-2.8368,-2.7829,-2.7679,-2.7545,-2.7405,-2.7405,-2.7645,-2.8381,-2.9699,-3.091,-3.2161,-3.3599,-3.515,-3.547,-3.525,-3.4346,-3.326,-3.2683,-3.2252,-3.1788,-3.1551,-3.1913,-3.2435,-3.288,-3.3623,-3.5057,-3.6017,-3.6413,-3.6927,-3.7551,-3.7698,-3.7643,-3.7863,-3.8083,-3.8414,-3.8707,-3.8719,-3.878,-3.8881,-3.9082,-3.9421,-3.9819,-1.4088,-1.4088,-1.4082,-1.4088,-1.4088,-1.4088,-1.4088,-1.4088,-1.4088,-1.4088,-1.4088,-1.4088,-1.4088,-1.4088,-1.4088,-1.4088,-1.4088,-1.4088,-1.4088,-1.4088,-1.4088,-1.4088,-1.4088,-1.4088,-1.4088,-1.4082,-1.4328,-1.4657,-1.5075,-1.5394,-1.637,-1.7268,-1.7274,-1.7491,-1.7521,-1.7245,-1.6855,-1.6369,-1.6074,-1.5811,-1.5615,-1.5664,-1.5977,-1.6602,-1.6846,-1.7148,-1.7939,-1.8008,-1.8144,-1.8559,-1.9101,-1.9669,-2.0386,-2.0931,-2.1379,-2.1739,-2.1795,-2.1856,-2.2038,-2.2636,-2.3075,-2.3536,-2.4387,-2.568,-2.7339,-2.8761,-2.9997,-3.0807,-3.085,-3.0562,-3.0063,-2.9445,-2.8771,-2.8293,-2.7874,-2.7664,-2.756,-2.756,-2.759,-2.784,-2.8682,-2.9897,-3.1214,-3.2427,-3.3748,-3.5268,-3.5571,-3.5351,-3.4452,-3.3448,-3.2739,-3.2181,-3.1596,-3.1475,-3.166,-3.2091,-3.2378,-3.3244,-3.4524,-3.5428,-3.6064,-3.6597,-3.6853,-3.7055,-3.7037,-3.7331,-3.7746,-3.8248,-3.8615,-3.867,-3.875,-3.8892,-3.9173,-3.959,-3.9964,-1.3155,-1.3215,-1.3222,-1.3568,-1.4088,-1.4088,-1.4088,-1.4088,-1.4088,-1.4088,-1.4088,-1.4088,-1.4088,-1.4088,-1.4088,-1.4088,-1.4088,-1.4088,-1.4088,-1.4088,-1.4088,-1.4088,-1.4088,-1.4088,-1.4088,-1.4082,-1.425,-1.425,-1.4412,-1.4664,-1.4741,-1.5381,-1.6204,-1.6797,-1.7054,-1.7316,-1.7194,-1.6946,-1.6471,-1.6064,-1.623,-1.5967,-1.623,-1.7041,-1.7129,-1.7422,-1.792,-1.7998,-1.8134,-1.8377,-1.8758,-1.9302,-1.9781,-2.016,-2.0598,-2.0997,-2.1067,-2.1356,-2.1756,-2.2364,-2.2887,-2.3789,-2.4783,-2.597,-2.7197,-2.8384,-2.9476,-3.0182,-3.0514,-3.026,-3.0287,-2.9475,-2.8667,-2.8233,-2.7889,-2.7649,-2.756,-2.756,-2.7625,-2.773,-2.8753,-2.9964,-3.1291,-3.2624,-3.4001,-3.5256,-3.5397,-3.5273,-3.4368,-3.3556,-3.2799,-3.2191,-3.163,-3.147,-3.1694,-3.1812,-3.1923,-3.2955,-3.4047,-3.4713,-3.5385,-3.5495,-3.5752,-3.6064,-3.6523,-3.6909,-3.7441,-3.8175,-3.8542,-3.867,-3.8792,-3.8902,-3.9287,-3.9728,-4.0062,-1.1844,-1.1974,-1.206,-1.279,-1.3743,-1.3828,-1.3913,-1.3997,-1.4082,-1.4088,-1.4088,-1.4088,-1.4088,-1.4088,-1.4088,-1.4088,-1.4088,-1.4088,-1.4088,-1.4088,-1.4088,-1.4088,-1.4088,-1.4088,-1.4088,-1.4088,-1.4088,-1.4173,-1.4166,-1.4088,-1.425,-1.4594,-1.5114,-1.589,-1.6624,-1.7379,-1.7628,-1.7262,-1.7098,-1.6553,-1.6738,-1.6465,-1.6543,-1.7256,-1.7334,-1.7568,-1.7881,-1.8008,-1.8076,-1.8231,-1.8484,-1.8765,-1.9097,-1.9392,-1.9717,-2.012,-2.0413,-2.0746,-2.1378,-2.2259,-2.2977,-2.4155,-2.476,-2.5794,-2.6921,-2.798,-2.8953,-2.9827,-2.9939,-3.0031,-3.0342,-2.9545,-2.8853,-2.8435,-2.7844,-2.756,-2.756,-2.756,-2.756,-2.767,-2.8789,-2.9855,-3.1274,-3.256,-3.3657,-3.4606,-3.453,-3.4445,-3.4057,-3.333,-3.2774,-3.2184,-3.1664,-3.1649,-3.1728,-3.162,-3.1696,-3.2798,-3.3717,-3.4046,-3.4504,-3.4651,-3.478,-3.5037,-3.5605,-3.6376,-3.7147,-3.79,-3.8358,-3.8689,-3.8851,-3.8989,-3.9371,-3.9775,-4.0082,-1.0331,-1.047,-1.06,-1.1558,-1.296,-1.3313,-1.3476,-1.3737,-1.3997,-1.4088,-1.4088,-1.4088,-1.4088,-1.4088,-1.4088,-1.4088,-1.4088,-1.4088,-1.4088,-1.4088,-1.4088,-1.4088,-1.4088,-1.4088,-1.4088,-1.4088,-1.4088,-1.4088,-1.4088,-1.4088,-1.4088,-1.4166,-1.4511,-1.5133,-1.5883,-1.7412,-1.7805,-1.7283,-1.7628,-1.7356,-1.7012,-1.6807,-1.7021,-1.7353,-1.749,-1.7715,-1.791,-1.8008,-1.8008,-1.8086,-1.8095,-1.8367,-1.8613,-1.8352,-1.8548,-1.9061,-1.9099,-1.9473,-2.0202,-2.2014,-2.3416,-2.4417,-2.4933,-2.5646,-2.6865,-2.7762,-2.8287,-2.9066,-2.9558,-2.9923,-2.9914,-2.9651,-2.9154,-2.8689,-2.8128,-2.7655,-2.767,-2.756,-2.756,-2.7685,-2.8625,-2.9741,-3.1181,-3.2432,-3.3363,-3.3879,-3.3676,-3.3482,-3.3347,-3.306,-3.2538,-3.1999,-3.1495,-3.1611,-3.1554,-3.1305,-3.1572,-3.2655,-3.3114,-3.315,-3.3633,-3.4055,-3.4147,-3.4192,-3.5147,-3.6321,-3.7,-3.7606,-3.8175,-3.8719,-3.8921,-3.9165,-3.9519,-3.984,-4.012,-0.91,-0.9461,-0.9531,-1.0066,-1.1052,-1.226,-1.2863,-1.33,-1.3822,-1.4088,-1.4088,-1.4088,-1.4088,-1.4088,-1.4088,-1.4088,-1.4088,-1.4088,-1.4088,-1.4088,-1.4088,-1.4088,-1.4088,-1.4088,-1.4088,-1.4088,-1.4088,-1.4088,-1.4088,-1.4088,-1.4088,-1.4166,-1.425,-1.4901,-1.6114,-1.7296,-1.7681,-1.7761,-1.79,-1.7842,-1.7568,-1.7344,-1.7363,-1.7764,-1.7803,-1.79,-1.8066,-1.8096,-1.8115,-1.8047,-1.8047,-1.8154,-1.8277,-1.8049,-1.828,-1.8935,-1.9226,-2.0103,-2.1207,-2.2689,-2.3566,-2.4417,-2.4978,-2.5532,-2.6561,-2.7095,-2.7617,-2.8274,-2.8917,-2.9425,-2.9968,-2.9798,-2.9496,-2.9227,-2.8741,-2.8101,-2.7861,-2.767,-2.764,-2.7876,-2.8495,-2.9577,-3.0858,-3.1534,-3.2373,-3.2824,-3.2644,-3.2639,-3.253,-3.2547,-3.2211,-3.1736,-3.1331,-3.1419,-3.1414,-3.1133,-3.12,-3.2041,-3.1986,-3.1589,-3.2243,-3.3331,-3.3725,-3.3862,-3.511,-3.6358,-3.7074,-3.7753,-3.8322,-3.878,-3.895,-3.92,-3.9524,-3.984,-4.0101,-0.7741,-0.8093,-0.8235,-0.8602,-0.932,-1.1096,-1.226,-1.2875,-1.3483,-1.3743,-1.3828,-1.3913,-1.4004,-1.4088,-1.4088,-1.4088,-1.4088,-1.4088,-1.4088,-1.4088,-1.4088,-1.4088,-1.4088,-1.4088,-1.4088,-1.4088,-1.4088,-1.4088,-1.4088,-1.4088,-1.4088,-1.4088,-1.4088,-1.4776,-1.5854,-1.6798,-1.7683,-1.7943,-1.819,-1.8428,-1.8144,-1.793,-1.7812,-1.8096,-1.8242,-1.8311,-1.8419,-1.8419,-1.835,-1.8233,-1.8193,-1.8193,-1.817,-1.8165,-1.8349,-1.9009,-2.0296,-2.1355,-2.2637,-2.3119,-2.3965,-2.4695,-2.4769,-2.5351,-2.6276,-2.6756,-2.7095,-2.7617,-2.8208,-2.9093,-2.9803,-2.9737,-2.9795,-2.952,-2.9155,-2.8463,-2.8112,-2.7921,-2.764,-2.7891,-2.8188,-2.93,-3.0198,-3.0655,-3.1212,-3.1417,-3.1545,-3.1665,-3.1825,-3.1933,-3.2025,-3.1658,-3.1331,-3.1448,-3.1302,-3.0872,-3.1073,-3.1483,-3.1182,-3.0719,-3.1689,-3.2912,-3.3221,-3.3752,-3.5147,-3.6376,-3.7239,-3.7936,-3.8469,-3.878,-3.895,-3.9208,-3.9548,-3.984,-4.0101,-0.6196,-0.6491,-0.679,-0.725,-0.7971,-0.9933,-1.1494,-1.2613,-1.2881,-1.3137,-1.3392,-1.3561,-1.3822,-1.4088,-1.4088,-1.4088,-1.4088,-1.4088,-1.4088,-1.4088,-1.4088,-1.4088,-1.4088,-1.4088,-1.4088,-1.4088,-1.4088,-1.4088,-1.4088,-1.4088,-1.4088,-1.4088,-1.4088,-1.4628,-1.5438,-1.6347,-1.7224,-1.7752,-1.8369,-1.851,-1.8225,-1.8017,-1.8047,-1.8222,-1.8329,-1.8564,-1.8693,-1.8894,-1.8765,-1.8676,-1.8577,-1.834,-1.8173,-1.8018,-1.8492,-1.9544,-2.1357,-2.2583,-2.3604,-2.3876,-2.4279,-2.4831,-2.495,-2.5506,-2.609,-2.6557,-2.6837,-2.7229,-2.7829,-2.8725,-2.9476,-2.9717,-2.9944,-2.9663,-2.941,-2.8943,-2.8531,-2.8173,-2.778,-2.781,-2.7931,-2.8632,-2.9342,-2.9861,-3.0418,-3.0532,-3.0784,-3.1007,-3.1215,-3.1692,-3.1765,-3.1765,-3.1557,-3.1562,-3.1316,-3.1057,-3.068,-3.1012,-3.082,-3.0577,-3.1583,-3.2318,-3.2708,-3.3532,-3.5183,-3.6486,-3.7643,-3.8248,-3.8579,-3.8792,-3.8921,-3.9208,-3.9548,-3.9819,-4.0081,-0.6044,-0.6414,-0.6525,-0.6892,-0.7528,-0.8727,-1.0019,-1.1133,-1.1666,-1.2095,-1.2674,-1.3039,-1.3476,-1.4082,-1.4088,-1.4088,-1.4088,-1.4088,-1.4088,-1.4088,-1.4088,-1.4088,-1.4088,-1.4088,-1.4088,-1.4088,-1.4088,-1.4088,-1.4088,-1.4088,-1.4088,-1.4088,-1.4088,-1.4467,-1.4958,-1.5748,-1.649,-1.7279,-1.8006,-1.8091,-1.8024,-1.7758,-1.7808,-1.7966,-1.8241,-1.8457,-1.8556,-1.8828,-1.863,-1.836,-1.8507,-1.8398,-1.8027,-1.835,-1.8924,-2.0737,-2.1992,-2.3022,-2.394,-2.4304,-2.4632,-2.5161,-2.5344,-2.5407,-2.5892,-2.6269,-2.6607,-2.6973,-2.7443,-2.8287,-2.917,-2.9525,-2.9958,-3.0051,-2.9819,-2.9445,-2.8982,-2.848,-2.8071,-2.7715,-2.7835,-2.8142,-2.882,-2.9319,-2.9816,-2.9886,-3.0076,-3.0392,-3.0816,-3.1381,-3.1749,-3.1783,-3.2121,-3.2198,-3.193,-3.1648,-3.0941,-3.0431,-3.0237,-3.0114,-3.0613,-3.1289,-3.2005,-3.3403,-3.522,-3.6853,-3.8303,-3.8652,-3.8707,-3.878,-3.8939,-3.9234,-3.9524,-3.9797,-4.0101,-0.5945,-0.6183,-0.639,-0.673,-0.7168,-0.7707,-0.8467,-0.9305,-1.0279,-1.1144,-1.1821,-1.2357,-1.3045,-1.3737,-1.3913,-1.4004,-1.4088,-1.4088,-1.4088,-1.4088,-1.4088,-1.4088,-1.4088,-1.4088,-1.4088,-1.4088,-1.4088,-1.4088,-1.4088,-1.4088,-1.4088,-1.4088,-1.4088,-1.4277,-1.4706,-1.5257,-1.5779,-1.6389,-1.696,-1.7274,-1.7316,-1.7272,-1.7376,-1.77,-1.8006,-1.8212,-1.8457,-1.8706,-1.8686,-1.8564,-1.8814,-1.8794,-1.8674,-1.9059,-1.9897,-2.1464,-2.2402,-2.3421,-2.4294,-2.4572,-2.5016,-2.5419,-2.5615,-2.5598,-2.5841,-2.6181,-2.6395,-2.6658,-2.7188,-2.7842,-2.8661,-2.9414,-3.004,-3.0584,-3.0273,-2.9962,-2.9421,-2.8837,-2.8333,-2.7805,-2.781,-2.8001,-2.8438,-2.8938,-2.9454,-2.9785,-3.0168,-3.0559,-3.1063,-3.1613,-3.1941,-3.2083,-3.2587,-3.2992,-3.2584,-3.1991,-3.1104,-3.0282,-2.9603,-2.9583,-2.9846,-3.0881,-3.2177,-3.3733,-3.5385,-3.6927,-3.8395,-3.8615,-3.8707,-3.881,-3.8939,-3.9227,-3.95,-3.9797,-4.0101,-0.5881,-0.604,-0.6346,-0.662,-0.6875,-0.6915,-0.7087,-0.7288,-0.8965,-1.0115,-1.0804,-1.158,-1.2357,-1.313,-1.3476,-1.3822,-1.3997,-1.4088,-1.4088,-1.4088,-1.4088,-1.4088,-1.4088,-1.4088,-1.4088,-1.4088,-1.4088,-1.4088,-1.4088,-1.4088,-1.4088,-1.4088,-1.4088,-1.4186,-1.4446,-1.4762,-1.5151,-1.5328,-1.5761,-1.6065,-1.6487,-1.6685,-1.6869,-1.7577,-1.8113,-1.8572,-1.8955,-1.9141,-1.9189,-1.916,-1.9219,-1.916,-1.9442,-1.9736,-2.0757,-2.169,-2.2518,-2.3469,-2.4296,-2.4654,-2.5105,-2.5395,-2.5642,-2.5765,-2.5983,-2.6201,-2.6471,-2.6589,-2.7066,-2.7564,-2.8312,-2.903,-2.9685,-3.0323,-3.0425,-3.0087,-2.9569,-2.8845,-2.8086,-2.77,-2.767,-2.7911,-2.8419,-2.8978,-2.9942,-3.0041,-3.0523,-3.1031,-3.152,-3.2123,-3.2338,-3.2565,-3.3397,-3.3725,-3.2866,-3.2173,-3.1117,-3.0247,-2.9554,-2.9237,-2.9582,-3.0957,-3.257,-3.4247,-3.5917,-3.7019,-3.8138,-3.845,-3.8707,-3.875,-3.8921,-3.92,-3.9494,-3.9754,-4.0101,-0.582,-0.5898,-0.6302,-0.6519,-0.661,-0.6834,-0.6915,-0.7018,-0.7698,-0.8632,-0.9414,-1.0371,-1.1408,-1.251,-1.2954,-1.3392,-1.3913,-1.3913,-1.4088,-1.4088,-1.4088,-1.4088,-1.4088,-1.4088,-1.4088,-1.4088,-1.4088,-1.4088,-1.4088,-1.4088,-1.4088,-1.4088,-1.4088,-1.4179,-1.4179,-1.4419,-1.4517,-1.4608,-1.4561,-1.4997,-1.5647,-1.5861,-1.6105,-1.6747,-1.7292,-1.7817,-1.8209,-1.8577,-1.8458,-1.8429,-1.862,-1.8904,-1.9277,-1.9677,-2.041,-2.1439,-2.2157,-2.3051,-2.38,-2.4366,-2.4939,-2.5591,-2.5896,-2.6127,-2.6314,-2.6414,-2.6521,-2.6658,-2.6918,-2.7351,-2.7855,-2.8648,-2.9345,-2.9958,-3.0558,-3.0148,-2.971,-2.8823,-2.7946,-2.7685,-2.7625,-2.797,-2.8424,-2.9202,-3.0202,-3.0915,-3.155,-3.2056,-3.251,-3.2978,-3.3046,-3.3427,-3.444,-3.4547,-3.3465,-3.2442,-3.1448,-3.0653,-2.9968,-2.9673,-2.953,-3.0903,-3.2572,-3.4715,-3.645,-3.7312,-3.801,-3.8524,-3.8707,-3.8738,-3.8881,-3.9137,-3.9408,-3.9679,-4.0062,-0.5745,-0.5847,-0.6217,-0.6413,-0.6498,-0.6658,-0.6766,-0.6946,-0.7166,-0.7523,-0.8273,-0.9323,-1.0534,-1.1649,-1.2186,-1.279,-1.3392,-1.3568,-1.3652,-1.3737,-1.3913,-1.4004,-1.4088,-1.4088,-1.4088,-1.4088,-1.4088,-1.4088,-1.4088,-1.4088,-1.4088,-1.4088,-1.4088,-1.4088,-1.4088,-1.4088,-1.4088,-1.4075,-1.3794,-1.4058,-1.4824,-1.486,-1.5168,-1.576,-1.6515,-1.7088,-1.7598,-1.8018,-1.8252,-1.8379,-1.8773,-1.9015,-1.9268,-1.9452,-1.9816,-2.0471,-2.1141,-2.1903,-2.2787,-2.3663,-2.4531,-2.5228,-2.5807,-2.5847,-2.6377,-2.6521,-2.6521,-2.6589,-2.6714,-2.7095,-2.755,-2.8208,-2.9044,-2.9785,-3.0249,-3.0278,-2.9648,-2.8884,-2.8173,-2.7655,-2.775,-2.8067,-2.8621,-2.9468,-3.0416,-3.1469,-3.2137,-3.2648,-3.3186,-3.37,-3.3785,-3.393,-3.4762,-3.4675,-3.3575,-3.2686,-3.1885,-3.1096,-3.03,-3.0469,-3.0576,-3.1319,-3.2575,-3.4907,-3.6523,-3.7165,-3.7826,-3.8487,-3.8707,-3.8707,-3.8851,-3.9017,-3.9305,-3.9604,-3.992,-0.5691,-0.5864,-0.6146,-0.6329,-0.6441,-0.6471,-0.6661,-0.6843,-0.6881,-0.7014,-0.7305,-0.8452,-0.9671,-1.0544,-1.1241,-1.1843,-1.2272,-1.2613,-1.2875,-1.3215,-1.3476,-1.3737,-1.3997,-1.4088,-1.4088,-1.4088,-1.4088,-1.4088,-1.4088,-1.4088,-1.4088,-1.4088,-1.4088,-1.4088,-1.4088,-1.4088,-1.4088,-1.4035,-1.3834,-1.3615,-1.3766,-1.3892,-1.4444,-1.508,-1.5869,-1.6645,-1.7157,-1.7655,-1.8173,-1.8447,-1.876,-1.8945,-1.9082,-1.9102,-1.9228,-1.9703,-2.0366,-2.0903,-2.1576,-2.2613,-2.3677,-2.4612,-2.5141,-2.5709,-2.6171,-2.6383,-2.6383,-2.6521,-2.6645,-2.685,-2.7229,-2.7829,-2.8661,-2.9552,-3.0028,-3.0423,-2.9783,-2.9103,-2.845,-2.782,-2.8036,-2.8369,-2.9031,-2.9808,-3.0767,-3.1772,-3.2495,-3.2968,-3.3496,-3.3956,-3.4278,-3.4168,-3.4423,-3.4075,-3.3414,-3.2737,-3.1947,-3.1134,-3.0488,-3.1034,-3.1535,-3.1787,-3.2921,-3.5255,-3.6633,-3.711,-3.7863,-3.8597,-3.8707,-3.8707,-3.8822,-3.8989,-3.92,-3.9489,-3.9766,-0.5745,-0.6003,-0.619,-0.6359,-0.6318,-0.642,-0.66,-0.677,-0.6864,-0.7007,-0.72,-0.7588,-0.8372,-0.9323,-0.9753,-1.0356,-1.1052,-1.1488,-1.1997,-1.2504,-1.2869,-1.3476,-1.3913,-1.4088,-1.4088,-1.4088,-1.4088,-1.4088,-1.4088,-1.4088,-1.4088,-1.4088,-1.4088,-1.4088,-1.4088,-1.4088,-1.4082,-1.4041,-1.3975,-1.3817,-1.3419,-1.3621,-1.3955,-1.468,-1.5517,-1.6237,-1.695,-1.7657,-1.792,-1.8135,-1.8271,-1.8506,-1.8652,-1.8779,-1.8887,-1.9183,-1.9766,-2.0176,-2.0864,-2.1784,-2.2883,-2.3788,-2.439,-2.5141,-2.5648,-2.6188,-2.6258,-2.6452,-2.6589,-2.6589,-2.6918,-2.7377,-2.8143,-2.9171,-2.9863,-3.0265,-3.0149,-2.9477,-2.88,-2.8651,-2.8719,-2.9132,-2.9644,-3.0469,-3.135,-3.2269,-3.2964,-3.3532,-3.4246,-3.4526,-3.4772,-3.4533,-3.4372,-3.3843,-3.3368,-3.2625,-3.1862,-3.1062,-3.057,-3.0849,-3.1227,-3.1791,-3.3237,-3.53,-3.6395,-3.6927,-3.7734,-3.8542,-3.8707,-3.8689,-3.8822,-3.896,-3.9146,-3.9414,-3.9724]}]]